Wetterdaten: Sonntag, 09.12.2018
Datum Zeit Temp. A. Feuchte A. Luftdruck Regen Wind Richtung Richtung Sonnenschein ET UV Solar Taupunkt Windchill Windböen
09.12.2018 00:00 6,6 °C 72 % 1007,5 hPa 0,0 mm 13,4 km/h (3 Bft) W 270 ° 0 min 0,000 mm 0,0 UV-I 0 W/m² 1,9 °C 4,0 °C 19,3 km/h (3 Bft)
09.12.2018 00:01 6,6 °C 72 % 1007,3 hPa 0,0 mm 9,3 km/h (2 Bft) W-SW 252 ° 0 min 0,000 mm 0,0 UV-I 0 W/m² 1,9 °C 4,7 °C 14,5 km/h (3 Bft)
09.12.2018 00:02 6,6 °C 72 % 1007,3 hPa 0,0 mm 12,2 km/h (2 Bft) W 271 ° 0 min 0,000 mm 0,0 UV-I 0 W/m² 1,9 °C 4,2 °C 19,3 km/h (3 Bft)
09.12.2018 00:03 6,6 °C 72 % 1007,4 hPa 0,0 mm 5,6 km/h (1 Bft) W-NW 287 ° 0 min 0,000 mm 0,0 UV-I 0 W/m² 1,9 °C 5,7 °C 11,3 km/h (2 Bft)
09.12.2018 00:04 6,6 °C 73 % 1007,5 hPa 0,0 mm 13,7 km/h (3 Bft) W-SW 246 ° 0 min 0,000 mm 0,0 UV-I 0 W/m² 2,1 °C 3,9 °C 22,5 km/h (4 Bft)
09.12.2018 00:05 6,6 °C 73 % 1007,6 hPa 0,0 mm 13,6 km/h (3 Bft) W-NW 289 ° 0 min 0,000 mm 0,0 UV-I 0 W/m² 2,1 °C 3,9 °C 25,7 km/h (4 Bft)
09.12.2018 00:06 6,6 °C 73 % 1007,4 hPa 0,0 mm 16,0 km/h (3 Bft) SW 234 ° 0 min 0,000 mm 0,0 UV-I 0 W/m² 2,1 °C 3,6 °C 25,7 km/h (4 Bft)
09.12.2018 00:07 6,7 °C 72 % 1007,4 hPa 0,0 mm 10,6 km/h (2 Bft) W-SW 244 ° 0 min 0,000 mm 0,0 UV-I 0 W/m² 2,0 °C 4,6 °C 16,1 km/h (3 Bft)
09.12.2018 00:08 6,7 °C 73 % 1007,4 hPa 0,0 mm 12,0 km/h (2 Bft) W-SW 248 ° 0 min 0,000 mm 0,0 UV-I 0 W/m² 2,2 °C 4,3 °C 17,7 km/h (3 Bft)
09.12.2018 00:09 6,7 °C 73 % 1007,4 hPa 0,0 mm 10,5 km/h (2 Bft) W-NW 297 ° 0 min 0,000 mm 0,0 UV-I 0 W/m² 2,2 °C 4,6 °C 12,9 km/h (3 Bft)
09.12.2018 00:10 6,7 °C 72 % 1007,2 hPa 0,0 mm 6,8 km/h (2 Bft) W 267 ° 0 min 0,000 mm 0,0 UV-I 0 W/m² 2,0 °C 5,4 °C 9,7 km/h (2 Bft)
09.12.2018 00:11 6,7 °C 73 % 1007,3 hPa 0,0 mm 14,3 km/h (3 Bft) W 271 ° 0 min 0,000 mm 0,0 UV-I 0 W/m² 2,2 °C 3,9 °C 25,7 km/h (4 Bft)
09.12.2018 00:12 6,7 °C 72 % 1007,3 hPa 0,0 mm 12,3 km/h (3 Bft) W 269 ° 0 min 0,000 mm 0,0 UV-I 0 W/m² 2,0 °C 4,3 °C 17,7 km/h (3 Bft)
09.12.2018 00:13 6,7 °C 72 % 1007,2 hPa 0,0 mm 12,1 km/h (2 Bft) W-NW 282 ° 0 min 0,000 mm 0,0 UV-I 0 W/m² 2,0 °C 4,3 °C 19,3 km/h (3 Bft)
09.12.2018 00:14 6,7 °C 73 % 1007,2 hPa 0,0 mm 15,6 km/h (3 Bft) W-SW 257 ° 0 min 0,000 mm 0,0 UV-I 0 W/m² 2,2 °C 3,8 °C 22,5 km/h (4 Bft)
09.12.2018 00:15 6,8 °C 72 % 1007,2 hPa 0,0 mm 11,7 km/h (2 Bft) W-NW 292 ° 0 min 0,000 mm 0,0 UV-I 0 W/m² 2,1 °C 4,5 °C 14,5 km/h (3 Bft)
09.12.2018 00:16 6,8 °C 73 % 1007,2 hPa 0,0 mm 10,4 km/h (2 Bft) W 267 ° 0 min 0,000 mm 0,0 UV-I 0 W/m² 2,3 °C 4,7 °C 16,1 km/h (3 Bft)
09.12.2018 00:17 6,8 °C 73 % 1007,2 hPa 0,0 mm 8,7 km/h (2 Bft) W 259 ° 0 min 0,000 mm 0,0 UV-I 0 W/m² 2,3 °C 5,1 °C 14,5 km/h (3 Bft)
09.12.2018 00:18 6,8 °C 73 % 1007,2 hPa 0,0 mm 17,4 km/h (3 Bft) W 259 ° 0 min 0,000 mm 0,0 UV-I 0 W/m² 2,3 °C 3,6 °C 24,1 km/h (4 Bft)
09.12.2018 00:19 6,8 °C 73 % 1007,2 hPa 0,0 mm 9,5 km/h (2 Bft) W-SW 255 ° 0 min 0,000 mm 0,0 UV-I 0 W/m² 2,3 °C 4,9 °C 14,5 km/h (3 Bft)
09.12.2018 00:20 6,8 °C 73 % 1007,1 hPa 0,0 mm 10,4 km/h (2 Bft) W-SW 240 ° 0 min 0,000 mm 0,0 UV-I 0 W/m² 2,3 °C 4,7 °C 14,5 km/h (3 Bft)
09.12.2018 00:21 6,8 °C 73 % 1007,2 hPa 0,0 mm 16,3 km/h (3 Bft) W 263 ° 0 min 0,000 mm 0,0 UV-I 0 W/m² 2,3 °C 3,8 °C 20,9 km/h (4 Bft)
09.12.2018 00:22 6,8 °C 73 % 1007,1 hPa 0,0 mm 11,0 km/h (2 Bft) W 274 ° 0 min 0,000 mm 0,0 UV-I 0 W/m² 2,3 °C 4,6 °C 16,1 km/h (3 Bft)
09.12.2018 00:23 6,8 °C 73 % 1007,1 hPa 0,0 mm 9,9 km/h (2 Bft) W 281 ° 0 min 0,000 mm 0,0 UV-I 0 W/m² 2,3 °C 4,8 °C 17,7 km/h (3 Bft)
09.12.2018 00:24 6,8 °C 73 % 1007,1 hPa 0,0 mm 10,9 km/h (2 Bft) W-NW 298 ° 0 min 0,000 mm 0,0 UV-I 0 W/m² 2,3 °C 4,6 °C 17,7 km/h (3 Bft)
09.12.2018 00:25 6,8 °C 73 % 1007,1 hPa 0,0 mm 14,5 km/h (3 Bft) W-SW 250 ° 0 min 0,000 mm 0,0 UV-I 0 W/m² 2,3 °C 4,0 °C 27,4 km/h (4 Bft)
09.12.2018 00:26 6,8 °C 73 % 1007,1 hPa 0,0 mm 11,4 km/h (2 Bft) W 279 ° 0 min 0,000 mm 0,0 UV-I 0 W/m² 2,3 °C 4,5 °C 14,5 km/h (3 Bft)
09.12.2018 00:27 6,8 °C 73 % 1007,1 hPa 0,0 mm 13,5 km/h (3 Bft) W 272 ° 0 min 0,000 mm 0,0 UV-I 0 W/m² 2,3 °C 4,2 °C 20,9 km/h (4 Bft)
09.12.2018 00:28 6,8 °C 73 % 1007,1 hPa 0,0 mm 17,0 km/h (3 Bft) W 275 ° 0 min 0,000 mm 0,0 UV-I 0 W/m² 2,3 °C 3,7 °C 20,9 km/h (4 Bft)
09.12.2018 00:29 6,8 °C 73 % 1007,1 hPa 0,0 mm 15,9 km/h (3 Bft) W 276 ° 0 min 0,000 mm 0,0 UV-I 0 W/m² 2,3 °C 3,8 °C 22,5 km/h (4 Bft)
09.12.2018 00:30 6,8 °C 73 % 1007,2 hPa 0,0 mm 12,5 km/h (3 Bft) W 267 ° 0 min 0,000 mm 0,0 UV-I 0 W/m² 2,3 °C 4,4 °C 20,9 km/h (4 Bft)
09.12.2018 00:31 6,8 °C 74 % 1007,1 hPa 0,0 mm 9,8 km/h (2 Bft) W-NW 298 ° 0 min 0,000 mm 0,0 UV-I 0 W/m² 2,5 °C 4,8 °C 14,5 km/h (3 Bft)
09.12.2018 00:32 6,8 °C 74 % 1007,1 hPa 0,0 mm 12,6 km/h (3 Bft) W-SW 251 ° 0 min 0,000 mm 0,0 UV-I 0 W/m² 2,5 °C 4,3 °C 16,1 km/h (3 Bft)
09.12.2018 00:33 6,9 °C 74 % 1007,2 hPa 0,0 mm 9,8 km/h (2 Bft) W-SW 243 ° 0 min 0,000 mm 0,0 UV-I 0 W/m² 2,6 °C 5,0 °C 14,5 km/h (3 Bft)
09.12.2018 00:34 6,9 °C 74 % 1007,1 hPa 0,0 mm 11,0 km/h (2 Bft) W 271 ° 0 min 0,000 mm 0,0 UV-I 0 W/m² 2,6 °C 4,7 °C 16,1 km/h (3 Bft)
09.12.2018 00:35 6,9 °C 75 % 1007,1 hPa 0,0 mm 11,4 km/h (2 Bft) W-NW 288 ° 0 min 0,000 mm 0,0 UV-I 0 W/m² 2,8 °C 4,7 °C 17,7 km/h (3 Bft)
09.12.2018 00:36 6,9 °C 76 % 1007,1 hPa 0,0 mm 18,0 km/h (3 Bft) SW 222 ° 0 min 0,000 mm 0,0 UV-I 0 W/m² 3,0 °C 3,7 °C 25,7 km/h (4 Bft)
09.12.2018 00:37 6,8 °C 76 % 1007,1 hPa 0,0 mm 15,5 km/h (3 Bft) W-SW 253 ° 0 min 0,000 mm 0,0 UV-I 0 W/m² 2,9 °C 3,9 °C 20,9 km/h (4 Bft)
09.12.2018 00:38 6,8 °C 76 % 1007,2 hPa 0,0 mm 12,0 km/h (2 Bft) W-SW 244 ° 0 min 0,000 mm 0,0 UV-I 0 W/m² 2,9 °C 4,4 °C 20,9 km/h (4 Bft)
09.12.2018 00:39 6,8 °C 76 % 1007,0 hPa 0,0 mm 11,9 km/h (2 Bft) SW 226 ° 0 min 0,000 mm 0,0 UV-I 0 W/m² 2,9 °C 4,5 °C 19,3 km/h (3 Bft)
09.12.2018 00:40 6,8 °C 77 % 1007,2 hPa 0,0 mm 14,3 km/h (3 Bft) W 271 ° 0 min 0,000 mm 0,0 UV-I 0 W/m² 3,1 °C 4,1 °C 25,7 km/h (4 Bft)
09.12.2018 00:41 6,8 °C 77 % 1007,1 hPa 0,0 mm 12,2 km/h (2 Bft) W 267 ° 0 min 0,000 mm 0,0 UV-I 0 W/m² 3,1 °C 4,4 °C 17,7 km/h (3 Bft)
09.12.2018 00:42 6,8 °C 77 % 1007,1 hPa 0,0 mm 9,1 km/h (2 Bft) W-SW 248 ° 0 min 0,000 mm 0,0 UV-I 0 W/m² 3,1 °C 5,0 °C 14,5 km/h (3 Bft)
09.12.2018 00:43 6,8 °C 77 % 1007,1 hPa 0,0 mm 11,5 km/h (2 Bft) W-SW 246 ° 0 min 0,000 mm 0,0 UV-I 0 W/m² 3,1 °C 4,5 °C 20,9 km/h (4 Bft)
09.12.2018 00:44 6,7 °C 78 % 1007,1 hPa 0,0 mm 5,7 km/h (1 Bft) SW 227 ° 0 min 0,000 mm 0,0 UV-I 0 W/m² 3,1 °C 5,8 °C 12,9 km/h (3 Bft)
09.12.2018 00:45 6,7 °C 78 % 1007,1 hPa 0,0 mm 8,0 km/h (2 Bft) W-SW 247 ° 0 min 0,000 mm 0,0 UV-I 0 W/m² 3,1 °C 5,1 °C 11,3 km/h (2 Bft)
09.12.2018 00:46 6,7 °C 78 % 1007,1 hPa 0,0 mm 18,6 km/h (3 Bft) W-SW 238 ° 0 min 0,000 mm 0,0 UV-I 0 W/m² 3,1 °C 3,4 °C 29,0 km/h (5 Bft)
09.12.2018 00:47 6,6 °C 78 % 1007,2 hPa 0,0 mm 13,5 km/h (3 Bft) W-NW 287 ° 0 min 0,000 mm 0,0 UV-I 0 W/m² 3,0 °C 3,9 °C 17,7 km/h (3 Bft)
09.12.2018 00:48 6,6 °C 78 % 1007,2 hPa 0,0 mm 14,7 km/h (3 Bft) W 264 ° 0 min 0,000 mm 0,0 UV-I 0 W/m² 3,0 °C 3,8 °C 24,1 km/h (4 Bft)
09.12.2018 00:49 6,6 °C 78 % 1007,2 hPa 0,0 mm 13,9 km/h (3 Bft) W-SW 253 ° 0 min 0,000 mm 0,0 UV-I 0 W/m² 3,0 °C 3,9 °C 22,5 km/h (4 Bft)
09.12.2018 00:50 6,5 °C 78 % 1007,3 hPa 0,0 mm 9,1 km/h (2 Bft) W 267 ° 0 min 0,000 mm 0,0 UV-I 0 W/m² 2,9 °C 4,6 °C 12,9 km/h (3 Bft)
09.12.2018 00:51 6,5 °C 79 % 1007,3 hPa 0,0 mm 14,0 km/h (3 Bft) W-SW 254 ° 0 min 0,000 mm 0,0 UV-I 0 W/m² 3,1 °C 3,7 °C 30,6 km/h (5 Bft)
09.12.2018 00:52 6,5 °C 79 % 1007,2 hPa 0,0 mm 20,2 km/h (4 Bft) W-SW 240 ° 0 min 0,000 mm 0,0 UV-I 0 W/m² 3,1 °C 2,9 °C 27,4 km/h (4 Bft)
09.12.2018 00:53 6,5 °C 79 % 1007,1 hPa 0,0 mm 11,9 km/h (2 Bft) W 271 ° 0 min 0,000 mm 0,0 UV-I 0 W/m² 3,1 °C 4,1 °C 17,7 km/h (3 Bft)
09.12.2018 00:54 6,5 °C 79 % 1007,2 hPa 0,0 mm 13,3 km/h (3 Bft) W-NW 284 ° 0 min 0,000 mm 0,0 UV-I 0 W/m² 3,1 °C 3,9 °C 20,9 km/h (4 Bft)
09.12.2018 00:55 6,4 °C 79 % 1007,1 hPa 0,0 mm 10,5 km/h (2 Bft) SW 214 ° 0 min 0,000 mm 0,0 UV-I 0 W/m² 3,0 °C 4,2 °C 19,3 km/h (3 Bft)
09.12.2018 00:56 6,4 °C 79 % 1006,9 hPa 0,0 mm 11,2 km/h (2 Bft) SW 215 ° 0 min 0,000 mm 0,0 UV-I 0 W/m² 3,0 °C 4,1 °C 17,7 km/h (3 Bft)
09.12.2018 00:57 6,4 °C 79 % 1006,9 hPa 0,0 mm 12,6 km/h (3 Bft) W 265 ° 0 min 0,000 mm 0,0 UV-I 0 W/m² 3,0 °C 3,8 °C 22,5 km/h (4 Bft)
09.12.2018 00:58 6,4 °C 79 % 1006,9 hPa 0,0 mm 8,6 km/h (2 Bft) SW 233 ° 0 min 0,000 mm 0,0 UV-I 0 W/m² 3,0 °C 4,6 °C 14,5 km/h (3 Bft)
09.12.2018 00:59 6,3 °C 79 % 1006,8 hPa 0,0 mm 7,0 km/h (2 Bft) W 268 ° 0 min 0,000 mm 0,0 UV-I 0 W/m² 2,9 °C 4,9 °C 19,3 km/h (3 Bft)
09.12.2018 01:00 6,3 °C 79 % 1006,8 hPa 0,0 mm 13,3 km/h (3 Bft) W 262 ° 0 min 0,000 mm 0,0 UV-I 0 W/m² 2,9 °C 3,6 °C 19,3 km/h (3 Bft)
09.12.2018 01:01 6,3 °C 79 % 1006,9 hPa 0,0 mm 10,0 km/h (2 Bft) W-SW 246 ° 0 min 0,025 mm 0,0 UV-I 0 W/m² 2,9 °C 4,2 °C 19,3 km/h (3 Bft)
09.12.2018 01:02 6,3 °C 79 % 1006,7 hPa 0,0 mm 12,9 km/h (3 Bft) SW 236 ° 0 min 0,000 mm 0,0 UV-I 0 W/m² 2,9 °C 3,7 °C 19,3 km/h (3 Bft)
09.12.2018 01:03 6,3 °C 79 % 1006,8 hPa 0,0 mm 13,0 km/h (3 Bft) SW 219 ° 0 min 0,000 mm 0,0 UV-I 0 W/m² 2,9 °C 3,7 °C 17,7 km/h (3 Bft)
09.12.2018 01:04 6,3 °C 79 % 1006,6 hPa 0,0 mm 13,6 km/h (3 Bft) W 275 ° 0 min 0,000 mm 0,0 UV-I 0 W/m² 2,9 °C 3,6 °C 20,9 km/h (4 Bft)
09.12.2018 01:05 6,2 °C 79 % 1006,5 hPa 0,0 mm 19,8 km/h (3 Bft) W 280 ° 0 min 0,000 mm 0,0 UV-I 0 W/m² 2,8 °C 2,6 °C 29,0 km/h (5 Bft)
09.12.2018 01:06 6,2 °C 80 % 1006,5 hPa 0,0 mm 14,6 km/h (3 Bft) W 261 ° 0 min 0,000 mm 0,0 UV-I 0 W/m² 3,0 °C 3,3 °C 24,1 km/h (4 Bft)
09.12.2018 01:07 6,2 °C 80 % 1006,5 hPa 0,0 mm 13,7 km/h (3 Bft) W-SW 249 ° 0 min 0,000 mm 0,0 UV-I 0 W/m² 3,0 °C 3,4 °C 24,1 km/h (4 Bft)
09.12.2018 01:08 6,3 °C 80 % 1006,5 hPa 0,0 mm 8,1 km/h (2 Bft) W-SW 252 ° 0 min 0,000 mm 0,0 UV-I 0 W/m² 3,1 °C 4,6 °C 14,5 km/h (3 Bft)
09.12.2018 01:09 6,2 °C 80 % 1006,5 hPa 0,0 mm 13,7 km/h (3 Bft) W 265 ° 0 min 0,000 mm 0,0 UV-I 0 W/m² 3,0 °C 3,4 °C 20,9 km/h (4 Bft)
09.12.2018 01:10 6,3 °C 80 % 1006,5 hPa 0,0 mm 13,5 km/h (3 Bft) SW 226 ° 0 min 0,000 mm 0,0 UV-I 0 W/m² 3,1 °C 3,6 °C 19,3 km/h (3 Bft)
09.12.2018 01:11 6,3 °C 80 % 1006,5 hPa 0,0 mm 10,3 km/h (2 Bft) SW 233 ° 0 min 0,000 mm 0,0 UV-I 0 W/m² 3,1 °C 4,2 °C 14,5 km/h (3 Bft)
09.12.2018 01:12 6,3 °C 80 % 1006,4 hPa 0,0 mm 14,1 km/h (3 Bft) W-SW 242 ° 0 min 0,000 mm 0,0 UV-I 0 W/m² 3,1 °C 3,5 °C 20,9 km/h (4 Bft)
09.12.2018 01:13 6,3 °C 80 % 1006,4 hPa 0,0 mm 9,7 km/h (2 Bft) W 271 ° 0 min 0,000 mm 0,0 UV-I 0 W/m² 3,1 °C 4,3 °C 17,7 km/h (3 Bft)
09.12.2018 01:14 6,3 °C 80 % 1006,1 hPa 0,0 mm 16,6 km/h (3 Bft) W-SW 257 ° 0 min 0,000 mm 0,0 UV-I 0 W/m² 3,1 °C 3,1 °C 22,5 km/h (4 Bft)
09.12.2018 01:15 6,3 °C 80 % 1006,1 hPa 0,0 mm 12,5 km/h (3 Bft) SW 234 ° 0 min 0,000 mm 0,0 UV-I 0 W/m² 3,1 °C 3,7 °C 16,1 km/h (3 Bft)
09.12.2018 01:16 6,3 °C 80 % 1006,1 hPa 0,0 mm 9,7 km/h (2 Bft) W 269 ° 0 min 0,000 mm 0,0 UV-I 0 W/m² 3,1 °C 4,3 °C 14,5 km/h (3 Bft)
09.12.2018 01:17 6,3 °C 80 % 1006,1 hPa 0,0 mm 14,5 km/h (3 Bft) W-SW 244 ° 0 min 0,000 mm 0,0 UV-I 0 W/m² 3,1 °C 3,4 °C 19,3 km/h (3 Bft)
09.12.2018 01:18 6,3 °C 80 % 1006,1 hPa 0,0 mm 9,1 km/h (2 Bft) SW 235 ° 0 min 0,000 mm 0,0 UV-I 0 W/m² 3,1 °C 4,4 °C 14,5 km/h (3 Bft)
09.12.2018 01:19 6,3 °C 80 % 1006,1 hPa 0,0 mm 7,0 km/h (2 Bft) W-SW 243 ° 0 min 0,000 mm 0,0 UV-I 0 W/m² 3,1 °C 4,9 °C 12,9 km/h (3 Bft)
09.12.2018 01:20 6,3 °C 80 % 1006,1 hPa 0,0 mm 12,5 km/h (3 Bft) W 265 ° 0 min 0,000 mm 0,0 UV-I 0 W/m² 3,1 °C 3,7 °C 19,3 km/h (3 Bft)
09.12.2018 01:21 6,3 °C 80 % 1006,0 hPa 0,0 mm 8,8 km/h (2 Bft) W 262 ° 0 min 0,000 mm 0,0 UV-I 0 W/m² 3,1 °C 4,5 °C 16,1 km/h (3 Bft)
09.12.2018 01:22 6,3 °C 79 % 1005,9 hPa 0,0 mm 12,8 km/h (3 Bft) W 271 ° 0 min 0,000 mm 0,0 UV-I 0 W/m² 2,9 °C 3,7 °C 19,3 km/h (3 Bft)
09.12.2018 01:23 6,4 °C 79 % 1006,0 hPa 0,0 mm 14,4 km/h (3 Bft) W 277 ° 0 min 0,000 mm 0,0 UV-I 0 W/m² 3,0 °C 3,6 °C 19,3 km/h (3 Bft)
09.12.2018 01:24 6,4 °C 79 % 1006,0 hPa 0,0 mm 6,5 km/h (2 Bft) W 280 ° 0 min 0,000 mm 0,0 UV-I 0 W/m² 3,0 °C 5,2 °C 11,3 km/h (2 Bft)
09.12.2018 01:25 6,4 °C 79 % 1005,9 hPa 0,0 mm 16,1 km/h (3 Bft) W-SW 257 ° 0 min 0,000 mm 0,0 UV-I 0 W/m² 3,0 °C 3,3 °C 25,7 km/h (4 Bft)
09.12.2018 01:26 6,4 °C 79 % 1005,9 hPa 0,0 mm 13,4 km/h (3 Bft) W-NW 292 ° 0 min 0,000 mm 0,0 UV-I 0 W/m² 3,0 °C 3,7 °C 20,9 km/h (4 Bft)
09.12.2018 01:27 6,5 °C 79 % 1005,9 hPa 0,0 mm 12,8 km/h (3 Bft) W 260 ° 0 min 0,000 mm 0,0 UV-I 0 W/m² 3,1 °C 3,9 °C 16,1 km/h (3 Bft)
09.12.2018 01:28 6,4 °C 79 % 1005,8 hPa 0,0 mm 13,5 km/h (3 Bft) W-NW 299 ° 0 min 0,000 mm 0,0 UV-I 0 W/m² 3,0 °C 3,7 °C 19,3 km/h (3 Bft)
09.12.2018 01:29 6,4 °C 79 % 1005,8 hPa 0,0 mm 7,7 km/h (2 Bft) W-SW 246 ° 0 min 0,000 mm 0,0 UV-I 0 W/m² 3,0 °C 4,9 °C 16,1 km/h (3 Bft)
09.12.2018 01:30 6,5 °C 79 % 1005,8 hPa 0,0 mm 8,7 km/h (2 Bft) W-SW 238 ° 0 min 0,000 mm 0,0 UV-I 0 W/m² 3,1 °C 4,7 °C 17,7 km/h (3 Bft)
09.12.2018 01:31 6,5 °C 79 % 1005,8 hPa 0,0 mm 8,1 km/h (2 Bft) W-SW 246 ° 0 min 0,000 mm 0,0 UV-I 0 W/m² 3,1 °C 4,9 °C 16,1 km/h (3 Bft)
09.12.2018 01:32 6,5 °C 78 % 1005,5 hPa 0,0 mm 12,5 km/h (3 Bft) S-SW 212 ° 0 min 0,000 mm 0,0 UV-I 0 W/m² 2,9 °C 4,0 °C 19,3 km/h (3 Bft)
09.12.2018 01:33 6,6 °C 78 % 1005,8 hPa 0,0 mm 15,3 km/h (3 Bft) W 262 ° 0 min 0,000 mm 0,0 UV-I 0 W/m² 3,0 °C 3,7 °C 27,4 km/h (4 Bft)
09.12.2018 01:34 6,6 °C 78 % 1005,8 hPa 0,0 mm 11,1 km/h (2 Bft) W 273 ° 0 min 0,000 mm 0,0 UV-I 0 W/m² 3,0 °C 4,4 °C 20,9 km/h (4 Bft)
09.12.2018 01:35 6,6 °C 78 % 1005,7 hPa 0,0 mm 12,9 km/h (3 Bft) S 191 ° 0 min 0,000 mm 0,0 UV-I 0 W/m² 3,0 °C 4,0 °C 16,1 km/h (3 Bft)
09.12.2018 01:36 6,7 °C 78 % 1005,8 hPa 0,0 mm 16,6 km/h (3 Bft) NW 326 ° 0 min 0,000 mm 0,0 UV-I 0 W/m² 3,1 °C 3,6 °C 29,0 km/h (5 Bft)
09.12.2018 01:37 6,7 °C 78 % 1005,7 hPa 0,0 mm 17,7 km/h (3 Bft) W 268 ° 0 min 0,000 mm 0,0 UV-I 0 W/m² 3,1 °C 3,5 °C 33,8 km/h (5 Bft)
09.12.2018 01:38 6,7 °C 77 % 1005,6 hPa 0,0 mm 16,3 km/h (3 Bft) W 265 ° 0 min 0,000 mm 0,0 UV-I 0 W/m² 3,0 °C 3,7 °C 24,1 km/h (4 Bft)
09.12.2018 01:39 6,8 °C 77 % 1005,7 hPa 0,0 mm 21,9 km/h (4 Bft) W 272 ° 0 min 0,000 mm 0,0 UV-I 0 W/m² 3,1 °C 3,1 °C 33,8 km/h (5 Bft)
09.12.2018 01:40 6,8 °C 77 % 1005,6 hPa 0,0 mm 15,0 km/h (3 Bft) W-SW 256 ° 0 min 0,000 mm 0,0 UV-I 0 W/m² 3,1 °C 4,0 °C 27,4 km/h (4 Bft)
09.12.2018 01:41 6,8 °C 77 % 1005,6 hPa 0,0 mm 11,1 km/h (2 Bft) W 273 ° 0 min 0,000 mm 0,0 UV-I 0 W/m² 3,1 °C 4,6 °C 17,7 km/h (3 Bft)
09.12.2018 01:42 6,8 °C 77 % 1005,5 hPa 0,0 mm 13,7 km/h (3 Bft) NW 309 ° 0 min 0,000 mm 0,0 UV-I 0 W/m² 3,1 °C 4,2 °C 22,5 km/h (4 Bft)
09.12.2018 01:43 6,8 °C 77 % 1005,5 hPa 0,0 mm 20,8 km/h (4 Bft) W 259 ° 0 min 0,000 mm 0,0 UV-I 0 W/m² 3,1 °C 3,3 °C 29,0 km/h (5 Bft)
09.12.2018 01:44 6,9 °C 77 % 1005,3 hPa 0,0 mm 21,0 km/h (4 Bft) W-SW 250 ° 0 min 0,000 mm 0,0 UV-I 0 W/m² 3,2 °C 3,4 °C 32,2 km/h (5 Bft)
09.12.2018 01:45 6,9 °C 76 % 1005,3 hPa 0,0 mm 17,4 km/h (3 Bft) W-NW 295 ° 0 min 0,000 mm 0,0 UV-I 0 W/m² 3,0 °C 3,8 °C 29,0 km/h (5 Bft)
09.12.2018 01:46 6,9 °C 76 % 1005,4 hPa 0,0 mm 12,9 km/h (3 Bft) W-NW 288 ° 0 min 0,000 mm 0,0 UV-I 0 W/m² 3,0 °C 4,4 °C 24,1 km/h (4 Bft)
09.12.2018 01:47 6,9 °C 76 % 1005,4 hPa 0,0 mm 19,8 km/h (3 Bft) W-SW 252 ° 0 min 0,000 mm 0,0 UV-I 0 W/m² 3,0 °C 3,5 °C 27,4 km/h (4 Bft)
09.12.2018 01:48 7,0 °C 76 % 1005,3 hPa 0,0 mm 23,9 km/h (4 Bft) W-SW 250 ° 0 min 0,000 mm 0,0 UV-I 0 W/m² 3,1 °C 3,2 °C 37,0 km/h (5 Bft)
09.12.2018 01:49 7,1 °C 76 % 1005,2 hPa 0,0 mm 26,4 km/h (4 Bft) W 263 ° 0 min 0,000 mm 0,0 UV-I 0 W/m² 3,2 °C 3,1 °C 38,6 km/h (5 Bft)
09.12.2018 01:50 7,1 °C 75 % 1005,2 hPa 0,0 mm 15,3 km/h (3 Bft) W 273 ° 0 min 0,000 mm 0,0 UV-I 0 W/m² 3,0 °C 4,3 °C 32,2 km/h (5 Bft)
09.12.2018 01:51 7,1 °C 75 % 1005,1 hPa 0,0 mm 15,4 km/h (3 Bft) SW 223 ° 0 min 0,000 mm 0,0 UV-I 0 W/m² 3,0 °C 4,3 °C 22,5 km/h (4 Bft)
09.12.2018 01:52 7,2 °C 75 % 1005,1 hPa 0,0 mm 13,3 km/h (3 Bft) W 269 ° 0 min 0,000 mm 0,0 UV-I 0 W/m² 3,1 °C 4,7 °C 20,9 km/h (4 Bft)
09.12.2018 01:53 7,2 °C 75 % 1005,1 hPa 0,0 mm 15,7 km/h (3 Bft) SW 216 ° 0 min 0,000 mm 0,0 UV-I 0 W/m² 3,1 °C 4,4 °C 19,3 km/h (3 Bft)
09.12.2018 01:54 7,2 °C 75 % 1005,1 hPa 0,0 mm 13,7 km/h (3 Bft) W-SW 255 ° 0 min 0,000 mm 0,0 UV-I 0 W/m² 3,1 °C 4,7 °C 16,1 km/h (3 Bft)
09.12.2018 01:55 7,2 °C 75 % 1005,0 hPa 0,0 mm 12,4 km/h (3 Bft) W-SW 257 ° 0 min 0,000 mm 0,0 UV-I 0 W/m² 3,1 °C 4,9 °C 16,1 km/h (3 Bft)
09.12.2018 01:56 7,3 °C 74 % 1004,9 hPa 0,0 mm 15,8 km/h (3 Bft) W 272 ° 0 min 0,000 mm 0,0 UV-I 0 W/m² 3,0 °C 4,5 °C 24,1 km/h (4 Bft)
09.12.2018 01:57 7,3 °C 74 % 1004,9 hPa 0,0 mm 15,8 km/h (3 Bft) SW 216 ° 0 min 0,000 mm 0,0 UV-I 0 W/m² 3,0 °C 4,5 °C 24,1 km/h (4 Bft)
09.12.2018 01:58 7,3 °C 74 % 1005,0 hPa 0,0 mm 7,5 km/h (2 Bft) W 267 ° 0 min 0,000 mm 0,0 UV-I 0 W/m² 3,0 °C 6,0 °C 12,9 km/h (3 Bft)
09.12.2018 01:59 7,3 °C 74 % 1005,0 hPa 0,0 mm 19,9 km/h (4 Bft) SW 232 ° 0 min 0,000 mm 0,0 UV-I 0 W/m² 3,0 °C 4,0 °C 33,8 km/h (5 Bft)
09.12.2018 02:00 7,4 °C 74 % 1004,8 hPa 0,0 mm 11,7 km/h (2 Bft) NW 312 ° 0 min 0,026 mm 0,0 UV-I 0 W/m² 3,1 °C 5,2 °C 20,9 km/h (4 Bft)
09.12.2018 02:01 7,4 °C 74 % 1004,9 hPa 0,0 mm 14,3 km/h (3 Bft) W-SW 254 ° 0 min 0,000 mm 0,0 UV-I 0 W/m² 3,1 °C 4,8 °C 38,6 km/h (5 Bft)
09.12.2018 02:02 7,4 °C 73 % 1004,8 hPa 0,0 mm 27,7 km/h (4 Bft) W 269 ° 0 min 0,000 mm 0,0 UV-I 0 W/m² 2,9 °C 3,4 °C 38,6 km/h (5 Bft)
09.12.2018 02:03 7,4 °C 73 % 1004,9 hPa 0,0 mm 15,5 km/h (3 Bft) SW 218 ° 0 min 0,000 mm 0,0 UV-I 0 W/m² 2,9 °C 4,6 °C 40,2 km/h (6 Bft)
09.12.2018 02:04 7,4 °C 73 % 1004,8 hPa 0,0 mm 21,0 km/h (4 Bft) W 267 ° 0 min 0,000 mm 0,0 UV-I 0 W/m² 2,9 °C 4,0 °C 30,6 km/h (5 Bft)
09.12.2018 02:05 7,5 °C 73 % 1004,8 hPa 0,0 mm 17,2 km/h (3 Bft) W-NW 285 ° 0 min 0,000 mm 0,0 UV-I 0 W/m² 3,0 °C 4,5 °C 27,4 km/h (4 Bft)
09.12.2018 02:06 7,5 °C 73 % 1004,8 hPa 0,0 mm 19,6 km/h (3 Bft) W-SW 249 ° 0 min 0,000 mm 0,0 UV-I 0 W/m² 3,0 °C 4,3 °C 29,0 km/h (5 Bft)
09.12.2018 02:07 7,6 °C 72 % 1004,7 hPa 0,0 mm 20,4 km/h (4 Bft) W 275 ° 0 min 0,000 mm 0,0 UV-I 0 W/m² 2,9 °C 4,3 °C 35,4 km/h (5 Bft)
09.12.2018 02:08 7,6 °C 72 % 1004,7 hPa 0,0 mm 20,0 km/h (4 Bft) W 267 ° 0 min 0,000 mm 0,0 UV-I 0 W/m² 2,9 °C 4,3 °C 24,1 km/h (4 Bft)
09.12.2018 02:09 7,6 °C 72 % 1004,6 hPa 0,0 mm 12,1 km/h (2 Bft) W 265 ° 0 min 0,000 mm 0,0 UV-I 0 W/m² 2,9 °C 5,4 °C 17,7 km/h (3 Bft)
09.12.2018 02:10 7,7 °C 72 % 1004,7 hPa 0,0 mm 14,5 km/h (3 Bft) W 265 ° 0 min 0,000 mm 0,0 UV-I 0 W/m² 3,0 °C 5,1 °C 22,5 km/h (4 Bft)
09.12.2018 02:11 7,7 °C 72 % 1004,8 hPa 0,0 mm 16,2 km/h (3 Bft) W 275 ° 0 min 0,000 mm 0,0 UV-I 0 W/m² 3,0 °C 4,9 °C 27,4 km/h (4 Bft)
09.12.2018 02:12 7,7 °C 71 % 1004,7 hPa 0,0 mm 18,9 km/h (3 Bft) W-NW 288 ° 0 min 0,000 mm 0,0 UV-I 0 W/m² 2,8 °C 4,6 °C 25,7 km/h (4 Bft)
09.12.2018 02:13 7,7 °C 71 % 1004,7 hPa 0,0 mm 21,5 km/h (4 Bft) W-NW 287 ° 0 min 0,000 mm 0,0 UV-I 0 W/m² 2,8 °C 4,3 °C 37,0 km/h (5 Bft)
09.12.2018 02:14 7,8 °C 70 % 1004,7 hPa 0,0 mm 20,8 km/h (4 Bft) W 273 ° 0 min 0,000 mm 0,0 UV-I 0 W/m² 2,7 °C 4,5 °C 32,2 km/h (5 Bft)
09.12.2018 02:15 7,9 °C 70 % 1004,7 hPa 0,0 mm 31,3 km/h (5 Bft) W 279 ° 0 min 0,000 mm 0,0 UV-I 0 W/m² 2,8 °C 3,7 °C 43,5 km/h (6 Bft)
09.12.2018 02:16 8,0 °C 69 % 1004,7 hPa 0,0 mm 17,9 km/h (3 Bft) SW 229 ° 0 min 0,000 mm 0,0 UV-I 0 W/m² 2,7 °C 5,1 °C 32,2 km/h (5 Bft)
09.12.2018 02:17 8,1 °C 70 % 1004,7 hPa 0,0 mm 17,9 km/h (3 Bft) S-SW 195 ° 0 min 0,000 mm 0,0 UV-I 0 W/m² 3,0 °C 5,2 °C 27,4 km/h (4 Bft)
09.12.2018 02:18 8,1 °C 70 % 1005,0 hPa 0,0 mm 13,6 km/h (3 Bft) W-NW 290 ° 0 min 0,000 mm 0,0 UV-I 0 W/m² 3,0 °C 5,8 °C 22,5 km/h (4 Bft)
09.12.2018 02:19 8,2 °C 70 % 1004,9 hPa 0,0 mm 14,7 km/h (3 Bft) W-NW 292 ° 0 min 0,000 mm 0,0 UV-I 0 W/m² 3,1 °C 5,7 °C 19,3 km/h (3 Bft)
09.12.2018 02:20 8,2 °C 70 % 1004,8 hPa 0,0 mm 20,6 km/h (4 Bft) SW 227 ° 0 min 0,000 mm 0,0 UV-I 0 W/m² 3,1 °C 5,0 °C 40,2 km/h (6 Bft)
09.12.2018 02:21 8,2 °C 71 % 1004,8 hPa 0,0 mm 11,4 km/h (2 Bft) W 265 ° 0 min 0,000 mm 0,0 UV-I 0 W/m² 3,3 °C 6,2 °C 20,9 km/h (4 Bft)
09.12.2018 02:22 8,2 °C 70 % 1004,6 hPa 0,0 mm 21,8 km/h (4 Bft) SW 227 ° 0 min 0,000 mm 0,0 UV-I 0 W/m² 3,1 °C 4,9 °C 32,2 km/h (5 Bft)
09.12.2018 02:23 8,2 °C 70 % 1004,6 hPa 0,0 mm 17,0 km/h (3 Bft) W-SW 251 ° 0 min 0,000 mm 0,0 UV-I 0 W/m² 3,1 °C 5,4 °C 24,1 km/h (4 Bft)
09.12.2018 02:24 8,2 °C 70 % 1004,6 hPa 0,0 mm 21,8 km/h (4 Bft) W-NW 282 ° 0 min 0,000 mm 0,0 UV-I 0 W/m² 3,1 °C 4,9 °C 29,0 km/h (5 Bft)
09.12.2018 02:25 8,3 °C 70 % 1004,4 hPa 0,0 mm 18,0 km/h (3 Bft) W-SW 254 ° 0 min 0,000 mm 0,0 UV-I 0 W/m² 3,2 °C 5,4 °C 25,7 km/h (4 Bft)
09.12.2018 02:26 8,2 °C 70 % 1004,3 hPa 0,0 mm 14,4 km/h (3 Bft) W 274 ° 0 min 0,000 mm 0,0 UV-I 0 W/m² 3,1 °C 5,8 °C 24,1 km/h (4 Bft)
09.12.2018 02:27 8,2 °C 71 % 1004,3 hPa 0,0 mm 16,8 km/h (3 Bft) W-SW 255 ° 0 min 0,000 mm 0,0 UV-I 0 W/m² 3,3 °C 5,5 °C 29,0 km/h (5 Bft)
09.12.2018 02:28 8,2 °C 71 % 1004,2 hPa 0,0 mm 11,9 km/h (2 Bft) W-SW 245 ° 0 min 0,000 mm 0,0 UV-I 0 W/m² 3,3 °C 6,2 °C 20,9 km/h (4 Bft)
09.12.2018 02:29 8,2 °C 71 % 1004,1 hPa 0,0 mm 14,0 km/h (3 Bft) SW 236 ° 0 min 0,000 mm 0,0 UV-I 0 W/m² 3,3 °C 5,8 °C 27,4 km/h (4 Bft)
09.12.2018 02:30 8,2 °C 71 % 1004,1 hPa 0,0 mm 22,6 km/h (4 Bft) W 263 ° 0 min 0,000 mm 0,0 UV-I 0 W/m² 3,3 °C 4,8 °C 27,4 km/h (4 Bft)
09.12.2018 02:31 8,2 °C 71 % 1004,2 hPa 0,0 mm 9,9 km/h (2 Bft) W 259 ° 0 min 0,000 mm 0,0 UV-I 0 W/m² 3,3 °C 6,5 °C 22,5 km/h (4 Bft)
09.12.2018 02:32 8,2 °C 72 % 1004,2 hPa 0,0 mm 10,9 km/h (2 Bft) S-SW 198 ° 0 min 0,000 mm 0,0 UV-I 0 W/m² 3,5 °C 6,3 °C 16,1 km/h (3 Bft)
09.12.2018 02:33 8,2 °C 71 % 1004,1 hPa 0,0 mm 9,1 km/h (2 Bft) W-SW 251 ° 0 min 0,000 mm 0,0 UV-I 0 W/m² 3,3 °C 6,7 °C 20,9 km/h (4 Bft)
09.12.2018 02:34 8,2 °C 72 % 1004,0 hPa 0,0 mm 10,5 km/h (2 Bft) W-SW 250 ° 0 min 0,000 mm 0,0 UV-I 0 W/m² 3,5 °C 6,4 °C 25,7 km/h (4 Bft)
09.12.2018 02:35 8,1 °C 72 % 1003,9 hPa 0,0 mm 16,3 km/h (3 Bft) W-SW 248 ° 0 min 0,000 mm 0,0 UV-I 0 W/m² 3,4 °C 5,4 °C 22,5 km/h (4 Bft)
09.12.2018 02:36 8,1 °C 71 % 1003,8 hPa 0,0 mm 9,1 km/h (2 Bft) SO 135 ° 0 min 0,000 mm 0,0 UV-I 0 W/m² 3,2 °C 6,5 °C 16,1 km/h (3 Bft)
09.12.2018 02:37 8,1 °C 71 % 1003,7 hPa 0,0 mm 7,9 km/h (2 Bft) W-SW 251 ° 0 min 0,000 mm 0,0 UV-I 0 W/m² 3,2 °C 6,8 °C 14,5 km/h (3 Bft)
09.12.2018 02:38 8,1 °C 71 % 1003,9 hPa 0,0 mm 13,2 km/h (3 Bft) W-SW 247 ° 0 min 0,000 mm 0,0 UV-I 0 W/m² 3,2 °C 5,8 °C 20,9 km/h (4 Bft)
09.12.2018 02:39 8,1 °C 71 % 1003,8 hPa 0,0 mm 17,6 km/h (3 Bft) W 269 ° 0 min 0,000 mm 0,0 UV-I 0 W/m² 3,2 °C 5,2 °C 22,5 km/h (4 Bft)
09.12.2018 02:40 8,1 °C 71 % 1003,8 hPa 0,0 mm 14,5 km/h (3 Bft) W 265 ° 0 min 0,000 mm 0,0 UV-I 0 W/m² 3,2 °C 5,6 °C 17,7 km/h (3 Bft)
09.12.2018 02:41 8,1 °C 71 % 1003,8 hPa 0,0 mm 14,3 km/h (3 Bft) W 267 ° 0 min 0,000 mm 0,0 UV-I 0 W/m² 3,2 °C 5,7 °C 22,5 km/h (4 Bft)
09.12.2018 02:42 8,1 °C 71 % 1003,9 hPa 0,0 mm 10,5 km/h (2 Bft) W 278 ° 0 min 0,000 mm 0,0 UV-I 0 W/m² 3,2 °C 6,3 °C 19,3 km/h (3 Bft)
09.12.2018 02:43 8,0 °C 71 % 1003,9 hPa 0,0 mm 16,2 km/h (3 Bft) W-SW 257 ° 0 min 0,000 mm 0,0 UV-I 0 W/m² 3,1 °C 5,3 °C 24,1 km/h (4 Bft)
09.12.2018 02:44 8,1 °C 71 % 1003,9 hPa 0,0 mm 11,3 km/h (2 Bft) W-SW 252 ° 0 min 0,000 mm 0,0 UV-I 0 W/m² 3,2 °C 6,1 °C 17,7 km/h (3 Bft)
09.12.2018 02:45 8,0 °C 71 % 1003,9 hPa 0,0 mm 16,8 km/h (3 Bft) W 274 ° 0 min 0,000 mm 0,0 UV-I 0 W/m² 3,1 °C 5,2 °C 22,5 km/h (4 Bft)
09.12.2018 02:46 8,0 °C 71 % 1003,8 hPa 0,0 mm 11,4 km/h (2 Bft) W-SW 255 ° 0 min 0,000 mm 0,0 UV-I 0 W/m² 3,1 °C 6,0 °C 20,9 km/h (4 Bft)
09.12.2018 02:47 8,0 °C 71 % 1004,0 hPa 0,0 mm 13,7 km/h (3 Bft) W 260 ° 0 min 0,000 mm 0,0 UV-I 0 W/m² 3,1 °C 5,6 °C 20,9 km/h (4 Bft)
09.12.2018 02:48 8,0 °C 70 % 1003,8 hPa 0,0 mm 16,9 km/h (3 Bft) W 261 ° 0 min 0,000 mm 0,0 UV-I 0 W/m² 2,9 °C 5,2 °C 22,5 km/h (4 Bft)
09.12.2018 02:49 8,0 °C 70 % 1003,8 hPa 0,0 mm 16,4 km/h (3 Bft) W 263 ° 0 min 0,000 mm 0,0 UV-I 0 W/m² 2,9 °C 5,3 °C 20,9 km/h (4 Bft)
09.12.2018 02:50 8,1 °C 71 % 1003,8 hPa 0,0 mm 15,3 km/h (3 Bft) NW 311 ° 0 min 0,000 mm 0,0 UV-I 0 W/m² 3,2 °C 5,5 °C 22,5 km/h (4 Bft)
09.12.2018 02:51 8,1 °C 70 % 1003,9 hPa 0,0 mm 10,0 km/h (2 Bft) W-SW 250 ° 0 min 0,000 mm 0,0 UV-I 0 W/m² 3,0 °C 6,4 °C 17,7 km/h (3 Bft)
09.12.2018 02:52 8,1 °C 70 % 1003,7 hPa 0,0 mm 15,0 km/h (3 Bft) W-SW 255 ° 0 min 0,000 mm 0,0 UV-I 0 W/m² 3,0 °C 5,6 °C 24,1 km/h (4 Bft)
09.12.2018 02:53 8,1 °C 71 % 1003,7 hPa 0,0 mm 16,1 km/h (3 Bft) SW 236 ° 0 min 0,000 mm 0,0 UV-I 0 W/m² 3,2 °C 5,4 °C 27,4 km/h (4 Bft)
09.12.2018 02:54 8,1 °C 71 % 1003,8 hPa 0,0 mm 14,1 km/h (3 Bft) W-NW 291 ° 0 min 0,000 mm 0,0 UV-I 0 W/m² 3,2 °C 5,7 °C 19,3 km/h (3 Bft)
09.12.2018 02:55 8,1 °C 70 % 1003,8 hPa 0,0 mm 14,6 km/h (3 Bft) W-SW 258 ° 0 min 0,000 mm 0,0 UV-I 0 W/m² 3,0 °C 5,6 °C 25,7 km/h (4 Bft)
09.12.2018 02:56 8,1 °C 70 % 1003,8 hPa 0,0 mm 11,4 km/h (2 Bft) W 259 ° 0 min 0,000 mm 0,0 UV-I 0 W/m² 3,0 °C 6,1 °C 17,7 km/h (3 Bft)
09.12.2018 02:57 8,1 °C 70 % 1003,8 hPa 0,0 mm 23,6 km/h (4 Bft) W 279 ° 0 min 0,000 mm 0,0 UV-I 0 W/m² 3,0 °C 4,6 °C 35,4 km/h (5 Bft)
09.12.2018 02:58 8,2 °C 70 % 1003,8 hPa 0,0 mm 13,5 km/h (3 Bft) W-NW 299 ° 0 min 0,000 mm 0,0 UV-I 0 W/m² 3,1 °C 5,9 °C 17,7 km/h (3 Bft)
09.12.2018 02:59 8,2 °C 70 % 1003,8 hPa 0,0 mm 16,3 km/h (3 Bft) W 261 ° 0 min 0,000 mm 0,0 UV-I 0 W/m² 3,1 °C 5,5 °C 20,9 km/h (4 Bft)
09.12.2018 03:00 8,2 °C 70 % 1003,8 hPa 0,0 mm 19,6 km/h (3 Bft) NW 309 ° 0 min 0,000 mm 0,0 UV-I 0 W/m² 3,1 °C 5,1 °C 25,7 km/h (4 Bft)
09.12.2018 03:01 8,2 °C 71 % 1003,8 hPa 0,0 mm 20,7 km/h (4 Bft) W 281 ° 0 min 0,051 mm 0,0 UV-I 0 W/m² 3,3 °C 5,0 °C 30,6 km/h (5 Bft)
09.12.2018 03:02 8,2 °C 71 % 1003,8 hPa 0,0 mm 22,7 km/h (4 Bft) W 277 ° 0 min 0,000 mm 0,0 UV-I 0 W/m² 3,3 °C 4,8 °C 35,4 km/h (5 Bft)
09.12.2018 03:03 8,3 °C 71 % 1003,8 hPa 0,0 mm 28,6 km/h (4 Bft) W-NW 291 ° 0 min 0,000 mm 0,0 UV-I 0 W/m² 3,4 °C 4,5 °C 37,0 km/h (5 Bft)
09.12.2018 03:04 8,3 °C 71 % 1003,9 hPa 0,0 mm 25,5 km/h (4 Bft) NW 306 ° 0 min 0,000 mm 0,0 UV-I 0 W/m² 3,4 °C 4,7 °C 33,8 km/h (5 Bft)
09.12.2018 03:05 8,3 °C 72 % 1003,9 hPa 0,0 mm 22,1 km/h (4 Bft) W-NW 293 ° 0 min 0,000 mm 0,0 UV-I 0 W/m² 3,6 °C 5,0 °C 27,4 km/h (4 Bft)
09.12.2018 03:06 8,3 °C 73 % 1003,8 hPa 0,0 mm 20,9 km/h (4 Bft) W 261 ° 0 min 0,000 mm 0,0 UV-I 0 W/m² 3,8 °C 5,1 °C 35,4 km/h (5 Bft)
09.12.2018 03:07 8,2 °C 73 % 1003,8 hPa 0,0 mm 18,3 km/h (3 Bft) SW 226 ° 0 min 0,000 mm 0,0 UV-I 0 W/m² 3,7 °C 5,3 °C 24,1 km/h (4 Bft)
09.12.2018 03:08 8,2 °C 73 % 1003,9 hPa 0,0 mm 15,5 km/h (3 Bft) W 275 ° 0 min 0,000 mm 0,0 UV-I 0 W/m² 3,7 °C 5,6 °C 27,4 km/h (4 Bft)
09.12.2018 03:09 8,2 °C 74 % 1003,9 hPa 0,0 mm 19,3 km/h (3 Bft) W 272 ° 0 min 0,000 mm 0,0 UV-I 0 W/m² 3,8 °C 5,2 °C 33,8 km/h (5 Bft)
09.12.2018 03:10 8,2 °C 74 % 1003,8 hPa 0,0 mm 16,5 km/h (3 Bft) W 281 ° 0 min 0,000 mm 0,0 UV-I 0 W/m² 3,8 °C 5,5 °C 27,4 km/h (4 Bft)
09.12.2018 03:11 8,1 °C 75 % 1003,9 hPa 0,0 mm 25,4 km/h (4 Bft) W-NW 292 ° 0 min 0,000 mm 0,0 UV-I 0 W/m² 3,9 °C 4,5 °C 38,6 km/h (5 Bft)
09.12.2018 03:12 8,1 °C 75 % 1003,8 hPa 0,0 mm 17,6 km/h (3 Bft) W 261 ° 0 min 0,000 mm 0,0 UV-I 0 W/m² 3,9 °C 5,2 °C 27,4 km/h (4 Bft)
09.12.2018 03:13 8,0 °C 75 % 1003,9 hPa 0,0 mm 19,6 km/h (3 Bft) W-NW 290 ° 0 min 0,000 mm 0,0 UV-I 0 W/m² 3,8 °C 4,9 °C 25,7 km/h (4 Bft)
09.12.2018 03:14 7,9 °C 75 % 1003,7 hPa 0,0 mm 9,7 km/h (2 Bft) W 271 ° 0 min 0,000 mm 0,0 UV-I 0 W/m² 3,7 °C 6,2 °C 17,7 km/h (3 Bft)
09.12.2018 03:15 7,9 °C 76 % 1003,8 hPa 0,0 mm 12,0 km/h (2 Bft) W 261 ° 0 min 0,000 mm 0,0 UV-I 0 W/m² 3,9 °C 5,8 °C 17,7 km/h (3 Bft)
09.12.2018 03:16 7,9 °C 76 % 1003,8 hPa 0,0 mm 18,0 km/h (3 Bft) W-NW 283 ° 0 min 0,000 mm 0,0 UV-I 0 W/m² 3,9 °C 4,9 °C 37,0 km/h (5 Bft)
09.12.2018 03:17 7,8 °C 76 % 1003,7 hPa 0,2 mm 20,1 km/h (4 Bft) W 276 ° 0 min 0,000 mm 0,0 UV-I 0 W/m² 3,8 °C 4,6 °C 25,7 km/h (4 Bft)
09.12.2018 03:18 7,8 °C 76 % 1003,7 hPa 0,0 mm 14,0 km/h (3 Bft) W 279 ° 0 min 0,000 mm 0,0 UV-I 0 W/m² 3,8 °C 5,3 °C 19,3 km/h (3 Bft)
09.12.2018 03:19 7,8 °C 76 % 1003,8 hPa 0,0 mm 14,6 km/h (3 Bft) W 267 ° 0 min 0,000 mm 0,0 UV-I 0 W/m² 3,8 °C 5,3 °C 22,5 km/h (4 Bft)
09.12.2018 03:20 7,8 °C 77 % 1003,9 hPa 0,0 mm 19,8 km/h (3 Bft) W-SW 248 ° 0 min 0,000 mm 0,0 UV-I 0 W/m² 4,0 °C 4,6 °C 30,6 km/h (5 Bft)
09.12.2018 03:21 7,7 °C 77 % 1003,8 hPa 0,0 mm 10,1 km/h (2 Bft) S-SW 204 ° 0 min 0,000 mm 0,0 UV-I 0 W/m² 3,9 °C 5,9 °C 19,3 km/h (3 Bft)
09.12.2018 03:22 7,7 °C 77 % 1003,5 hPa 0,0 mm 16,0 km/h (3 Bft) W 259 ° 0 min 0,000 mm 0,0 UV-I 0 W/m² 3,9 °C 4,9 °C 25,7 km/h (4 Bft)
09.12.2018 03:23 7,7 °C 77 % 1003,6 hPa 0,0 mm 17,9 km/h (3 Bft) W 265 ° 0 min 0,000 mm 0,0 UV-I 0 W/m² 3,9 °C 4,7 °C 24,1 km/h (4 Bft)
09.12.2018 03:24 7,6 °C 77 % 1003,6 hPa 0,0 mm 19,0 km/h (3 Bft) W 265 ° 0 min 0,000 mm 0,0 UV-I 0 W/m² 3,8 °C 4,5 °C 27,4 km/h (4 Bft)
09.12.2018 03:25 7,6 °C 77 % 1003,5 hPa 0,0 mm 13,7 km/h (3 Bft) S 180 ° 0 min 0,000 mm 0,0 UV-I 0 W/m² 3,8 °C 5,1 °C 22,5 km/h (4 Bft)
09.12.2018 03:26 7,6 °C 77 % 1003,5 hPa 0,0 mm 7,4 km/h (2 Bft) SW 236 ° 0 min 0,000 mm 0,0 UV-I 0 W/m² 3,8 °C 6,3 °C 14,5 km/h (3 Bft)
09.12.2018 03:27 7,6 °C 77 % 1003,5 hPa 0,0 mm 9,3 km/h (2 Bft) W-NW 298 ° 0 min 0,000 mm 0,0 UV-I 0 W/m² 3,8 °C 5,9 °C 14,5 km/h (3 Bft)
09.12.2018 03:28 7,6 °C 77 % 1003,6 hPa 0,0 mm 20,7 km/h (4 Bft) S 190 ° 0 min 0,000 mm 0,0 UV-I 0 W/m² 3,8 °C 4,3 °C 29,0 km/h (5 Bft)
09.12.2018 03:29 7,5 °C 77 % 1003,5 hPa 0,0 mm 17,1 km/h (3 Bft) W-SW 246 ° 0 min 0,000 mm 0,0 UV-I 0 W/m² 3,7 °C 4,6 °C 25,7 km/h (4 Bft)
09.12.2018 03:30 7,4 °C 77 % 1003,6 hPa 0,0 mm 17,4 km/h (3 Bft) W 265 ° 0 min 0,000 mm 0,0 UV-I 0 W/m² 3,6 °C 4,4 °C 24,1 km/h (4 Bft)
09.12.2018 03:31 7,4 °C 76 % 1003,7 hPa 0,0 mm 12,8 km/h (3 Bft) SW 234 ° 0 min 0,000 mm 0,0 UV-I 0 W/m² 3,5 °C 5,0 °C 17,7 km/h (3 Bft)
09.12.2018 03:32 7,4 °C 77 % 1003,7 hPa 0,0 mm 8,0 km/h (2 Bft) W 274 ° 0 min 0,000 mm 0,0 UV-I 0 W/m² 3,6 °C 6,0 °C 12,9 km/h (3 Bft)
09.12.2018 03:33 7,4 °C 77 % 1003,6 hPa 0,0 mm 8,6 km/h (2 Bft) W 264 ° 0 min 0,000 mm 0,0 UV-I 0 W/m² 3,6 °C 5,8 °C 11,3 km/h (2 Bft)
09.12.2018 03:34 7,5 °C 76 % 1003,6 hPa 0,0 mm 10,9 km/h (2 Bft) NW 310 ° 0 min 0,000 mm 0,0 UV-I 0 W/m² 3,5 °C 5,5 °C 12,9 km/h (3 Bft)
09.12.2018 03:35 7,5 °C 77 % 1003,6 hPa 0,0 mm 12,7 km/h (3 Bft) SW 235 ° 0 min 0,000 mm 0,0 UV-I 0 W/m² 3,7 °C 5,2 °C 20,9 km/h (4 Bft)
09.12.2018 03:36 7,5 °C 77 % 1003,7 hPa 0,0 mm 12,8 km/h (3 Bft) W-SW 253 ° 0 min 0,000 mm 0,0 UV-I 0 W/m² 3,7 °C 5,2 °C 25,7 km/h (4 Bft)
09.12.2018 03:37 7,5 °C 77 % 1003,7 hPa 0,0 mm 23,1 km/h (4 Bft) W 269 ° 0 min 0,000 mm 0,0 UV-I 0 W/m² 3,7 °C 3,9 °C 35,4 km/h (5 Bft)
09.12.2018 03:38 7,5 °C 76 % 1003,6 hPa 0,0 mm 16,7 km/h (3 Bft) W-NW 292 ° 0 min 0,000 mm 0,0 UV-I 0 W/m² 3,5 °C 4,6 °C 20,9 km/h (4 Bft)
09.12.2018 03:39 7,5 °C 76 % 1003,7 hPa 0,0 mm 13,5 km/h (3 Bft) W 273 ° 0 min 0,000 mm 0,0 UV-I 0 W/m² 3,5 °C 5,0 °C 17,7 km/h (3 Bft)
09.12.2018 03:40 7,5 °C 76 % 1003,7 hPa 0,0 mm 22,5 km/h (4 Bft) W-SW 240 ° 0 min 0,000 mm 0,0 UV-I 0 W/m² 3,5 °C 4,0 °C 35,4 km/h (5 Bft)
09.12.2018 03:41 7,5 °C 76 % 1003,7 hPa 0,0 mm 17,8 km/h (3 Bft) W-SW 248 ° 0 min 0,000 mm 0,0 UV-I 0 W/m² 3,5 °C 4,5 °C 27,4 km/h (4 Bft)
09.12.2018 03:42 7,6 °C 76 % 1003,7 hPa 0,0 mm 17,6 km/h (3 Bft) W 261 ° 0 min 0,000 mm 0,0 UV-I 0 W/m² 3,6 °C 4,6 °C 33,8 km/h (5 Bft)
09.12.2018 03:43 7,6 °C 75 % 1003,6 hPa 0,0 mm 23,9 km/h (4 Bft) W-SW 238 ° 0 min 0,000 mm 0,0 UV-I 0 W/m² 3,5 °C 4,0 °C 40,2 km/h (6 Bft)
09.12.2018 03:44 7,6 °C 75 % 1003,6 hPa 0,0 mm 17,4 km/h (3 Bft) W-NW 290 ° 0 min 0,000 mm 0,0 UV-I 0 W/m² 3,5 °C 4,6 °C 27,4 km/h (4 Bft)
09.12.2018 03:45 7,7 °C 75 % 1003,4 hPa 0,0 mm 14,1 km/h (3 Bft) W 279 ° 0 min 0,000 mm 0,0 UV-I 0 W/m² 3,6 °C 5,2 °C 17,7 km/h (3 Bft)
09.12.2018 03:46 7,7 °C 74 % 1003,3 hPa 0,0 mm 8,8 km/h (2 Bft) W 273 ° 0 min 0,000 mm 0,0 UV-I 0 W/m² 3,4 °C 6,1 °C 17,7 km/h (3 Bft)
09.12.2018 03:47 7,7 °C 74 % 1003,3 hPa 0,0 mm 16,0 km/h (3 Bft) W-SW 256 ° 0 min 0,000 mm 0,0 UV-I 0 W/m² 3,4 °C 4,9 °C 22,5 km/h (4 Bft)
09.12.2018 03:48 7,8 °C 74 % 1003,3 hPa 0,0 mm 12,7 km/h (3 Bft) S-SW 192 ° 0 min 0,000 mm 0,0 UV-I 0 W/m² 3,5 °C 5,5 °C 22,5 km/h (4 Bft)
09.12.2018 03:49 7,8 °C 74 % 1003,2 hPa 0,0 mm 13,6 km/h (3 Bft) W-NW 291 ° 0 min 0,000 mm 0,0 UV-I 0 W/m² 3,5 °C 5,4 °C 25,7 km/h (4 Bft)
09.12.2018 03:50 7,8 °C 74 % 1003,3 hPa 0,0 mm 18,7 km/h (3 Bft) W 278 ° 0 min 0,000 mm 0,0 UV-I 0 W/m² 3,5 °C 4,7 °C 41,8 km/h (6 Bft)
09.12.2018 03:51 7,8 °C 74 % 1003,2 hPa 0,0 mm 26,0 km/h (4 Bft) W-SW 251 ° 0 min 0,000 mm 0,0 UV-I 0 W/m² 3,5 °C 4,0 °C 37,0 km/h (5 Bft)
09.12.2018 03:52 7,8 °C 73 % 1003,2 hPa 0,0 mm 12,7 km/h (3 Bft) W 267 ° 0 min 0,000 mm 0,0 UV-I 0 W/m² 3,3 °C 5,5 °C 22,5 km/h (4 Bft)
09.12.2018 03:53 7,9 °C 73 % 1003,2 hPa 0,0 mm 16,0 km/h (3 Bft) W-SW 252 ° 0 min 0,000 mm 0,0 UV-I 0 W/m² 3,4 °C 5,2 °C 20,9 km/h (4 Bft)
09.12.2018 03:54 7,9 °C 73 % 1003,2 hPa 0,0 mm 21,3 km/h (4 Bft) W-SW 255 ° 0 min 0,000 mm 0,0 UV-I 0 W/m² 3,4 °C 4,6 °C 32,2 km/h (5 Bft)
09.12.2018 03:55 7,9 °C 73 % 1003,5 hPa 0,0 mm 24,7 km/h (4 Bft) W-NW 302 ° 0 min 0,000 mm 0,0 UV-I 0 W/m² 3,4 °C 4,3 °C 38,6 km/h (5 Bft)
09.12.2018 03:56 7,9 °C 73 % 1003,5 hPa 0,0 mm 24,1 km/h (4 Bft) W-SW 257 ° 0 min 0,000 mm 0,0 UV-I 0 W/m² 3,4 °C 4,3 °C 41,8 km/h (6 Bft)
09.12.2018 03:57 8,0 °C 73 % 1003,0 hPa 0,0 mm 27,2 km/h (4 Bft) W 261 ° 0 min 0,000 mm 0,0 UV-I 0 W/m² 3,5 °C 4,2 °C 32,2 km/h (5 Bft)
09.12.2018 03:58 8,0 °C 73 % 1003,1 hPa 0,0 mm 23,7 km/h (4 Bft) W-NW 290 ° 0 min 0,000 mm 0,0 UV-I 0 W/m² 3,5 °C 4,5 °C 32,2 km/h (5 Bft)
09.12.2018 03:59 8,1 °C 73 % 1003,1 hPa 0,0 mm 21,9 km/h (4 Bft) W 277 ° 0 min 0,000 mm 0,0 UV-I 0 W/m² 3,6 °C 4,8 °C 32,2 km/h (5 Bft)
09.12.2018 04:00 8,1 °C 73 % 1003,3 hPa 0,0 mm 27,0 km/h (4 Bft) W-SW 254 ° 0 min 0,050 mm 0,0 UV-I 0 W/m² 3,6 °C 4,3 °C 37,0 km/h (5 Bft)
09.12.2018 04:01 8,1 °C 74 % 1003,1 hPa 0,0 mm 18,8 km/h (3 Bft) NW 310 ° 0 min 0,000 mm 0,0 UV-I 0 W/m² 3,8 °C 5,1 °C 25,7 km/h (4 Bft)
09.12.2018 04:02 8,1 °C 74 % 1003,2 hPa 0,0 mm 25,8 km/h (4 Bft) W-SW 239 ° 0 min 0,000 mm 0,0 UV-I 0 W/m² 3,8 °C 4,4 °C 48,3 km/h (6 Bft)
09.12.2018 04:03 8,1 °C 74 % 1003,2 hPa 0,0 mm 24,7 km/h (4 Bft) W-NW 286 ° 0 min 0,000 mm 0,0 UV-I 0 W/m² 3,8 °C 4,5 °C 37,0 km/h (5 Bft)
09.12.2018 04:04 8,0 °C 75 % 1003,1 hPa 0,0 mm 31,3 km/h (5 Bft) W-SW 253 ° 0 min 0,000 mm 0,0 UV-I 0 W/m² 3,8 °C 3,9 °C 41,8 km/h (6 Bft)
09.12.2018 04:05 8,0 °C 75 % 1003,1 hPa 0,0 mm 28,2 km/h (4 Bft) W-SW 240 ° 0 min 0,000 mm 0,0 UV-I 0 W/m² 3,8 °C 4,1 °C 32,2 km/h (5 Bft)
09.12.2018 04:06 8,0 °C 75 % 1003,1 hPa 0,0 mm 23,8 km/h (4 Bft) W-SW 243 ° 0 min 0,000 mm 0,0 UV-I 0 W/m² 3,8 °C 4,5 °C 33,8 km/h (5 Bft)
09.12.2018 04:07 7,9 °C 75 % 1003,0 hPa 0,0 mm 16,3 km/h (3 Bft) W 273 ° 0 min 0,000 mm 0,0 UV-I 0 W/m² 3,7 °C 5,2 °C 20,9 km/h (4 Bft)
09.12.2018 04:08 7,9 °C 75 % 1003,0 hPa 0,0 mm 17,6 km/h (3 Bft) W 277 ° 0 min 0,000 mm 0,0 UV-I 0 W/m² 3,7 °C 5,0 °C 24,1 km/h (4 Bft)
09.12.2018 04:09 7,9 °C 75 % 1002,9 hPa 0,0 mm 21,7 km/h (4 Bft) W-NW 292 ° 0 min 0,000 mm 0,0 UV-I 0 W/m² 3,7 °C 4,6 °C 33,8 km/h (5 Bft)
09.12.2018 04:10 7,8 °C 76 % 1003,0 hPa 0,0 mm 26,5 km/h (4 Bft) W-SW 238 ° 0 min 0,000 mm 0,0 UV-I 0 W/m² 3,8 °C 4,0 °C 40,2 km/h (6 Bft)
09.12.2018 04:11 7,8 °C 76 % 1002,9 hPa 0,0 mm 24,6 km/h (4 Bft) W 264 ° 0 min 0,000 mm 0,0 UV-I 0 W/m² 3,8 °C 4,1 °C 37,0 km/h (5 Bft)
09.12.2018 04:12 7,8 °C 76 % 1002,8 hPa 0,0 mm 20,3 km/h (4 Bft) W-SW 258 ° 0 min 0,000 mm 0,0 UV-I 0 W/m² 3,8 °C 4,6 °C 27,4 km/h (4 Bft)
09.12.2018 04:13 7,8 °C 76 % 1002,9 hPa 0,0 mm 16,9 km/h (3 Bft) W-NW 299 ° 0 min 0,000 mm 0,0 UV-I 0 W/m² 3,8 °C 5,0 °C 27,4 km/h (4 Bft)
09.12.2018 04:14 7,7 °C 76 % 1003,0 hPa 0,0 mm 17,7 km/h (3 Bft) W-NW 288 ° 0 min 0,000 mm 0,0 UV-I 0 W/m² 3,7 °C 4,7 °C 30,6 km/h (5 Bft)
09.12.2018 04:15 7,7 °C 77 % 1003,0 hPa 0,0 mm 16,4 km/h (3 Bft) NW 317 ° 0 min 0,000 mm 0,0 UV-I 0 W/m² 3,9 °C 4,9 °C 22,5 km/h (4 Bft)
09.12.2018 04:16 7,7 °C 77 % 1003,0 hPa 0,0 mm 14,7 km/h (3 Bft) W 280 ° 0 min 0,000 mm 0,0 UV-I 0 W/m² 3,9 °C 5,1 °C 20,9 km/h (4 Bft)
09.12.2018 04:17 7,6 °C 78 % 1003,0 hPa 0,0 mm 15,2 km/h (3 Bft) W-SW 257 ° 0 min 0,000 mm 0,0 UV-I 0 W/m² 4,0 °C 4,9 °C 24,1 km/h (4 Bft)
09.12.2018 04:18 7,6 °C 78 % 1003,1 hPa 0,0 mm 22,5 km/h (4 Bft) W-NW 288 ° 0 min 0,000 mm 0,0 UV-I 0 W/m² 4,0 °C 4,1 °C 33,8 km/h (5 Bft)
09.12.2018 04:19 7,6 °C 78 % 1003,1 hPa 0,0 mm 18,8 km/h (3 Bft) W-NW 290 ° 0 min 0,000 mm 0,0 UV-I 0 W/m² 4,0 °C 4,5 °C 25,7 km/h (4 Bft)
09.12.2018 04:20 7,5 °C 78 % 1003,1 hPa 0,0 mm 11,9 km/h (2 Bft) W 275 ° 0 min 0,000 mm 0,0 UV-I 0 W/m² 3,9 °C 5,3 °C 16,1 km/h (3 Bft)
09.12.2018 04:21 7,4 °C 79 % 1003,1 hPa 0,0 mm 15,8 km/h (3 Bft) W 278 ° 0 min 0,000 mm 0,0 UV-I 0 W/m² 4,0 °C 4,6 °C 20,9 km/h (4 Bft)
09.12.2018 04:22 7,4 °C 80 % 1003,0 hPa 0,0 mm 15,3 km/h (3 Bft) W-NW 284 ° 0 min 0,000 mm 0,0 UV-I 0 W/m² 4,2 °C 4,7 °C 24,1 km/h (4 Bft)
09.12.2018 04:23 7,4 °C 80 % 1002,9 hPa 0,0 mm 18,5 km/h (3 Bft) W-SW 246 ° 0 min 0,000 mm 0,0 UV-I 0 W/m² 4,2 °C 4,3 °C 27,4 km/h (4 Bft)
09.12.2018 04:24 7,3 °C 80 % 1002,8 hPa 0,0 mm 18,2 km/h (3 Bft) W 263 ° 0 min 0,000 mm 0,0 UV-I 0 W/m² 4,1 °C 4,2 °C 22,5 km/h (4 Bft)
09.12.2018 04:25 7,3 °C 81 % 1002,8 hPa 0,0 mm 12,6 km/h (3 Bft) SW 229 ° 0 min 0,000 mm 0,0 UV-I 0 W/m² 4,3 °C 4,9 °C 20,9 km/h (4 Bft)
09.12.2018 04:26 7,2 °C 81 % 1002,7 hPa 0,0 mm 18,2 km/h (3 Bft) W-NW 294 ° 0 min 0,000 mm 0,0 UV-I 0 W/m² 4,2 °C 4,0 °C 30,6 km/h (5 Bft)
09.12.2018 04:27 7,2 °C 81 % 1002,6 hPa 0,0 mm 14,2 km/h (3 Bft) W 280 ° 0 min 0,000 mm 0,0 UV-I 0 W/m² 4,2 °C 4,6 °C 20,9 km/h (4 Bft)
09.12.2018 04:28 7,2 °C 82 % 1002,5 hPa 0,0 mm 8,6 km/h (2 Bft) W-NW 294 ° 0 min 0,000 mm 0,0 UV-I 0 W/m² 4,3 °C 5,6 °C 16,1 km/h (3 Bft)
09.12.2018 04:29 7,1 °C 82 % 1002,5 hPa 0,2 mm 18,5 km/h (3 Bft) W-SW 243 ° 0 min 0,000 mm 0,0 UV-I 0 W/m² 4,2 °C 3,9 °C 29,0 km/h (5 Bft)
09.12.2018 04:30 7,0 °C 83 % 1002,5 hPa 0,0 mm 11,7 km/h (2 Bft) NW 308 ° 0 min 0,000 mm 0,0 UV-I 0 W/m² 4,3 °C 4,7 °C 16,1 km/h (3 Bft)
09.12.2018 04:31 6,9 °C 83 % 1002,5 hPa 0,0 mm 8,7 km/h (2 Bft) W-SW 257 ° 0 min 0,000 mm 0,0 UV-I 0 W/m² 4,2 °C 5,2 °C 14,5 km/h (3 Bft)
09.12.2018 04:32 6,9 °C 83 % 1002,5 hPa 0,0 mm 13,9 km/h (3 Bft) W-SW 252 ° 0 min 0,000 mm 0,0 UV-I 0 W/m² 4,2 °C 4,3 °C 17,7 km/h (3 Bft)
09.12.2018 04:33 6,9 °C 84 % 1002,5 hPa 0,0 mm 9,8 km/h (2 Bft) W-SW 257 ° 0 min 0,000 mm 0,0 UV-I 0 W/m² 4,4 °C 5,0 °C 12,9 km/h (3 Bft)
09.12.2018 04:34 6,8 °C 84 % 1002,6 hPa 0,0 mm 16,6 km/h (3 Bft) W-SW 257 ° 0 min 0,000 mm 0,0 UV-I 0 W/m² 4,3 °C 3,7 °C 22,5 km/h (4 Bft)
09.12.2018 04:35 6,8 °C 84 % 1002,6 hPa 0,0 mm 11,9 km/h (2 Bft) W-NW 293 ° 0 min 0,000 mm 0,0 UV-I 0 W/m² 4,3 °C 4,5 °C 20,9 km/h (4 Bft)
09.12.2018 04:36 6,8 °C 84 % 1002,6 hPa 0,0 mm 15,1 km/h (3 Bft) W-SW 254 ° 0 min 0,000 mm 0,0 UV-I 0 W/m² 4,3 °C 4,0 °C 22,5 km/h (4 Bft)
09.12.2018 04:37 6,7 °C 85 % 1002,6 hPa 0,0 mm 11,5 km/h (2 Bft) W 267 ° 0 min 0,000 mm 0,0 UV-I 0 W/m² 4,4 °C 4,4 °C 16,1 km/h (3 Bft)
09.12.2018 04:38 6,6 °C 85 % 1002,6 hPa 0,0 mm 11,3 km/h (2 Bft) W 269 ° 0 min 0,000 mm 0,0 UV-I 0 W/m² 4,3 °C 4,3 °C 14,5 km/h (3 Bft)
09.12.2018 04:39 6,6 °C 85 % 1002,5 hPa 0,0 mm 7,1 km/h (2 Bft) SW 225 ° 0 min 0,000 mm 0,0 UV-I 0 W/m² 4,3 °C 5,2 °C 11,3 km/h (2 Bft)
09.12.2018 04:40 6,6 °C 85 % 1002,5 hPa 0,0 mm 12,9 km/h (3 Bft) W 263 ° 0 min 0,000 mm 0,0 UV-I 0 W/m² 4,3 °C 4,0 °C 17,7 km/h (3 Bft)
09.12.2018 04:41 6,6 °C 85 % 1002,5 hPa 0,0 mm 11,4 km/h (2 Bft) W 279 ° 0 min 0,000 mm 0,0 UV-I 0 W/m² 4,3 °C 4,3 °C 14,5 km/h (3 Bft)
09.12.2018 04:42 6,5 °C 86 % 1002,5 hPa 0,0 mm 10,7 km/h (2 Bft) W 264 ° 0 min 0,000 mm 0,0 UV-I 0 W/m² 4,3 °C 4,3 °C 19,3 km/h (3 Bft)
09.12.2018 04:43 6,5 °C 86 % 1002,4 hPa 0,0 mm 12,0 km/h (2 Bft) W 275 ° 0 min 0,000 mm 0,0 UV-I 0 W/m² 4,3 °C 4,1 °C 17,7 km/h (3 Bft)
09.12.2018 04:44 6,4 °C 86 % 1002,5 hPa 0,0 mm 9,3 km/h (2 Bft) W 272 ° 0 min 0,000 mm 0,0 UV-I 0 W/m² 4,2 °C 4,5 °C 11,3 km/h (2 Bft)
09.12.2018 04:45 6,4 °C 86 % 1002,5 hPa 0,0 mm 8,9 km/h (2 Bft) W-NW 290 ° 0 min 0,000 mm 0,0 UV-I 0 W/m² 4,2 °C 4,6 °C 19,3 km/h (3 Bft)
09.12.2018 04:46 6,4 °C 86 % 1002,5 hPa 0,0 mm 9,0 km/h (2 Bft) SW 234 ° 0 min 0,000 mm 0,0 UV-I 0 W/m² 4,2 °C 4,5 °C 12,9 km/h (3 Bft)
09.12.2018 04:47 6,3 °C 86 % 1002,4 hPa 0,0 mm 5,2 km/h (1 Bft) W 259 ° 0 min 0,000 mm 0,0 UV-I 0 W/m² 4,1 °C 5,5 °C 9,7 km/h (2 Bft)
09.12.2018 04:48 6,3 °C 86 % 1002,4 hPa 0,0 mm 9,0 km/h (2 Bft) W-SW 252 ° 0 min 0,000 mm 0,0 UV-I 0 W/m² 4,1 °C 4,4 °C 12,9 km/h (3 Bft)
09.12.2018 04:49 6,3 °C 86 % 1002,4 hPa 0,0 mm 6,8 km/h (2 Bft) SW 233 ° 0 min 0,000 mm 0,0 UV-I 0 W/m² 4,1 °C 5,0 °C 11,3 km/h (2 Bft)
09.12.2018 04:50 6,3 °C 87 % 1002,4 hPa 0,0 mm 6,5 km/h (2 Bft) W 263 ° 0 min 0,000 mm 0,0 UV-I 0 W/m² 4,3 °C 5,1 °C 16,1 km/h (3 Bft)
09.12.2018 04:51 6,3 °C 87 % 1002,3 hPa 0,0 mm 6,0 km/h (2 Bft) W-SW 249 ° 0 min 0,000 mm 0,0 UV-I 0 W/m² 4,3 °C 5,2 °C 14,5 km/h (3 Bft)
09.12.2018 04:52 6,2 °C 87 % 1002,4 hPa 0,0 mm 10,0 km/h (2 Bft) W-SW 250 ° 0 min 0,000 mm 0,0 UV-I 0 W/m² 4,2 °C 4,1 °C 17,7 km/h (3 Bft)
09.12.2018 04:53 6,2 °C 87 % 1002,4 hPa 0,0 mm 14,4 km/h (3 Bft) W 273 ° 0 min 0,000 mm 0,0 UV-I 0 W/m² 4,2 °C 3,3 °C 16,1 km/h (3 Bft)
09.12.2018 04:54 6,2 °C 87 % 1002,3 hPa 0,0 mm 9,6 km/h (2 Bft) W-SW 258 ° 0 min 0,000 mm 0,0 UV-I 0 W/m² 4,2 °C 4,2 °C 12,9 km/h (3 Bft)
09.12.2018 04:55 6,2 °C 87 % 1002,3 hPa 0,2 mm 7,2 km/h (2 Bft) W 271 ° 0 min 0,000 mm 0,0 UV-I 0 W/m² 4,2 °C 4,8 °C 11,3 km/h (2 Bft)
09.12.2018 04:56 6,2 °C 87 % 1002,3 hPa 0,0 mm 6,8 km/h (2 Bft) W-SW 248 ° 0 min 0,000 mm 0,0 UV-I 0 W/m² 4,2 °C 4,9 °C 12,9 km/h (3 Bft)
09.12.2018 04:57 6,2 °C 87 % 1002,3 hPa 0,0 mm 7,1 km/h (2 Bft) W 269 ° 0 min 0,000 mm 0,0 UV-I 0 W/m² 4,2 °C 4,8 °C 9,7 km/h (2 Bft)
09.12.2018 04:58 6,2 °C 87 % 1002,3 hPa 0,0 mm 5,6 km/h (1 Bft) W-SW 246 ° 0 min 0,000 mm 0,0 UV-I 0 W/m² 4,2 °C 5,2 °C 11,3 km/h (2 Bft)
09.12.2018 04:59 6,1 °C 88 % 1002,3 hPa 0,0 mm 6,3 km/h (2 Bft) W 261 ° 0 min 0,000 mm 0,0 UV-I 0 W/m² 4,3 °C 4,9 °C 9,7 km/h (2 Bft)
09.12.2018 05:00 6,1 °C 88 % 1002,3 hPa 0,0 mm 5,7 km/h (1 Bft) W-SW 244 ° 0 min 0,026 mm 0,0 UV-I 0 W/m² 4,3 °C 5,1 °C 8,0 km/h (2 Bft)
09.12.2018 05:01 6,1 °C 88 % 1002,2 hPa 0,0 mm 3,9 km/h (1 Bft) W 271 ° 0 min 0,000 mm 0,0 UV-I 0 W/m² 4,3 °C 6,1 °C 9,7 km/h (2 Bft)
09.12.2018 05:02 6,1 °C 88 % 1002,2 hPa 0,2 mm 9,5 km/h (2 Bft) W-NW 286 ° 0 min 0,000 mm 0,0 UV-I 0 W/m² 4,3 °C 4,1 °C 12,9 km/h (3 Bft)
09.12.2018 05:03 6,1 °C 88 % 1002,3 hPa 0,0 mm 10,0 km/h (2 Bft) W 271 ° 0 min 0,000 mm 0,0 UV-I 0 W/m² 4,3 °C 4,0 °C 16,1 km/h (3 Bft)
09.12.2018 05:04 6,1 °C 88 % 1002,3 hPa 0,0 mm 6,0 km/h (2 Bft) W-SW 254 ° 0 min 0,000 mm 0,0 UV-I 0 W/m² 4,3 °C 5,0 °C 9,7 km/h (2 Bft)
09.12.2018 05:05 6,0 °C 88 % 1002,4 hPa 0,0 mm 6,0 km/h (2 Bft) SW 226 ° 0 min 0,000 mm 0,0 UV-I 0 W/m² 4,2 °C 4,9 °C 9,7 km/h (2 Bft)
09.12.2018 05:06 6,0 °C 88 % 1002,4 hPa 0,0 mm 9,1 km/h (2 Bft) W-NW 299 ° 0 min 0,000 mm 0,0 UV-I 0 W/m² 4,2 °C 4,0 °C 12,9 km/h (3 Bft)
09.12.2018 05:07 5,9 °C 88 % 1002,4 hPa 0,2 mm 4,2 km/h (1 Bft) W-NW 288 ° 0 min 0,000 mm 0,0 UV-I 0 W/m² 4,1 °C 5,9 °C 4,8 km/h (1 Bft)
09.12.2018 05:08 5,9 °C 88 % 1002,6 hPa 0,0 mm 7,5 km/h (2 Bft) W-SW 244 ° 0 min 0,000 mm 0,0 UV-I 0 W/m² 4,1 °C 4,3 °C 14,5 km/h (3 Bft)
09.12.2018 05:09 5,9 °C 89 % 1002,6 hPa 0,2 mm 4,0 km/h (1 Bft) W 273 ° 0 min 0,000 mm 0,0 UV-I 0 W/m² 4,2 °C 5,9 °C 6,4 km/h (2 Bft)
09.12.2018 05:10 5,9 °C 89 % 1002,5 hPa 0,0 mm 5,1 km/h (1 Bft) W 275 ° 0 min 0,000 mm 0,0 UV-I 0 W/m² 4,2 °C 5,1 °C 6,4 km/h (2 Bft)
09.12.2018 05:11 5,9 °C 89 % 1002,7 hPa 0,0 mm 7,4 km/h (2 Bft) W-NW 283 ° 0 min 0,000 mm 0,0 UV-I 0 W/m² 4,2 °C 4,3 °C 11,3 km/h (2 Bft)
09.12.2018 05:12 5,9 °C 89 % 1002,7 hPa 0,2 mm 10,7 km/h (2 Bft) W 271 ° 0 min 0,000 mm 0,0 UV-I 0 W/m² 4,2 °C 3,6 °C 17,7 km/h (3 Bft)
09.12.2018 05:13 5,8 °C 89 % 1002,7 hPa 0,0 mm 15,8 km/h (3 Bft) W 260 ° 0 min 0,000 mm 0,0 UV-I 0 W/m² 4,1 °C 2,6 °C 24,1 km/h (4 Bft)
09.12.2018 05:14 5,8 °C 89 % 1002,8 hPa 0,0 mm 10,9 km/h (2 Bft) W 279 ° 0 min 0,000 mm 0,0 UV-I 0 W/m² 4,1 °C 3,4 °C 16,1 km/h (3 Bft)
09.12.2018 05:15 5,8 °C 89 % 1002,8 hPa 0,2 mm 6,7 km/h (2 Bft) W 277 ° 0 min 0,000 mm 0,0 UV-I 0 W/m² 4,1 °C 4,4 °C 9,7 km/h (2 Bft)
09.12.2018 05:16 5,8 °C 89 % 1002,8 hPa 0,0 mm 7,2 km/h (2 Bft) W-NW 282 ° 0 min 0,000 mm 0,0 UV-I 0 W/m² 4,1 °C 4,3 °C 11,3 km/h (2 Bft)
09.12.2018 05:17 5,8 °C 89 % 1002,9 hPa 0,2 mm 11,1 km/h (2 Bft) W-NW 301 ° 0 min 0,000 mm 0,0 UV-I 0 W/m² 4,1 °C 3,4 °C 16,1 km/h (3 Bft)
09.12.2018 05:18 5,7 °C 89 % 1002,9 hPa 0,0 mm 13,2 km/h (3 Bft) NW 312 ° 0 min 0,000 mm 0,0 UV-I 0 W/m² 4,0 °C 2,9 °C 17,7 km/h (3 Bft)
09.12.2018 05:19 5,7 °C 89 % 1002,9 hPa 0,2 mm 13,5 km/h (3 Bft) W-NW 295 ° 0 min 0,000 mm 0,0 UV-I 0 W/m² 4,0 °C 2,8 °C 17,7 km/h (3 Bft)
09.12.2018 05:20 5,7 °C 90 % 1003,0 hPa 0,0 mm 12,6 km/h (3 Bft) W 259 ° 0 min 0,000 mm 0,0 UV-I 0 W/m² 4,2 °C 3,0 °C 16,1 km/h (3 Bft)
09.12.2018 05:21 5,6 °C 90 % 1003,0 hPa 0,2 mm 17,2 km/h (3 Bft) W 277 ° 0 min 0,000 mm 0,0 UV-I 0 W/m² 4,1 °C 2,2 °C 22,5 km/h (4 Bft)
09.12.2018 05:22 5,6 °C 90 % 1003,1 hPa 0,0 mm 12,8 km/h (3 Bft) NW 312 ° 0 min 0,000 mm 0,0 UV-I 0 W/m² 4,1 °C 2,8 °C 17,7 km/h (3 Bft)
09.12.2018 05:23 5,6 °C 90 % 1003,2 hPa 0,2 mm 10,7 km/h (2 Bft) W-SW 249 ° 0 min 0,000 mm 0,0 UV-I 0 W/m² 4,1 °C 3,2 °C 17,7 km/h (3 Bft)
09.12.2018 05:24 5,5 °C 90 % 1003,2 hPa 0,0 mm 8,4 km/h (2 Bft) W-SW 254 ° 0 min 0,000 mm 0,0 UV-I 0 W/m² 4,0 °C 3,6 °C 16,1 km/h (3 Bft)
09.12.2018 05:25 5,4 °C 90 % 1003,3 hPa 0,0 mm 17,8 km/h (3 Bft) NW 318 ° 0 min 0,000 mm 0,0 UV-I 0 W/m² 3,9 °C 1,8 °C 27,4 km/h (4 Bft)
09.12.2018 05:26 5,4 °C 90 % 1003,3 hPa 0,0 mm 20,5 km/h (4 Bft) W-SW 251 ° 0 min 0,000 mm 0,0 UV-I 0 W/m² 3,9 °C 1,5 °C 32,2 km/h (5 Bft)
09.12.2018 05:27 5,4 °C 90 % 1003,4 hPa 0,2 mm 24,5 km/h (4 Bft) W 277 ° 0 min 0,000 mm 0,0 UV-I 0 W/m² 3,9 °C 1,1 °C 40,2 km/h (6 Bft)
09.12.2018 05:28 5,3 °C 90 % 1003,3 hPa 0,0 mm 14,6 km/h (3 Bft) NW 306 ° 0 min 0,000 mm 0,0 UV-I 0 W/m² 3,8 °C 2,2 °C 20,9 km/h (4 Bft)
09.12.2018 05:29 5,3 °C 90 % 1003,3 hPa 0,2 mm 16,4 km/h (3 Bft) W-SW 253 ° 0 min 0,000 mm 0,0 UV-I 0 W/m² 3,8 °C 1,9 °C 27,4 km/h (4 Bft)
09.12.2018 05:30 5,2 °C 90 % 1003,5 hPa 0,0 mm 20,5 km/h (4 Bft) W 264 ° 0 min 0,000 mm 0,0 UV-I 0 W/m² 3,7 °C 1,3 °C 25,7 km/h (4 Bft)
09.12.2018 05:31 5,2 °C 90 % 1003,5 hPa 0,2 mm 27,8 km/h (4 Bft) W 278 ° 0 min 0,000 mm 0,0 UV-I 0 W/m² 3,7 °C 0,5 °C 38,6 km/h (5 Bft)
09.12.2018 05:32 5,1 °C 90 % 1003,5 hPa 0,0 mm 22,8 km/h (4 Bft) W-SW 242 ° 0 min 0,000 mm 0,0 UV-I 0 W/m² 3,6 °C 0,9 °C 29,0 km/h (5 Bft)
09.12.2018 05:33 5,1 °C 90 % 1003,6 hPa 0,2 mm 25,5 km/h (4 Bft) W 271 ° 0 min 0,000 mm 0,0 UV-I 0 W/m² 3,6 °C 0,6 °C 41,8 km/h (6 Bft)
09.12.2018 05:34 5,0 °C 90 % 1003,6 hPa 0,2 mm 25,0 km/h (4 Bft) W-NW 288 ° 0 min 0,000 mm 0,0 UV-I 0 W/m² 3,5 °C 0,5 °C 45,1 km/h (6 Bft)
09.12.2018 05:35 4,9 °C 90 % 1003,6 hPa 0,0 mm 27,9 km/h (4 Bft) W 279 ° 0 min 0,000 mm 0,0 UV-I 0 W/m² 3,4 °C 0,1 °C 46,7 km/h (6 Bft)
09.12.2018 05:36 4,9 °C 90 % 1003,7 hPa 0,2 mm 14,1 km/h (3 Bft) W 265 ° 0 min 0,000 mm 0,0 UV-I 0 W/m² 3,4 °C 1,8 °C 24,1 km/h (4 Bft)
09.12.2018 05:37 4,9 °C 90 % 1003,7 hPa 0,0 mm 15,1 km/h (3 Bft) W-NW 286 ° 0 min 0,000 mm 0,0 UV-I 0 W/m² 3,4 °C 1,6 °C 20,9 km/h (4 Bft)
09.12.2018 05:38 4,8 °C 90 % 1003,6 hPa 0,0 mm 20,2 km/h (4 Bft) W 275 ° 0 min 0,000 mm 0,0 UV-I 0 W/m² 3,3 °C 0,8 °C 27,4 km/h (4 Bft)
09.12.2018 05:39 4,8 °C 90 % 1003,6 hPa 0,0 mm 22,7 km/h (4 Bft) W 267 ° 0 min 0,000 mm 0,0 UV-I 0 W/m² 3,3 °C 0,5 °C 41,8 km/h (6 Bft)
09.12.2018 05:40 4,8 °C 90 % 1003,6 hPa 0,2 mm 22,3 km/h (4 Bft) W-SW 253 ° 0 min 0,000 mm 0,0 UV-I 0 W/m² 3,3 °C 0,5 °C 38,6 km/h (5 Bft)
09.12.2018 05:41 4,7 °C 90 % 1003,8 hPa 0,0 mm 18,9 km/h (3 Bft) W 281 ° 0 min 0,000 mm 0,0 UV-I 0 W/m² 3,2 °C 0,8 °C 27,4 km/h (4 Bft)
09.12.2018 05:42 4,7 °C 90 % 1003,8 hPa 0,0 mm 15,4 km/h (3 Bft) W-NW 300 ° 0 min 0,000 mm 0,0 UV-I 0 W/m² 3,2 °C 1,3 °C 22,5 km/h (4 Bft)
09.12.2018 05:43 4,7 °C 91 % 1003,9 hPa 0,0 mm 21,4 km/h (4 Bft) W-SW 254 ° 0 min 0,000 mm 0,0 UV-I 0 W/m² 3,4 °C 0,5 °C 35,4 km/h (5 Bft)
09.12.2018 05:44 4,7 °C 90 % 1004,0 hPa 0,0 mm 23,9 km/h (4 Bft) W 274 ° 0 min 0,000 mm 0,0 UV-I 0 W/m² 3,2 °C 0,2 °C 45,1 km/h (6 Bft)
09.12.2018 05:45 4,7 °C 91 % 1003,8 hPa 0,0 mm 24,4 km/h (4 Bft) W-SW 255 ° 0 min 0,000 mm 0,0 UV-I 0 W/m² 3,4 °C 0,2 °C 40,2 km/h (6 Bft)
09.12.2018 05:46 4,7 °C 91 % 1003,8 hPa 0,0 mm 26,8 km/h (4 Bft) W-SW 247 ° 0 min 0,000 mm 0,0 UV-I 0 W/m² 3,4 °C -0,0 °C 45,1 km/h (6 Bft)
09.12.2018 05:47 4,7 °C 91 % 1003,8 hPa 0,0 mm 20,6 km/h (4 Bft) W-NW 298 ° 0 min 0,000 mm 0,0 UV-I 0 W/m² 3,4 °C 0,6 °C 37,0 km/h (5 Bft)
09.12.2018 05:48 4,7 °C 91 % 1003,7 hPa 0,0 mm 26,9 km/h (4 Bft) W-SW 244 ° 0 min 0,000 mm 0,0 UV-I 0 W/m² 3,4 °C -0,1 °C 37,0 km/h (5 Bft)
09.12.2018 05:49 4,7 °C 91 % 1003,7 hPa 0,0 mm 14,5 km/h (3 Bft) W-SW 245 ° 0 min 0,000 mm 0,0 UV-I 0 W/m² 3,4 °C 1,5 °C 22,5 km/h (4 Bft)
09.12.2018 05:50 4,7 °C 91 % 1003,6 hPa 0,0 mm 20,8 km/h (4 Bft) W-SW 246 ° 0 min 0,000 mm 0,0 UV-I 0 W/m² 3,4 °C 0,6 °C 33,8 km/h (5 Bft)
09.12.2018 05:51 4,7 °C 91 % 1003,6 hPa 0,0 mm 16,8 km/h (3 Bft) W 263 ° 0 min 0,000 mm 0,0 UV-I 0 W/m² 3,4 °C 1,1 °C 24,1 km/h (4 Bft)
09.12.2018 05:52 4,7 °C 91 % 1003,6 hPa 0,0 mm 20,7 km/h (4 Bft) W 269 ° 0 min 0,000 mm 0,0 UV-I 0 W/m² 3,4 °C 0,6 °C 22,5 km/h (4 Bft)
09.12.2018 05:53 4,7 °C 91 % 1003,6 hPa 0,0 mm 16,3 km/h (3 Bft) W-SW 251 ° 0 min 0,000 mm 0,0 UV-I 0 W/m² 3,4 °C 1,2 °C 32,2 km/h (5 Bft)
09.12.2018 05:54 4,6 °C 91 % 1003,6 hPa 0,0 mm 15,7 km/h (3 Bft) W 280 ° 0 min 0,000 mm 0,0 UV-I 0 W/m² 3,3 °C 1,1 °C 22,5 km/h (4 Bft)
09.12.2018 05:55 4,7 °C 91 % 1003,6 hPa 0,0 mm 12,3 km/h (3 Bft) W-NW 286 ° 0 min 0,000 mm 0,0 UV-I 0 W/m² 3,4 °C 1,8 °C 16,1 km/h (3 Bft)
09.12.2018 05:56 4,6 °C 91 % 1003,7 hPa 0,0 mm 19,3 km/h (3 Bft) W 265 ° 0 min 0,000 mm 0,0 UV-I 0 W/m² 3,3 °C 0,6 °C 27,4 km/h (4 Bft)
09.12.2018 05:57 4,6 °C 91 % 1003,5 hPa 0,0 mm 14,0 km/h (3 Bft) SW 219 ° 0 min 0,000 mm 0,0 UV-I 0 W/m² 3,3 °C 1,4 °C 22,5 km/h (4 Bft)
09.12.2018 05:58 4,7 °C 91 % 1003,5 hPa 0,0 mm 12,9 km/h (3 Bft) W 275 ° 0 min 0,000 mm 0,0 UV-I 0 W/m² 3,4 °C 1,7 °C 22,5 km/h (4 Bft)
09.12.2018 05:59 4,6 °C 91 % 1003,6 hPa 0,0 mm 18,8 km/h (3 Bft) W 262 ° 0 min 0,000 mm 0,0 UV-I 0 W/m² 3,3 °C 0,7 °C 27,4 km/h (4 Bft)
09.12.2018 06:00 4,6 °C 91 % 1003,6 hPa 0,0 mm 21,3 km/h (4 Bft) W-SW 254 ° 0 min 0,000 mm 0,0 UV-I 0 W/m² 3,3 °C 0,4 °C 32,2 km/h (5 Bft)
09.12.2018 06:01 4,7 °C 91 % 1003,5 hPa 0,0 mm 17,9 km/h (3 Bft) W-SW 257 ° 0 min 0,025 mm 0,0 UV-I 0 W/m² 3,4 °C 1,0 °C 29,0 km/h (5 Bft)
09.12.2018 06:02 4,6 °C 91 % 1003,6 hPa 0,0 mm 8,4 km/h (2 Bft) W-SW 244 ° 0 min 0,000 mm 0,0 UV-I 0 W/m² 3,3 °C 2,6 °C 12,9 km/h (3 Bft)
09.12.2018 06:03 4,6 °C 91 % 1003,5 hPa 0,0 mm 16,8 km/h (3 Bft) W-SW 242 ° 0 min 0,000 mm 0,0 UV-I 0 W/m² 3,3 °C 1,0 °C 20,9 km/h (4 Bft)
09.12.2018 06:04 4,7 °C 91 % 1003,6 hPa 0,0 mm 15,8 km/h (3 Bft) W-SW 247 ° 0 min 0,000 mm 0,0 UV-I 0 W/m² 3,4 °C 1,3 °C 29,0 km/h (5 Bft)
09.12.2018 06:05 4,7 °C 91 % 1003,4 hPa 0,2 mm 20,9 km/h (4 Bft) W-SW 257 ° 0 min 0,000 mm 0,0 UV-I 0 W/m² 3,4 °C 0,6 °C 33,8 km/h (5 Bft)
09.12.2018 06:06 4,6 °C 91 % 1003,5 hPa 0,0 mm 13,3 km/h (3 Bft) W 265 ° 0 min 0,000 mm 0,0 UV-I 0 W/m² 3,3 °C 1,5 °C 17,7 km/h (3 Bft)
09.12.2018 06:07 4,7 °C 91 % 1003,4 hPa 0,0 mm 8,8 km/h (2 Bft) W-SW 258 ° 0 min 0,000 mm 0,0 UV-I 0 W/m² 3,4 °C 2,6 °C 20,9 km/h (4 Bft)
09.12.2018 06:08 4,7 °C 91 % 1003,2 hPa 0,0 mm 13,8 km/h (3 Bft) SW 233 ° 0 min 0,000 mm 0,0 UV-I 0 W/m² 3,4 °C 1,6 °C 24,1 km/h (4 Bft)
09.12.2018 06:09 4,7 °C 91 % 1003,4 hPa 0,0 mm 18,4 km/h (3 Bft) W-SW 251 ° 0 min 0,000 mm 0,0 UV-I 0 W/m² 3,4 °C 0,9 °C 25,7 km/h (4 Bft)
09.12.2018 06:10 4,7 °C 91 % 1003,4 hPa 0,0 mm 17,0 km/h (3 Bft) W 262 ° 0 min 0,000 mm 0,0 UV-I 0 W/m² 3,4 °C 1,1 °C 29,0 km/h (5 Bft)
09.12.2018 06:11 4,7 °C 91 % 1003,4 hPa 0,0 mm 17,2 km/h (3 Bft) W 264 ° 0 min 0,000 mm 0,0 UV-I 0 W/m² 3,4 °C 1,1 °C 27,4 km/h (4 Bft)
09.12.2018 06:12 4,7 °C 91 % 1003,5 hPa 0,0 mm 23,6 km/h (4 Bft) W 273 ° 0 min 0,000 mm 0,0 UV-I 0 W/m² 3,4 °C 0,3 °C 29,0 km/h (5 Bft)
09.12.2018 06:13 4,7 °C 91 % 1003,4 hPa 0,0 mm 15,5 km/h (3 Bft) W-SW 255 ° 0 min 0,000 mm 0,0 UV-I 0 W/m² 3,4 °C 1,3 °C 20,9 km/h (4 Bft)
09.12.2018 06:14 4,7 °C 91 % 1003,4 hPa 0,0 mm 10,8 km/h (2 Bft) SW 234 ° 0 min 0,000 mm 0,0 UV-I 0 W/m² 3,4 °C 2,1 °C 17,7 km/h (3 Bft)
09.12.2018 06:15 4,7 °C 91 % 1003,3 hPa 0,0 mm 16,3 km/h (3 Bft) W-SW 255 ° 0 min 0,000 mm 0,0 UV-I 0 W/m² 3,4 °C 1,2 °C 27,4 km/h (4 Bft)
09.12.2018 06:16 4,7 °C 91 % 1003,4 hPa 0,0 mm 15,2 km/h (3 Bft) W 273 ° 0 min 0,000 mm 0,0 UV-I 0 W/m² 3,4 °C 1,3 °C 22,5 km/h (4 Bft)
09.12.2018 06:17 4,7 °C 91 % 1003,3 hPa 0,0 mm 16,4 km/h (3 Bft) W 271 ° 0 min 0,000 mm 0,0 UV-I 0 W/m² 3,4 °C 1,2 °C 22,5 km/h (4 Bft)
09.12.2018 06:18 4,7 °C 91 % 1003,2 hPa 0,0 mm 14,1 km/h (3 Bft) W-SW 245 ° 0 min 0,000 mm 0,0 UV-I 0 W/m² 3,4 °C 1,5 °C 20,9 km/h (4 Bft)
09.12.2018 06:19 4,7 °C 90 % 1003,3 hPa 0,0 mm 13,2 km/h (3 Bft) SW 233 ° 0 min 0,000 mm 0,0 UV-I 0 W/m² 3,2 °C 1,7 °C 20,9 km/h (4 Bft)
09.12.2018 06:20 4,7 °C 90 % 1003,4 hPa 0,0 mm 13,7 km/h (3 Bft) W-SW 240 ° 0 min 0,000 mm 0,0 UV-I 0 W/m² 3,2 °C 1,6 °C 17,7 km/h (3 Bft)
09.12.2018 06:21 4,7 °C 90 % 1003,4 hPa 0,0 mm 20,3 km/h (4 Bft) S-SW 207 ° 0 min 0,000 mm 0,0 UV-I 0 W/m² 3,2 °C 0,7 °C 30,6 km/h (5 Bft)
09.12.2018 06:22 4,7 °C 90 % 1003,5 hPa 0,0 mm 26,6 km/h (4 Bft) W 271 ° 0 min 0,000 mm 0,0 UV-I 0 W/m² 3,2 °C -0,0 °C 37,0 km/h (5 Bft)
09.12.2018 06:23 4,8 °C 90 % 1003,4 hPa 0,0 mm 20,2 km/h (4 Bft) SW 227 ° 0 min 0,000 mm 0,0 UV-I 0 W/m² 3,3 °C 0,8 °C 25,7 km/h (4 Bft)
09.12.2018 06:24 4,8 °C 90 % 1003,5 hPa 0,0 mm 19,5 km/h (3 Bft) W 266 ° 0 min 0,000 mm 0,0 UV-I 0 W/m² 3,3 °C 0,9 °C 43,5 km/h (6 Bft)
09.12.2018 06:25 4,9 °C 90 % 1003,5 hPa 0,0 mm 27,2 km/h (4 Bft) W 263 ° 0 min 0,000 mm 0,0 UV-I 0 W/m² 3,4 °C 0,2 °C 48,3 km/h (6 Bft)
09.12.2018 06:26 4,9 °C 89 % 1003,5 hPa 0,0 mm 15,4 km/h (3 Bft) W-NW 286 ° 0 min 0,000 mm 0,0 UV-I 0 W/m² 3,2 °C 1,6 °C 19,3 km/h (3 Bft)
09.12.2018 06:27 4,9 °C 89 % 1003,4 hPa 0,0 mm 25,2 km/h (4 Bft) W-SW 246 ° 0 min 0,000 mm 0,0 UV-I 0 W/m² 3,2 °C 0,4 °C 38,6 km/h (5 Bft)
09.12.2018 06:28 4,9 °C 89 % 1003,4 hPa 0,0 mm 19,5 km/h (3 Bft) W-NW 292 ° 0 min 0,000 mm 0,0 UV-I 0 W/m² 3,2 °C 1,0 °C 29,0 km/h (5 Bft)
09.12.2018 06:29 5,0 °C 89 % 1003,3 hPa 0,0 mm 22,5 km/h (4 Bft) W-SW 247 ° 0 min 0,000 mm 0,0 UV-I 0 W/m² 3,3 °C 0,8 °C 29,0 km/h (5 Bft)
09.12.2018 06:30 5,0 °C 88 % 1003,4 hPa 0,0 mm 19,6 km/h (3 Bft) W 268 ° 0 min 0,000 mm 0,0 UV-I 0 W/m² 3,2 °C 1,1 °C 37,0 km/h (5 Bft)
09.12.2018 06:31 5,0 °C 88 % 1003,4 hPa 0,0 mm 19,9 km/h (4 Bft) W-SW 245 ° 0 min 0,000 mm 0,0 UV-I 0 W/m² 3,2 °C 1,1 °C 27,4 km/h (4 Bft)
09.12.2018 06:32 5,1 °C 88 % 1003,3 hPa 0,0 mm 20,2 km/h (4 Bft) W-SW 251 ° 0 min 0,000 mm 0,0 UV-I 0 W/m² 3,3 °C 1,2 °C 32,2 km/h (5 Bft)
09.12.2018 06:33 5,1 °C 88 % 1003,3 hPa 0,0 mm 22,7 km/h (4 Bft) W 269 ° 0 min 0,000 mm 0,0 UV-I 0 W/m² 3,3 °C 0,9 °C 29,0 km/h (5 Bft)
09.12.2018 06:34 5,1 °C 87 % 1003,3 hPa 0,0 mm 12,6 km/h (3 Bft) W-NW 288 ° 0 min 0,000 mm 0,0 UV-I 0 W/m² 3,1 °C 2,3 °C 22,5 km/h (4 Bft)
09.12.2018 06:35 5,1 °C 87 % 1003,4 hPa 0,0 mm 15,4 km/h (3 Bft) W 279 ° 0 min 0,000 mm 0,0 UV-I 0 W/m² 3,1 °C 1,8 °C 19,3 km/h (3 Bft)
09.12.2018 06:36 5,1 °C 87 % 1003,5 hPa 0,0 mm 19,7 km/h (3 Bft) W-SW 258 ° 0 min 0,000 mm 0,0 UV-I 0 W/m² 3,1 °C 1,2 °C 29,0 km/h (5 Bft)
09.12.2018 06:37 5,1 °C 87 % 1003,3 hPa 0,0 mm 19,4 km/h (3 Bft) W-SW 238 ° 0 min 0,000 mm 0,0 UV-I 0 W/m² 3,1 °C 1,3 °C 25,7 km/h (4 Bft)
09.12.2018 06:38 5,1 °C 87 % 1003,4 hPa 0,0 mm 12,2 km/h (2 Bft) W-NW 286 ° 0 min 0,000 mm 0,0 UV-I 0 W/m² 3,1 °C 2,3 °C 24,1 km/h (4 Bft)
09.12.2018 06:39 5,1 °C 87 % 1003,3 hPa 0,0 mm 16,6 km/h (3 Bft) W 259 ° 0 min 0,000 mm 0,0 UV-I 0 W/m² 3,1 °C 1,6 °C 25,7 km/h (4 Bft)
09.12.2018 06:40 5,1 °C 87 % 1003,3 hPa 0,0 mm 15,2 km/h (3 Bft) W-SW 243 ° 0 min 0,000 mm 0,0 UV-I 0 W/m² 3,1 °C 1,8 °C 20,9 km/h (4 Bft)
09.12.2018 06:41 5,1 °C 87 % 1003,3 hPa 0,0 mm 13,9 km/h (3 Bft) S-SW 207 ° 0 min 0,000 mm 0,0 UV-I 0 W/m² 3,1 °C 2,0 °C 22,5 km/h (4 Bft)
09.12.2018 06:42 5,0 °C 87 % 1003,1 hPa 0,0 mm 13,6 km/h (3 Bft) W 263 ° 0 min 0,000 mm 0,0 UV-I 0 W/m² 3,0 °C 2,0 °C 24,1 km/h (4 Bft)
09.12.2018 06:43 5,0 °C 87 % 1003,2 hPa 0,0 mm 17,3 km/h (3 Bft) W 268 ° 0 min 0,000 mm 0,0 UV-I 0 W/m² 3,0 °C 1,4 °C 24,1 km/h (4 Bft)
09.12.2018 06:44 4,9 °C 87 % 1003,3 hPa 0,0 mm 12,2 km/h (2 Bft) W 261 ° 0 min 0,000 mm 0,0 UV-I 0 W/m² 2,9 °C 2,1 °C 19,3 km/h (3 Bft)
09.12.2018 06:45 4,9 °C 87 % 1003,2 hPa 0,0 mm 14,1 km/h (3 Bft) W 261 ° 0 min 0,000 mm 0,0 UV-I 0 W/m² 2,9 °C 1,8 °C 17,7 km/h (3 Bft)
09.12.2018 06:46 4,9 °C 87 % 1003,3 hPa 0,0 mm 12,8 km/h (3 Bft) W-SW 257 ° 0 min 0,000 mm 0,0 UV-I 0 W/m² 2,9 °C 2,0 °C 19,3 km/h (3 Bft)
09.12.2018 06:47 4,9 °C 87 % 1003,3 hPa 0,0 mm 9,4 km/h (2 Bft) W 259 ° 0 min 0,000 mm 0,0 UV-I 0 W/m² 2,9 °C 2,7 °C 16,1 km/h (3 Bft)
09.12.2018 06:48 4,9 °C 87 % 1003,4 hPa 0,0 mm 13,0 km/h (3 Bft) W-SW 257 ° 0 min 0,000 mm 0,0 UV-I 0 W/m² 2,9 °C 2,0 °C 22,5 km/h (4 Bft)
09.12.2018 06:49 4,9 °C 87 % 1003,4 hPa 0,0 mm 14,2 km/h (3 Bft) W-SW 243 ° 0 min 0,000 mm 0,0 UV-I 0 W/m² 2,9 °C 1,8 °C 19,3 km/h (3 Bft)
09.12.2018 06:50 4,9 °C 87 % 1003,5 hPa 0,0 mm 12,9 km/h (3 Bft) W 273 ° 0 min 0,000 mm 0,0 UV-I 0 W/m² 2,9 °C 2,0 °C 20,9 km/h (4 Bft)
09.12.2018 06:51 4,9 °C 88 % 1003,3 hPa 0,0 mm 11,2 km/h (2 Bft) W-SW 244 ° 0 min 0,000 mm 0,0 UV-I 0 W/m² 3,1 °C 2,3 °C 17,7 km/h (3 Bft)
09.12.2018 06:52 4,9 °C 88 % 1003,3 hPa 0,0 mm 8,6 km/h (2 Bft) W 259 ° 0 min 0,000 mm 0,0 UV-I 0 W/m² 3,1 °C 2,9 °C 19,3 km/h (3 Bft)
09.12.2018 06:53 4,8 °C 88 % 1003,3 hPa 0,0 mm 9,7 km/h (2 Bft) W-SW 247 ° 0 min 0,000 mm 0,0 UV-I 0 W/m² 3,0 °C 2,5 °C 14,5 km/h (3 Bft)
09.12.2018 06:54 4,9 °C 88 % 1003,3 hPa 0,0 mm 11,7 km/h (2 Bft) W-SW 237 ° 0 min 0,000 mm 0,0 UV-I 0 W/m² 3,1 °C 2,2 °C 17,7 km/h (3 Bft)
09.12.2018 06:55 4,9 °C 88 % 1003,1 hPa 0,0 mm 17,1 km/h (3 Bft) W 263 ° 0 min 0,000 mm 0,0 UV-I 0 W/m² 3,1 °C 1,3 °C 27,4 km/h (4 Bft)
09.12.2018 06:56 4,8 °C 88 % 1003,0 hPa 0,0 mm 14,6 km/h (3 Bft) W-SW 258 ° 0 min 0,000 mm 0,0 UV-I 0 W/m² 3,0 °C 1,6 °C 24,1 km/h (4 Bft)
09.12.2018 06:57 4,8 °C 88 % 1003,0 hPa 0,0 mm 19,7 km/h (3 Bft) W 281 ° 0 min 0,000 mm 0,0 UV-I 0 W/m² 3,0 °C 0,9 °C 33,8 km/h (5 Bft)
09.12.2018 06:58 4,8 °C 88 % 1003,0 hPa 0,0 mm 12,8 km/h (3 Bft) W 260 ° 0 min 0,000 mm 0,0 UV-I 0 W/m² 3,0 °C 1,9 °C 19,3 km/h (3 Bft)
09.12.2018 06:59 4,8 °C 88 % 1003,2 hPa 0,0 mm 13,3 km/h (3 Bft) W-NW 285 ° 0 min 0,000 mm 0,0 UV-I 0 W/m² 3,0 °C 1,8 °C 17,7 km/h (3 Bft)
09.12.2018 07:00 4,8 °C 88 % 1003,2 hPa 0,0 mm 18,1 km/h (3 Bft) W-SW 256 ° 0 min 0,000 mm 0,0 UV-I 0 W/m² 3,0 °C 1,1 °C 32,2 km/h (5 Bft)
09.12.2018 07:01 4,8 °C 88 % 1002,9 hPa 0,0 mm 18,8 km/h (3 Bft) W 278 ° 0 min 0,026 mm 0,0 UV-I 0 W/m² 3,0 °C 1,0 °C 40,2 km/h (6 Bft)
09.12.2018 07:02 4,9 °C 88 % 1003,3 hPa 0,0 mm 15,3 km/h (3 Bft) W 261 ° 0 min 0,000 mm 0,0 UV-I 0 W/m² 3,1 °C 1,6 °C 19,3 km/h (3 Bft)
09.12.2018 07:03 4,9 °C 88 % 1003,3 hPa 0,0 mm 12,2 km/h (2 Bft) SW 230 ° 0 min 0,000 mm 0,0 UV-I 0 W/m² 3,1 °C 2,1 °C 17,7 km/h (3 Bft)
09.12.2018 07:04 4,8 °C 88 % 1003,3 hPa 0,0 mm 15,4 km/h (3 Bft) W 267 ° 0 min 0,000 mm 0,0 UV-I 0 W/m² 3,0 °C 1,4 °C 20,9 km/h (4 Bft)
09.12.2018 07:05 4,9 °C 88 % 1003,3 hPa 0,0 mm 18,3 km/h (3 Bft) W 269 ° 0 min 0,000 mm 0,0 UV-I 0 W/m² 3,1 °C 1,2 °C 24,1 km/h (4 Bft)
09.12.2018 07:06 4,9 °C 88 % 1003,4 hPa 0,0 mm 17,7 km/h (3 Bft) SW 220 ° 0 min 0,000 mm 0,0 UV-I 0 W/m² 3,1 °C 1,2 °C 30,6 km/h (5 Bft)
09.12.2018 07:07 4,9 °C 88 % 1003,4 hPa 0,0 mm 18,4 km/h (3 Bft) W-NW 292 ° 0 min 0,000 mm 0,0 UV-I 0 W/m² 3,1 °C 1,1 °C 25,7 km/h (4 Bft)
09.12.2018 07:08 4,9 °C 88 % 1003,6 hPa 0,0 mm 12,4 km/h (3 Bft) W 279 ° 0 min 0,000 mm 0,0 UV-I 0 W/m² 3,1 °C 2,1 °C 22,5 km/h (4 Bft)
09.12.2018 07:09 4,9 °C 88 % 1003,6 hPa 0,0 mm 16,8 km/h (3 Bft) W 279 ° 0 min 0,000 mm 0,0 UV-I 0 W/m² 3,1 °C 1,4 °C 25,7 km/h (4 Bft)
09.12.2018 07:10 4,9 °C 88 % 1003,7 hPa 0,0 mm 18,4 km/h (3 Bft) W-SW 241 ° 0 min 0,000 mm 0,0 UV-I 0 W/m² 3,1 °C 1,1 °C 24,1 km/h (4 Bft)
09.12.2018 07:11 4,9 °C 88 % 1003,7 hPa 0,2 mm 16,5 km/h (3 Bft) W 279 ° 0 min 0,000 mm 0,0 UV-I 0 W/m² 3,1 °C 1,4 °C 20,9 km/h (4 Bft)
09.12.2018 07:12 4,9 °C 88 % 1003,9 hPa 0,0 mm 21,7 km/h (4 Bft) W 262 ° 0 min 0,000 mm 0,0 UV-I 0 W/m² 3,1 °C 0,7 °C 29,0 km/h (5 Bft)
09.12.2018 07:13 4,9 °C 88 % 1003,9 hPa 0,0 mm 14,8 km/h (3 Bft) W-NW 296 ° 0 min 0,000 mm 0,0 UV-I 0 W/m² 3,1 °C 1,7 °C 24,1 km/h (4 Bft)
09.12.2018 07:14 4,9 °C 88 % 1004,0 hPa 0,0 mm 14,3 km/h (3 Bft) W-NW 282 ° 0 min 0,000 mm 0,0 UV-I 0 W/m² 3,1 °C 1,7 °C 19,3 km/h (3 Bft)
09.12.2018 07:15 4,9 °C 89 % 1004,3 hPa 0,2 mm 19,2 km/h (3 Bft) W 277 ° 0 min 0,000 mm 0,0 UV-I 0 W/m² 3,2 °C 1,0 °C 25,7 km/h (4 Bft)
09.12.2018 07:16 4,9 °C 88 % 1004,4 hPa 0,0 mm 17,1 km/h (3 Bft) W-NW 296 ° 0 min 0,000 mm 0,0 UV-I 0 W/m² 3,1 °C 1,3 °C 22,5 km/h (4 Bft)
09.12.2018 07:17 4,9 °C 89 % 1004,4 hPa 0,2 mm 22,7 km/h (4 Bft) W 281 ° 0 min 0,000 mm 0,0 UV-I 0 W/m² 3,2 °C 0,6 °C 38,6 km/h (5 Bft)
09.12.2018 07:18 4,9 °C 89 % 1004,4 hPa 0,0 mm 29,3 km/h (5 Bft) W 281 ° 0 min 0,000 mm 0,0 UV-I 0 W/m² 3,2 °C -0,0 °C 43,5 km/h (6 Bft)
09.12.2018 07:19 4,8 °C 89 % 1004,5 hPa 0,2 mm 15,6 km/h (3 Bft) W-NW 288 ° 0 min 0,000 mm 0,0 UV-I 0 W/m² 3,1 °C 1,4 °C 30,6 km/h (5 Bft)
09.12.2018 07:20 4,8 °C 89 % 1004,4 hPa 0,0 mm 24,1 km/h (4 Bft) W 259 ° 0 min 0,000 mm 0,0 UV-I 0 W/m² 3,1 °C 0,4 °C 41,8 km/h (6 Bft)
09.12.2018 07:21 4,7 °C 89 % 1004,6 hPa 0,0 mm 25,0 km/h (4 Bft) W 267 ° 0 min 0,000 mm 0,0 UV-I 0 W/m² 3,0 °C 0,1 °C 37,0 km/h (5 Bft)
09.12.2018 07:22 4,7 °C 89 % 1004,6 hPa 0,2 mm 16,2 km/h (3 Bft) W 266 ° 0 min 0,000 mm 0,0 UV-I 0 W/m² 3,0 °C 1,2 °C 29,0 km/h (5 Bft)
09.12.2018 07:23 4,7 °C 89 % 1004,6 hPa 0,0 mm 28,0 km/h (4 Bft) W 269 ° 0 min 0,000 mm 0,0 UV-I 0 W/m² 3,0 °C -0,2 °C 40,2 km/h (6 Bft)
09.12.2018 07:24 4,6 °C 89 % 1004,7 hPa 0,0 mm 25,0 km/h (4 Bft) W-NW 288 ° 0 min 0,000 mm 0,0 UV-I 0 W/m² 2,9 °C 0,0 °C 40,2 km/h (6 Bft)
09.12.2018 07:25 4,6 °C 89 % 1004,7 hPa 0,0 mm 23,9 km/h (4 Bft) W-NW 298 ° 0 min 0,000 mm 0,0 UV-I 0 W/m² 2,9 °C 0,1 °C 41,8 km/h (6 Bft)
09.12.2018 07:26 4,6 °C 89 % 1004,8 hPa 0,0 mm 20,7 km/h (4 Bft) N-NW 328 ° 0 min 0,000 mm 0,0 UV-I 0 W/m² 2,9 °C 0,5 °C 32,2 km/h (5 Bft)
09.12.2018 07:27 4,5 °C 90 % 1004,9 hPa 0,0 mm 23,7 km/h (4 Bft) W 270 ° 0 min 0,000 mm 0,0 UV-I 0 W/m² 3,0 °C 0,0 °C 33,8 km/h (5 Bft)
09.12.2018 07:28 4,5 °C 89 % 1005,0 hPa 0,2 mm 27,1 km/h (4 Bft) W-NW 292 ° 0 min 0,000 mm 0,0 UV-I 0 W/m² 2,8 °C -0,3 °C 37,0 km/h (5 Bft)
09.12.2018 07:29 4,4 °C 90 % 1005,1 hPa 0,0 mm 19,2 km/h (3 Bft) W-NW 292 ° 0 min 0,000 mm 0,0 UV-I 0 W/m² 2,9 °C 0,4 °C 27,4 km/h (4 Bft)
09.12.2018 07:30 4,4 °C 90 % 1005,3 hPa 0,0 mm 18,9 km/h (3 Bft) NW 317 ° 0 min 0,000 mm 0,0 UV-I 0 W/m² 2,9 °C 0,4 °C 33,8 km/h (5 Bft)
09.12.2018 07:31 4,4 °C 90 % 1005,5 hPa 0,2 mm 25,4 km/h (4 Bft) W 279 ° 0 min 0,000 mm 0,0 UV-I 0 W/m² 2,9 °C -0,3 °C 35,4 km/h (5 Bft)
09.12.2018 07:32 4,3 °C 89 % 1005,4 hPa 0,0 mm 29,8 km/h (5 Bft) W-NW 290 ° 0 min 0,000 mm 0,0 UV-I 0 W/m² 2,7 °C -0,8 °C 43,5 km/h (6 Bft)
09.12.2018 07:33 4,1 °C 89 % 1005,6 hPa 0,2 mm 25,3 km/h (4 Bft) W-NW 293 ° 0 min 0,000 mm 0,0 UV-I 0 W/m² 2,5 °C -0,7 °C 38,6 km/h (5 Bft)
09.12.2018 07:34 3,9 °C 88 % 1005,4 hPa 0,0 mm 18,4 km/h (3 Bft) W 261 ° 0 min 0,000 mm 0,0 UV-I 0 W/m² 2,1 °C -0,1 °C 27,4 km/h (4 Bft)
09.12.2018 07:35 3,7 °C 87 % 1005,4 hPa 0,2 mm 20,3 km/h (4 Bft) W-NW 302 ° 0 min 0,000 mm 0,0 UV-I 0 W/m² 1,7 °C -0,6 °C 25,7 km/h (4 Bft)
09.12.2018 07:36 3,4 °C 87 % 1005,4 hPa 0,0 mm 24,4 km/h (4 Bft) NW 306 ° 0 min 0,000 mm 0,0 UV-I 0 W/m² 1,4 °C -1,5 °C 38,6 km/h (5 Bft)
09.12.2018 07:37 3,3 °C 88 % 1005,2 hPa 0,2 mm 18,7 km/h (3 Bft) NW 305 ° 0 min 0,000 mm 0,0 UV-I 0 W/m² 1,5 °C -0,9 °C 25,7 km/h (4 Bft)
09.12.2018 07:38 3,2 °C 88 % 1005,1 hPa 0,0 mm 21,2 km/h (4 Bft) W-NW 286 ° 0 min 0,000 mm 0,0 UV-I 0 W/m² 1,4 °C -1,4 °C 29,0 km/h (5 Bft)
09.12.2018 07:39 3,1 °C 88 % 1005,1 hPa 0,2 mm 14,0 km/h (3 Bft) W-NW 284 ° 0 min 0,000 mm 0,0 UV-I 0 W/m² 1,3 °C -0,4 °C 19,3 km/h (3 Bft)
09.12.2018 07:40 2,9 °C 88 % 1005,0 hPa 0,0 mm 14,6 km/h (3 Bft) W 267 ° 0 min 0,000 mm 0,0 UV-I 0 W/m² 1,1 °C -0,8 °C 19,3 km/h (3 Bft)
09.12.2018 07:41 2,9 °C 89 % 1005,0 hPa 0,2 mm 13,0 km/h (3 Bft) W-NW 288 ° 0 min 0,000 mm 0,0 UV-I 0 W/m² 1,3 °C -0,5 °C 19,3 km/h (3 Bft)
09.12.2018 07:42 2,8 °C 89 % 1005,1 hPa 0,0 mm 13,4 km/h (3 Bft) W 261 ° 0 min 0,000 mm 0,0 UV-I 0 W/m² 1,2 °C -0,7 °C 24,1 km/h (4 Bft)
09.12.2018 07:43 2,8 °C 89 % 1005,0 hPa 0,0 mm 21,9 km/h (4 Bft) NW 304 ° 0 min 0,000 mm 0,0 UV-I 0 W/m² 1,2 °C -2,0 °C 32,2 km/h (5 Bft)
09.12.2018 07:44 2,7 °C 89 % 1005,0 hPa 0,2 mm 20,0 km/h (4 Bft) W 281 ° 0 min 0,000 mm 0,0 UV-I 0 W/m² 1,1 °C -1,8 °C 27,4 km/h (4 Bft)
09.12.2018 07:45 2,6 °C 89 % 1005,1 hPa 0,0 mm 24,7 km/h (4 Bft) W-NW 290 ° 0 min 0,000 mm 0,0 UV-I 0 W/m² 1,0 °C -2,5 °C 32,2 km/h (5 Bft)
09.12.2018 07:46 2,6 °C 89 % 1005,2 hPa 0,0 mm 18,5 km/h (3 Bft) W-SW 253 ° 0 min 0,000 mm 0,0 UV-I 0 W/m² 1,0 °C -1,8 °C 32,2 km/h (5 Bft)
09.12.2018 07:47 2,4 °C 89 % 1005,2 hPa 0,2 mm 19,5 km/h (3 Bft) W-SW 252 ° 0 min 0,000 mm 0,0 UV-I 0 W/m² 0,8 °C -2,1 °C 33,8 km/h (5 Bft)
09.12.2018 07:48 2,4 °C 89 % 1005,2 hPa 0,0 mm 18,5 km/h (3 Bft) W 266 ° 0 min 0,000 mm 0,0 UV-I 0 W/m² 0,8 °C -2,0 °C 29,0 km/h (5 Bft)
09.12.2018 07:49 2,3 °C 89 % 1005,2 hPa 0,0 mm 20,7 km/h (4 Bft) W-SW 253 ° 0 min 0,000 mm 0,0 UV-I 0 W/m² 0,7 °C -2,4 °C 29,0 km/h (5 Bft)
09.12.2018 07:50 2,3 °C 89 % 1005,3 hPa 0,2 mm 19,8 km/h (3 Bft) W 265 ° 0 min 0,000 mm 0,0 UV-I 0 W/m² 0,7 °C -2,3 °C 29,0 km/h (5 Bft)
09.12.2018 07:51 2,2 °C 89 % 1005,3 hPa 0,0 mm 17,5 km/h (3 Bft) W 268 ° 0 min 0,000 mm 0,0 UV-I 0 W/m² 0,6 °C -2,1 °C 24,1 km/h (4 Bft)
09.12.2018 07:52 2,1 °C 89 % 1005,4 hPa 0,0 mm 17,9 km/h (3 Bft) W-SW 242 ° 0 min 0,000 mm 0,0 UV-I 0 W/m² 0,5 °C -2,3 °C 29,0 km/h (5 Bft)
09.12.2018 07:53 2,1 °C 90 % 1005,4 hPa 0,0 mm 17,8 km/h (3 Bft) SW 221 ° 0 min 0,000 mm 0,0 UV-I 0 W/m² 0,6 °C -2,3 °C 32,2 km/h (5 Bft)
09.12.2018 07:54 2,0 °C 89 % 1005,3 hPa 0,0 mm 18,0 km/h (3 Bft) W 269 ° 0 min 0,000 mm 0,0 UV-I 0 W/m² 0,4 °C -2,4 °C 33,8 km/h (5 Bft)
09.12.2018 07:55 1,9 °C 90 % 1005,3 hPa 0,0 mm 13,0 km/h (3 Bft) W-SW 248 ° 0 min 0,000 mm 0,0 UV-I 0 W/m² 0,4 °C -1,7 °C 17,7 km/h (3 Bft)
09.12.2018 07:56 1,8 °C 90 % 1005,4 hPa 0,0 mm 16,8 km/h (3 Bft) W 265 ° 0 min 0,000 mm 0,0 UV-I 0 W/m² 0,3 °C -2,5 °C 19,3 km/h (3 Bft)
09.12.2018 07:57 1,8 °C 90 % 1005,4 hPa 0,2 mm 19,6 km/h (3 Bft) W 260 ° 0 min 0,000 mm 0,0 UV-I 0 W/m² 0,3 °C -2,9 °C 29,0 km/h (5 Bft)
09.12.2018 07:58 1,7 °C 90 % 1005,3 hPa 0,0 mm 22,3 km/h (4 Bft) W 265 ° 0 min 0,000 mm 0,0 UV-I 0 W/m² 0,2 °C -3,4 °C 32,2 km/h (5 Bft)
09.12.2018 07:59 1,7 °C 90 % 1005,4 hPa 0,0 mm 14,5 km/h (3 Bft) W 279 ° 0 min 0,000 mm 0,0 UV-I 0 W/m² 0,2 °C -2,2 °C 20,9 km/h (4 Bft)
09.12.2018 08:00 1,7 °C 90 % 1005,5 hPa 0,0 mm 8,6 km/h (2 Bft) W 259 ° 0 min 0,000 mm 0,0 UV-I 0 W/m² 0,2 °C -0,9 °C 14,5 km/h (3 Bft)
09.12.2018 08:01 1,6 °C 90 % 1005,5 hPa 0,0 mm 15,2 km/h (3 Bft) W 259 ° 0 min 0,025 mm 0,0 UV-I 0 W/m² 0,1 °C -2,5 °C 24,1 km/h (4 Bft)
09.12.2018 08:02 1,6 °C 90 % 1005,5 hPa 0,0 mm 13,9 km/h (3 Bft) W 265 ° 0 min 0,000 mm 0,0 UV-I 0 W/m² 0,1 °C -2,2 °C 24,1 km/h (4 Bft)
09.12.2018 08:03 1,6 °C 90 % 1005,5 hPa 0,0 mm 17,6 km/h (3 Bft) W 266 ° 0 min 0,000 mm 0,0 UV-I 0 W/m² 0,1 °C -2,9 °C 27,4 km/h (4 Bft)
09.12.2018 08:04 1,6 °C 90 % 1005,5 hPa 0,0 mm 13,9 km/h (3 Bft) W 271 ° 0 min 0,000 mm 0,0 UV-I 0 W/m² 0,1 °C -2,2 °C 19,3 km/h (3 Bft)
09.12.2018 08:05 1,5 °C 91 % 1005,6 hPa 0,0 mm 14,2 km/h (3 Bft) W-SW 254 ° 0 min 0,000 mm 0,0 UV-I 0 W/m² 0,2 °C -2,4 °C 20,9 km/h (4 Bft)
09.12.2018 08:06 1,6 °C 91 % 1005,5 hPa 0,2 mm 16,1 km/h (3 Bft) W-SW 243 ° 0 min 0,000 mm 0,0 UV-I 0 W/m² 0,3 °C -2,6 °C 22,5 km/h (4 Bft)
09.12.2018 08:07 1,5 °C 91 % 1005,6 hPa 0,0 mm 13,9 km/h (3 Bft) W 271 ° 0 min 0,000 mm 0,0 UV-I 0 W/m² 0,2 °C -2,4 °C 20,9 km/h (4 Bft)
09.12.2018 08:08 1,6 °C 91 % 1005,6 hPa 0,0 mm 10,0 km/h (2 Bft) SW 232 ° 0 min 0,000 mm 0,0 UV-I 0 W/m² 0,3 °C -1,4 °C 17,7 km/h (3 Bft)
09.12.2018 08:09 1,5 °C 91 % 1005,5 hPa 0,0 mm 11,0 km/h (2 Bft) W-SW 246 ° 0 min 0,000 mm 0,0 UV-I 0 W/m² 0,2 °C -1,8 °C 17,7 km/h (3 Bft)
09.12.2018 08:10 1,6 °C 91 % 1005,5 hPa 0,0 mm 8,3 km/h (2 Bft) W-SW 257 ° 0 min 0,000 mm 0,0 UV-I 0 W/m² 0,3 °C -0,9 °C 14,5 km/h (3 Bft)
09.12.2018 08:11 1,5 °C 91 % 1005,5 hPa 0,0 mm 10,9 km/h (2 Bft) S-SW 210 ° 0 min 0,000 mm 0,0 UV-I 0 W/m² 0,2 °C -1,7 °C 17,7 km/h (3 Bft)
09.12.2018 08:12 1,6 °C 91 % 1005,5 hPa 0,0 mm 10,8 km/h (2 Bft) SW 218 ° 0 min 0,000 mm 0,0 UV-I 0 W/m² 0,3 °C -1,6 °C 17,7 km/h (3 Bft)
09.12.2018 08:13 1,5 °C 91 % 1005,5 hPa 0,0 mm 9,5 km/h (2 Bft) S-SW 213 ° 0 min 0,000 mm 0,0 UV-I 0 W/m² 0,2 °C -1,4 °C 17,7 km/h (3 Bft)
09.12.2018 08:14 1,6 °C 91 % 1005,2 hPa 0,0 mm 10,8 km/h (2 Bft) W-NW 284 ° 0 min 0,000 mm 0,0 UV-I 0 W/m² 0,3 °C -1,6 °C 16,1 km/h (3 Bft)
09.12.2018 08:15 1,5 °C 91 % 1005,0 hPa 0,0 mm 10,8 km/h (2 Bft) SW 221 ° 0 min 0,000 mm 0,0 UV-I 0 W/m² 0,2 °C -1,7 °C 14,5 km/h (3 Bft)
09.12.2018 08:16 1,5 °C 91 % 1005,0 hPa 0,0 mm 11,7 km/h (2 Bft) S-SW 208 ° 0 min 0,000 mm 0,0 UV-I 0 W/m² 0,2 °C -1,9 °C 20,9 km/h (4 Bft)
09.12.2018 08:17 1,6 °C 91 % 1004,9 hPa 0,0 mm 7,2 km/h (2 Bft) S 176 ° 0 min 0,000 mm 0,0 UV-I 0 W/m² 0,3 °C -0,6 °C 16,1 km/h (3 Bft)
09.12.2018 08:18 1,6 °C 91 % 1004,6 hPa 0,0 mm 11,0 km/h (2 Bft) SW 217 ° 0 min 0,000 mm 0,0 UV-I 5 W/m² 0,3 °C -1,6 °C 17,7 km/h (3 Bft)
09.12.2018 08:19 1,6 °C 92 % 1004,5 hPa 0,0 mm 11,5 km/h (2 Bft) S-SW 209 ° 0 min 0,000 mm 0,0 UV-I 5 W/m² 0,4 °C -1,8 °C 16,1 km/h (3 Bft)
09.12.2018 08:20 1,6 °C 92 % 1004,5 hPa 0,0 mm 13,5 km/h (3 Bft) S-SW 206 ° 0 min 0,000 mm 0,0 UV-I 5 W/m² 0,4 °C -2,2 °C 25,7 km/h (4 Bft)
09.12.2018 08:21 1,6 °C 92 % 1004,5 hPa 0,0 mm 8,0 km/h (2 Bft) SW 232 ° 0 min 0,000 mm 0,0 UV-I 5 W/m² 0,4 °C -0,9 °C 12,9 km/h (3 Bft)
09.12.2018 08:22 1,6 °C 92 % 1004,6 hPa 0,0 mm 7,2 km/h (2 Bft) S-SW 207 ° 0 min 0,000 mm 0,0 UV-I 5 W/m² 0,4 °C -0,6 °C 12,9 km/h (3 Bft)
09.12.2018 08:23 1,6 °C 92 % 1004,7 hPa 0,2 mm 13,5 km/h (3 Bft) S-SW 213 ° 0 min 0,000 mm 0,0 UV-I 5 W/m² 0,4 °C -2,2 °C 20,9 km/h (4 Bft)
09.12.2018 08:24 1,7 °C 92 % 1004,6 hPa 0,0 mm 7,5 km/h (2 Bft) W-SW 240 ° 0 min 0,000 mm 0,0 UV-I 7 W/m² 0,5 °C -0,6 °C 12,9 km/h (3 Bft)
09.12.2018 08:25 1,7 °C 92 % 1004,5 hPa 0,0 mm 14,1 km/h (3 Bft) W-SW 251 ° 0 min 0,000 mm 0,0 UV-I 9 W/m² 0,5 °C -2,2 °C 19,3 km/h (3 Bft)
09.12.2018 08:26 1,7 °C 92 % 1004,7 hPa 0,0 mm 17,7 km/h (3 Bft) W-SW 258 ° 0 min 0,000 mm 0,0 UV-I 9 W/m² 0,5 °C -2,8 °C 33,8 km/h (5 Bft)
09.12.2018 08:27 1,8 °C 92 % 1004,6 hPa 0,0 mm 9,6 km/h (2 Bft) W-SW 249 ° 0 min 0,000 mm 0,0 UV-I 7 W/m² 0,6 °C -1,1 °C 17,7 km/h (3 Bft)
09.12.2018 08:28 1,8 °C 92 % 1004,6 hPa 0,0 mm 12,4 km/h (3 Bft) S-SW 196 ° 0 min 0,000 mm 0,0 UV-I 7 W/m² 0,6 °C -1,7 °C 16,1 km/h (3 Bft)
09.12.2018 08:29 2,0 °C 92 % 1004,5 hPa 0,0 mm 12,7 km/h (3 Bft) W-SW 244 ° 0 min 0,000 mm 0,0 UV-I 7 W/m² 0,8 °C -1,5 °C 17,7 km/h (3 Bft)
09.12.2018 08:30 2,0 °C 92 % 1004,4 hPa 0,0 mm 14,4 km/h (3 Bft) W-SW 257 ° 0 min 0,000 mm 0,0 UV-I 9 W/m² 0,8 °C -1,8 °C 20,9 km/h (4 Bft)
09.12.2018 08:31 2,1 °C 92 % 1004,4 hPa 0,0 mm 9,4 km/h (2 Bft) W-SW 238 ° 0 min 0,000 mm 0,0 UV-I 11 W/m² 0,9 °C -0,7 °C 20,9 km/h (4 Bft)
09.12.2018 08:32 2,2 °C 92 % 1004,6 hPa 0,0 mm 16,7 km/h (3 Bft) SW 234 ° 0 min 0,000 mm 0,0 UV-I 11 W/m² 1,0 °C -2,0 °C 29,0 km/h (5 Bft)
09.12.2018 08:33 2,2 °C 92 % 1004,6 hPa 0,0 mm 15,2 km/h (3 Bft) SW 233 ° 0 min 0,000 mm 0,0 UV-I 11 W/m² 1,0 °C -1,7 °C 25,7 km/h (4 Bft)
09.12.2018 08:34 2,3 °C 92 % 1004,5 hPa 0,0 mm 12,4 km/h (3 Bft) W-SW 255 ° 0 min 0,000 mm 0,0 UV-I 9 W/m² 1,1 °C -1,1 °C 19,3 km/h (3 Bft)
09.12.2018 08:35 2,3 °C 92 % 1004,6 hPa 0,0 mm 10,1 km/h (2 Bft) W-SW 247 ° 0 min 0,000 mm 0,0 UV-I 9 W/m² 1,1 °C -0,6 °C 17,7 km/h (3 Bft)
09.12.2018 08:36 2,4 °C 92 % 1004,6 hPa 0,0 mm 9,7 km/h (2 Bft) W 267 ° 0 min 0,000 mm 0,0 UV-I 7 W/m² 1,2 °C -0,4 °C 17,7 km/h (3 Bft)
09.12.2018 08:37 2,4 °C 92 % 1004,6 hPa 0,0 mm 12,1 km/h (2 Bft) W-SW 246 ° 0 min 0,000 mm 0,0 UV-I 7 W/m² 1,2 °C -0,9 °C 19,3 km/h (3 Bft)
09.12.2018 08:38 2,5 °C 92 % 1004,6 hPa 0,0 mm 14,6 km/h (3 Bft) W-SW 256 ° 0 min 0,000 mm 0,0 UV-I 7 W/m² 1,3 °C -1,3 °C 19,3 km/h (3 Bft)
09.12.2018 08:39 2,6 °C 92 % 1004,6 hPa 0,0 mm 10,7 km/h (2 Bft) W-SW 252 ° 0 min 0,000 mm 0,0 UV-I 7 W/m² 1,4 °C -0,4 °C 16,1 km/h (3 Bft)
09.12.2018 08:40 2,6 °C 92 % 1004,7 hPa 0,0 mm 12,1 km/h (2 Bft) W-NW 286 ° 0 min 0,000 mm 0,0 UV-I 7 W/m² 1,4 °C -0,7 °C 17,7 km/h (3 Bft)
09.12.2018 08:41 2,6 °C 92 % 1004,8 hPa 0,0 mm 14,4 km/h (3 Bft) W 270 ° 0 min 0,000 mm 0,0 UV-I 9 W/m² 1,4 °C -1,1 °C 19,3 km/h (3 Bft)
09.12.2018 08:42 2,7 °C 92 % 1004,8 hPa 0,0 mm 13,9 km/h (3 Bft) W-SW 238 ° 0 min 0,000 mm 0,0 UV-I 7 W/m² 1,5 °C -0,9 °C 17,7 km/h (3 Bft)
09.12.2018 08:43 2,7 °C 92 % 1004,7 hPa 0,0 mm 13,5 km/h (3 Bft) W-NW 290 ° 0 min 0,000 mm 0,0 UV-I 7 W/m² 1,5 °C -0,8 °C 20,9 km/h (4 Bft)
09.12.2018 08:44 2,8 °C 92 % 1004,8 hPa 0,0 mm 13,0 km/h (3 Bft) W-SW 248 ° 0 min 0,000 mm 0,0 UV-I 7 W/m² 1,6 °C -0,6 °C 17,7 km/h (3 Bft)
09.12.2018 08:45 2,8 °C 92 % 1004,9 hPa 0,0 mm 12,8 km/h (3 Bft) W 269 ° 0 min 0,000 mm 0,0 UV-I 7 W/m² 1,6 °C -0,6 °C 16,1 km/h (3 Bft)
09.12.2018 08:46 2,8 °C 92 % 1004,8 hPa 0,0 mm 11,0 km/h (2 Bft) SW 221 ° 0 min 0,000 mm 0,0 UV-I 7 W/m² 1,6 °C -0,2 °C 17,7 km/h (3 Bft)
09.12.2018 08:47 2,9 °C 92 % 1004,8 hPa 0,0 mm 17,6 km/h (3 Bft) W 263 ° 0 min 0,000 mm 0,0 UV-I 7 W/m² 1,7 °C -1,2 °C 25,7 km/h (4 Bft)
09.12.2018 08:48 2,9 °C 93 % 1004,9 hPa 0,0 mm 18,1 km/h (3 Bft) W 270 ° 0 min 0,000 mm 0,0 UV-I 5 W/m² 1,9 °C -1,3 °C 29,0 km/h (5 Bft)
09.12.2018 08:49 2,9 °C 92 % 1004,9 hPa 0,0 mm 18,8 km/h (3 Bft) W-SW 254 ° 0 min 0,000 mm 0,0 UV-I 5 W/m² 1,7 °C -1,4 °C 30,6 km/h (5 Bft)
09.12.2018 08:50 3,0 °C 92 % 1004,9 hPa 0,0 mm 16,5 km/h (3 Bft) W-SW 250 ° 0 min 0,000 mm 0,0 UV-I 5 W/m² 1,8 °C -1,0 °C 29,0 km/h (5 Bft)
09.12.2018 08:51 3,1 °C 92 % 1004,9 hPa 0,0 mm 15,0 km/h (3 Bft) W 265 ° 0 min 0,000 mm 0,0 UV-I 5 W/m² 1,9 °C -0,6 °C 19,3 km/h (3 Bft)
09.12.2018 08:52 3,1 °C 92 % 1005,1 hPa 0,0 mm 20,3 km/h (4 Bft) W-NW 294 ° 0 min 0,000 mm 0,0 UV-I 5 W/m² 1,9 °C -1,4 °C 30,6 km/h (5 Bft)
09.12.2018 08:53 3,1 °C 92 % 1005,0 hPa 0,0 mm 17,9 km/h (3 Bft) W-SW 245 ° 0 min 0,000 mm 0,0 UV-I 5 W/m² 1,9 °C -1,0 °C 27,4 km/h (4 Bft)
09.12.2018 08:54 3,2 °C 92 % 1005,0 hPa 0,0 mm 9,0 km/h (2 Bft) SW 234 ° 0 min 0,000 mm 0,0 UV-I 5 W/m² 2,0 °C 0,8 °C 19,3 km/h (3 Bft)
09.12.2018 08:55 3,2 °C 92 % 1005,1 hPa 0,0 mm 15,6 km/h (3 Bft) W-SW 248 ° 0 min 0,000 mm 0,0 UV-I 5 W/m² 2,0 °C -0,6 °C 24,1 km/h (4 Bft)
09.12.2018 08:56 3,3 °C 92 % 1005,0 hPa 0,0 mm 13,5 km/h (3 Bft) W 259 ° 0 min 0,000 mm 0,0 UV-I 5 W/m² 2,1 °C -0,1 °C 20,9 km/h (4 Bft)
09.12.2018 08:57 3,3 °C 92 % 1005,2 hPa 0,0 mm 23,3 km/h (4 Bft) W 269 ° 0 min 0,000 mm 0,0 UV-I 5 W/m² 2,1 °C -1,5 °C 29,0 km/h (5 Bft)
09.12.2018 08:58 3,3 °C 92 % 1005,2 hPa 0,0 mm 19,2 km/h (3 Bft) W 259 ° 0 min 0,000 mm 0,0 UV-I 5 W/m² 2,1 °C -1,0 °C 32,2 km/h (5 Bft)
09.12.2018 08:59 3,4 °C 92 % 1005,2 hPa 0,0 mm 17,0 km/h (3 Bft) W-NW 284 ° 0 min 0,000 mm 0,0 UV-I 5 W/m² 2,2 °C -0,5 °C 25,7 km/h (4 Bft)
09.12.2018 09:00 3,4 °C 92 % 1005,3 hPa 0,0 mm 9,3 km/h (2 Bft) W-SW 254 ° 0 min 0,000 mm 0,0 UV-I 7 W/m² 2,2 °C 0,9 °C 11,3 km/h (2 Bft)
09.12.2018 09:01 3,4 °C 92 % 1005,2 hPa 0,0 mm 16,3 km/h (3 Bft) W-SW 239 ° 0 min 0,000 mm 0,0 UV-I 5 W/m² 2,2 °C -0,4 °C 22,5 km/h (4 Bft)
09.12.2018 09:02 3,4 °C 92 % 1005,2 hPa 0,0 mm 11,4 km/h (2 Bft) SW 232 ° 0 min 0,000 mm 0,0 UV-I 7 W/m² 2,2 °C 0,4 °C 19,3 km/h (3 Bft)
09.12.2018 09:03 3,5 °C 92 % 1005,1 hPa 0,0 mm 14,1 km/h (3 Bft) W-SW 239 ° 0 min 0,000 mm 0,0 UV-I 5 W/m² 2,3 °C 0,1 °C 22,5 km/h (4 Bft)
09.12.2018 09:04 3,6 °C 92 % 1005,1 hPa 0,0 mm 14,3 km/h (3 Bft) W 261 ° 0 min 0,000 mm 0,0 UV-I 5 W/m² 2,4 °C 0,1 °C 20,9 km/h (4 Bft)
09.12.2018 09:05 3,6 °C 92 % 1005,2 hPa 0,0 mm 16,6 km/h (3 Bft) W 270 ° 0 min 0,000 mm 0,0 UV-I 7 W/m² 2,4 °C -0,2 °C 27,4 km/h (4 Bft)
09.12.2018 09:06 3,6 °C 92 % 1005,3 hPa 0,0 mm 20,6 km/h (4 Bft) W 259 ° 0 min 0,000 mm 0,0 UV-I 9 W/m² 2,4 °C -0,8 °C 33,8 km/h (5 Bft)
09.12.2018 09:07 3,6 °C 92 % 1005,3 hPa 0,0 mm 17,9 km/h (3 Bft) S-SW 204 ° 0 min 0,000 mm 0,0 UV-I 11 W/m² 2,4 °C -0,4 °C 29,0 km/h (5 Bft)
09.12.2018 09:08 3,6 °C 92 % 1005,3 hPa 0,0 mm 13,3 km/h (3 Bft) W 277 ° 0 min 0,000 mm 0,0 UV-I 12 W/m² 2,4 °C 0,3 °C 17,7 km/h (3 Bft)
09.12.2018 09:09 3,6 °C 92 % 1005,4 hPa 0,0 mm 18,4 km/h (3 Bft) W 263 ° 0 min 0,000 mm 0,0 UV-I 12 W/m² 2,4 °C -0,5 °C 27,4 km/h (4 Bft)
09.12.2018 09:10 3,7 °C 92 % 1005,2 hPa 0,0 mm 20,7 km/h (4 Bft) W-NW 288 ° 0 min 0,000 mm 0,0 UV-I 14 W/m² 2,5 °C -0,7 °C 27,4 km/h (4 Bft)
09.12.2018 09:11 3,7 °C 91 % 1005,3 hPa 0,0 mm 13,3 km/h (3 Bft) SW 231 ° 0 min 0,000 mm 0,0 UV-I 12 W/m² 2,4 °C 0,4 °C 20,9 km/h (4 Bft)
09.12.2018 09:12 3,7 °C 92 % 1005,3 hPa 0,0 mm 12,0 km/h (2 Bft) W 268 ° 0 min 0,000 mm 0,0 UV-I 11 W/m² 2,5 °C 0,7 °C 14,5 km/h (3 Bft)
09.12.2018 09:13 3,7 °C 91 % 1005,3 hPa 0,0 mm 17,2 km/h (3 Bft) W-SW 250 ° 0 min 0,000 mm 0,0 UV-I 9 W/m² 2,4 °C -0,2 °C 22,5 km/h (4 Bft)
09.12.2018 09:14 3,7 °C 91 % 1005,4 hPa 0,0 mm 22,1 km/h (4 Bft) W 274 ° 0 min 0,000 mm 0,0 UV-I 9 W/m² 2,4 °C -0,8 °C 27,4 km/h (4 Bft)
09.12.2018 09:15 3,8 °C 91 % 1005,4 hPa 0,0 mm 19,2 km/h (3 Bft) W 263 ° 0 min 0,000 mm 0,0 UV-I 9 W/m² 2,5 °C -0,3 °C 24,1 km/h (4 Bft)
09.12.2018 09:16 3,8 °C 91 % 1005,2 hPa 0,0 mm 15,8 km/h (3 Bft) W 261 ° 0 min 0,000 mm 0,0 UV-I 11 W/m² 2,5 °C 0,1 °C 20,9 km/h (4 Bft)
09.12.2018 09:17 3,8 °C 91 % 1005,3 hPa 0,0 mm 13,6 km/h (3 Bft) W 277 ° 0 min 0,000 mm 0,0 UV-I 9 W/m² 2,5 °C 0,5 °C 19,3 km/h (3 Bft)
09.12.2018 09:18 3,8 °C 91 % 1005,5 hPa 0,0 mm 12,9 km/h (3 Bft) W 275 ° 0 min 0,000 mm 0,0 UV-I 9 W/m² 2,5 °C 0,6 °C 19,3 km/h (3 Bft)
09.12.2018 09:19 3,8 °C 91 % 1005,4 hPa 0,2 mm 15,9 km/h (3 Bft) W 278 ° 0 min 0,000 mm 0,0 UV-I 11 W/m² 2,5 °C 0,1 °C 20,9 km/h (4 Bft)
09.12.2018 09:20 3,8 °C 91 % 1005,4 hPa 0,0 mm 15,2 km/h (3 Bft) W-SW 256 ° 0 min 0,000 mm 0,0 UV-I 12 W/m² 2,5 °C 0,2 °C 24,1 km/h (4 Bft)
09.12.2018 09:21 3,8 °C 91 % 1005,6 hPa 0,0 mm 23,3 km/h (4 Bft) W-NW 285 ° 0 min 0,000 mm 0,0 UV-I 14 W/m² 2,5 °C -0,8 °C 33,8 km/h (5 Bft)
09.12.2018 09:22 3,8 °C 91 % 1005,5 hPa 0,0 mm 15,4 km/h (3 Bft) W 275 ° 0 min 0,000 mm 0,0 UV-I 18 W/m² 2,5 °C 0,2 °C 29,0 km/h (5 Bft)
09.12.2018 09:23 3,8 °C 91 % 1005,6 hPa 0,0 mm 22,7 km/h (4 Bft) W-SW 252 ° 0 min 0,000 mm 0,0 UV-I 16 W/m² 2,5 °C -0,8 °C 38,6 km/h (5 Bft)
09.12.2018 09:24 3,8 °C 91 % 1005,6 hPa 0,0 mm 22,5 km/h (4 Bft) W 265 ° 0 min 0,000 mm 0,0 UV-I 14 W/m² 2,5 °C -0,8 °C 38,6 km/h (5 Bft)
09.12.2018 09:25 3,8 °C 91 % 1005,6 hPa 0,0 mm 19,3 km/h (3 Bft) W 277 ° 0 min 0,000 mm 0,0 UV-I 14 W/m² 2,5 °C -0,4 °C 32,2 km/h (5 Bft)
09.12.2018 09:26 3,8 °C 91 % 1005,5 hPa 0,0 mm 16,2 km/h (3 Bft) W 278 ° 0 min 0,000 mm 0,0 UV-I 14 W/m² 2,5 °C 0,1 °C 22,5 km/h (4 Bft)
09.12.2018 09:27 3,8 °C 91 % 1005,5 hPa 0,0 mm 21,5 km/h (4 Bft) W-SW 250 ° 0 min 0,000 mm 0,0 UV-I 14 W/m² 2,5 °C -0,6 °C 29,0 km/h (5 Bft)
09.12.2018 09:28 3,7 °C 91 % 1005,5 hPa 0,0 mm 15,0 km/h (3 Bft) W-SW 252 ° 0 min 0,000 mm 0,0 UV-I 14 W/m² 2,4 °C 0,1 °C 22,5 km/h (4 Bft)
09.12.2018 09:29 3,7 °C 91 % 1005,5 hPa 0,0 mm 14,1 km/h (3 Bft) SW 225 ° 0 min 0,000 mm 0,0 UV-I 12 W/m² 2,4 °C 0,3 °C 22,5 km/h (4 Bft)
09.12.2018 09:30 3,7 °C 91 % 1005,5 hPa 0,0 mm 14,1 km/h (3 Bft) W 279 ° 0 min 0,000 mm 0,0 UV-I 12 W/m² 2,4 °C 0,3 °C 22,5 km/h (4 Bft)
09.12.2018 09:31 3,7 °C 90 % 1005,6 hPa 0,0 mm 19,4 km/h (3 Bft) W 274 ° 0 min 0,000 mm 0,0 UV-I 11 W/m² 2,2 °C -0,5 °C 32,2 km/h (5 Bft)
09.12.2018 09:32 3,7 °C 91 % 1005,5 hPa 0,0 mm 19,8 km/h (3 Bft) W 269 ° 0 min 0,000 mm 0,0 UV-I 11 W/m² 2,4 °C -0,5 °C 24,1 km/h (4 Bft)
09.12.2018 09:33 3,7 °C 91 % 1005,6 hPa 0,0 mm 21,1 km/h (4 Bft) W 270 ° 0 min 0,000 mm 0,0 UV-I 12 W/m² 2,4 °C -0,7 °C 29,0 km/h (5 Bft)
09.12.2018 09:34 3,7 °C 91 % 1005,6 hPa 0,0 mm 15,0 km/h (3 Bft) W-SW 239 ° 0 min 0,000 mm 0,0 UV-I 12 W/m² 2,4 °C 0,1 °C 19,3 km/h (3 Bft)
09.12.2018 09:35 3,7 °C 91 % 1005,6 hPa 0,0 mm 15,9 km/h (3 Bft) W-SW 256 ° 0 min 0,000 mm 0,0 UV-I 14 W/m² 2,4 °C 0,0 °C 22,5 km/h (4 Bft)
09.12.2018 09:36 3,7 °C 91 % 1005,6 hPa 0,2 mm 14,9 km/h (3 Bft) W-SW 243 ° 0 min 0,000 mm 0,0 UV-I 16 W/m² 2,4 °C 0,2 °C 22,5 km/h (4 Bft)
09.12.2018 09:37 3,7 °C 90 % 1005,6 hPa 0,0 mm 14,0 km/h (3 Bft) W 263 ° 0 min 0,000 mm 0,0 UV-I 14 W/m² 2,2 °C 0,3 °C 19,3 km/h (3 Bft)
09.12.2018 09:38 3,7 °C 90 % 1005,7 hPa 0,0 mm 14,2 km/h (3 Bft) W-SW 246 ° 0 min 0,000 mm 0,0 UV-I 12 W/m² 2,2 °C 0,3 °C 20,9 km/h (4 Bft)
09.12.2018 09:39 3,7 °C 90 % 1005,8 hPa 0,0 mm 20,0 km/h (4 Bft) W 275 ° 0 min 0,000 mm 0,0 UV-I 12 W/m² 2,2 °C -0,6 °C 30,6 km/h (5 Bft)
09.12.2018 09:40 3,6 °C 90 % 1005,9 hPa 0,0 mm 24,4 km/h (4 Bft) W 267 ° 0 min 0,000 mm 0,0 UV-I 11 W/m² 2,1 °C -1,2 °C 33,8 km/h (5 Bft)
09.12.2018 09:41 3,6 °C 90 % 1005,9 hPa 0,2 mm 19,0 km/h (3 Bft) W 271 ° 0 min 0,000 mm 0,0 UV-I 11 W/m² 2,1 °C -0,6 °C 27,4 km/h (4 Bft)
09.12.2018 09:42 3,6 °C 90 % 1006,0 hPa 0,0 mm 11,9 km/h (2 Bft) W 281 ° 0 min 0,000 mm 0,0 UV-I 11 W/m² 2,1 °C 0,6 °C 17,7 km/h (3 Bft)
09.12.2018 09:43 3,6 °C 90 % 1005,9 hPa 0,0 mm 9,0 km/h (2 Bft) W 263 ° 0 min 0,000 mm 0,0 UV-I 9 W/m² 2,1 °C 1,2 °C 14,5 km/h (3 Bft)
09.12.2018 09:44 3,6 °C 90 % 1006,0 hPa 0,0 mm 14,6 km/h (3 Bft) W-NW 295 ° 0 min 0,000 mm 0,0 UV-I 7 W/m² 2,1 °C 0,1 °C 20,9 km/h (4 Bft)
09.12.2018 09:45 3,6 °C 90 % 1006,0 hPa 0,0 mm 14,2 km/h (3 Bft) W 281 ° 0 min 0,000 mm 0,0 UV-I 7 W/m² 2,1 °C 0,2 °C 17,7 km/h (3 Bft)
09.12.2018 09:46 3,5 °C 90 % 1006,1 hPa 0,0 mm 10,3 km/h (2 Bft) W-NW 292 ° 0 min 0,000 mm 0,0 UV-I 5 W/m² 2,0 °C 0,8 °C 16,1 km/h (3 Bft)
09.12.2018 09:47 3,5 °C 90 % 1006,1 hPa 0,0 mm 9,1 km/h (2 Bft) W 267 ° 0 min 0,000 mm 0,0 UV-I 7 W/m² 2,0 °C 1,1 °C 14,5 km/h (3 Bft)
09.12.2018 09:48 3,5 °C 91 % 1006,0 hPa 0,0 mm 4,2 km/h (1 Bft) W-NW 295 ° 0 min 0,000 mm 0,0 UV-I 7 W/m² 2,2 °C 3,5 °C 8,0 km/h (2 Bft)
09.12.2018 09:49 3,5 °C 91 % 1006,0 hPa 0,0 mm 10,1 km/h (2 Bft) W 274 ° 0 min 0,000 mm 0,0 UV-I 7 W/m² 2,2 °C 0,8 °C 14,5 km/h (3 Bft)
09.12.2018 09:50 3,5 °C 91 % 1006,1 hPa 0,0 mm 11,0 km/h (2 Bft) W-SW 257 ° 0 min 0,000 mm 0,0 UV-I 7 W/m² 2,2 °C 0,6 °C 12,9 km/h (3 Bft)
09.12.2018 09:51 3,4 °C 91 % 1006,2 hPa 0,0 mm 13,2 km/h (3 Bft) W 275 ° 0 min 0,000 mm 0,0 UV-I 5 W/m² 2,1 °C 0,1 °C 17,7 km/h (3 Bft)
09.12.2018 09:52 3,4 °C 91 % 1006,1 hPa 0,0 mm 7,0 km/h (2 Bft) W 259 ° 0 min 0,000 mm 0,0 UV-I 7 W/m² 2,1 °C 1,6 °C 9,7 km/h (2 Bft)
09.12.2018 09:53 3,4 °C 91 % 1006,2 hPa 0,0 mm 11,1 km/h (2 Bft) W 273 ° 0 min 0,000 mm 0,0 UV-I 7 W/m² 2,1 °C 0,5 °C 16,1 km/h (3 Bft)
09.12.2018 09:54 3,4 °C 91 % 1006,2 hPa 0,0 mm 7,7 km/h (2 Bft) W-SW 246 ° 0 min 0,000 mm 0,0 UV-I 5 W/m² 2,1 °C 1,3 °C 11,3 km/h (2 Bft)
09.12.2018 09:55 3,4 °C 91 % 1006,3 hPa 0,0 mm 15,2 km/h (3 Bft) W-SW 255 ° 0 min 0,000 mm 0,0 UV-I 7 W/m² 2,1 °C -0,3 °C 19,3 km/h (3 Bft)
09.12.2018 09:56 3,4 °C 91 % 1006,3 hPa 0,0 mm 20,0 km/h (4 Bft) W 271 ° 0 min 0,000 mm 0,0 UV-I 7 W/m² 2,1 °C -1,0 °C 27,4 km/h (4 Bft)
09.12.2018 09:57 3,4 °C 91 % 1006,4 hPa 0,2 mm 13,5 km/h (3 Bft) W-SW 249 ° 0 min 0,000 mm 0,0 UV-I 7 W/m² 2,1 °C 0,0 °C 22,5 km/h (4 Bft)
09.12.2018 09:58 3,4 °C 91 % 1006,4 hPa 0,0 mm 15,6 km/h (3 Bft) W 281 ° 0 min 0,000 mm 0,0 UV-I 7 W/m² 2,1 °C -0,3 °C 22,5 km/h (4 Bft)
09.12.2018 09:59 3,4 °C 91 % 1006,6 hPa 0,0 mm 18,6 km/h (3 Bft) W-NW 303 ° 0 min 0,000 mm 0,0 UV-I 5 W/m² 2,1 °C -0,8 °C 24,1 km/h (4 Bft)
09.12.2018 10:00 3,4 °C 91 % 1006,5 hPa 0,0 mm 14,0 km/h (3 Bft) W-SW 257 ° 0 min 0,000 mm 0,0 UV-I 7 W/m² 2,1 °C -0,1 °C 19,3 km/h (3 Bft)
09.12.2018 10:01 3,4 °C 91 % 1006,5 hPa 0,0 mm 12,3 km/h (3 Bft) W-SW 258 ° 0 min 0,025 mm 0,0 UV-I 7 W/m² 2,1 °C 0,3 °C 16,1 km/h (3 Bft)
09.12.2018 10:02 3,4 °C 91 % 1006,5 hPa 0,0 mm 15,7 km/h (3 Bft) W-SW 254 ° 0 min 0,000 mm 0,0 UV-I 5 W/m² 2,1 °C -0,3 °C 19,3 km/h (3 Bft)
09.12.2018 10:03 3,4 °C 91 % 1006,6 hPa 0,0 mm 14,3 km/h (3 Bft) W 263 ° 0 min 0,000 mm 0,0 UV-I 7 W/m² 2,1 °C -0,1 °C 29,0 km/h (5 Bft)
09.12.2018 10:04 3,4 °C 91 % 1006,5 hPa 0,0 mm 26,3 km/h (4 Bft) W-SW 253 ° 0 min 0,000 mm 0,0 UV-I 7 W/m² 2,1 °C -1,7 °C 40,2 km/h (6 Bft)
09.12.2018 10:05 3,3 °C 91 % 1006,7 hPa 0,0 mm 20,5 km/h (4 Bft) W 263 ° 0 min 0,000 mm 0,0 UV-I 7 W/m² 2,0 °C -1,1 °C 33,8 km/h (5 Bft)
09.12.2018 10:06 3,3 °C 91 % 1006,7 hPa 0,0 mm 16,4 km/h (3 Bft) W-NW 283 ° 0 min 0,000 mm 0,0 UV-I 7 W/m² 2,0 °C -0,6 °C 24,1 km/h (4 Bft)
09.12.2018 10:07 3,3 °C 91 % 1006,8 hPa 0,2 mm 15,4 km/h (3 Bft) W-SW 237 ° 0 min 0,000 mm 0,0 UV-I 9 W/m² 2,0 °C -0,4 °C 25,7 km/h (4 Bft)
09.12.2018 10:08 3,3 °C 91 % 1006,9 hPa 0,0 mm 13,4 km/h (3 Bft) W 260 ° 0 min 0,000 mm 0,0 UV-I 12 W/m² 2,0 °C -0,1 °C 16,1 km/h (3 Bft)
09.12.2018 10:09 3,3 °C 91 % 1006,8 hPa 0,0 mm 16,9 km/h (3 Bft) W-SW 245 ° 0 min 0,000 mm 0,0 UV-I 14 W/m² 2,0 °C -0,6 °C 32,2 km/h (5 Bft)
09.12.2018 10:10 3,3 °C 91 % 1007,1 hPa 0,0 mm 25,8 km/h (4 Bft) W-NW 286 ° 0 min 0,000 mm 0,0 UV-I 16 W/m² 2,0 °C -1,8 °C 40,2 km/h (6 Bft)
09.12.2018 10:11 3,3 °C 90 % 1006,9 hPa 0,0 mm 21,3 km/h (4 Bft) NW 326 ° 0 min 0,000 mm 0,0 UV-I 12 W/m² 1,8 °C -1,2 °C 41,8 km/h (6 Bft)
09.12.2018 10:12 3,3 °C 90 % 1007,1 hPa 0,2 mm 26,2 km/h (4 Bft) W 262 ° 0 min 0,000 mm 0,0 UV-I 11 W/m² 1,8 °C -1,8 °C 49,9 km/h (6 Bft)
09.12.2018 10:13 3,3 °C 90 % 1007,0 hPa 0,0 mm 29,8 km/h (5 Bft) W 265 ° 0 min 0,000 mm 0,0 UV-I 9 W/m² 1,8 °C -2,1 °C 38,6 km/h (5 Bft)
09.12.2018 10:14 3,3 °C 90 % 1007,1 hPa 0,0 mm 18,0 km/h (3 Bft) W 269 ° 0 min 0,000 mm 0,0 UV-I 9 W/m² 1,8 °C -0,8 °C 29,0 km/h (5 Bft)
09.12.2018 10:15 3,3 °C 90 % 1007,1 hPa 0,0 mm 23,1 km/h (4 Bft) W 275 ° 0 min 0,000 mm 0,0 UV-I 7 W/m² 1,8 °C -1,5 °C 37,0 km/h (5 Bft)
09.12.2018 10:16 3,3 °C 90 % 1007,1 hPa 0,0 mm 13,0 km/h (3 Bft) W 263 ° 0 min 0,000 mm 0,0 UV-I 5 W/m² 1,8 °C 0,0 °C 19,3 km/h (3 Bft)
09.12.2018 10:17 3,3 °C 90 % 1007,2 hPa 0,0 mm 12,3 km/h (3 Bft) W-NW 286 ° 0 min 0,000 mm 0,0 UV-I 0 W/m² 1,8 °C 0,1 °C 17,7 km/h (3 Bft)
09.12.2018 10:18 3,3 °C 90 % 1007,2 hPa 0,0 mm 14,7 km/h (3 Bft) NW 304 ° 0 min 0,000 mm 0,0 UV-I 0 W/m² 1,8 °C -0,3 °C 20,9 km/h (4 Bft)
09.12.2018 10:19 3,3 °C 90 % 1007,2 hPa 0,2 mm 15,9 km/h (3 Bft) W-NW 284 ° 0 min 0,000 mm 0,0 UV-I 5 W/m² 1,8 °C -0,5 °C 24,1 km/h (4 Bft)
09.12.2018 10:20 3,3 °C 90 % 1007,2 hPa 0,0 mm 17,3 km/h (3 Bft) N-NW 327 ° 0 min 0,000 mm 0,0 UV-I 5 W/m² 1,8 °C -0,7 °C 25,7 km/h (4 Bft)
09.12.2018 10:21 3,2 °C 90 % 1007,3 hPa 0,0 mm 16,7 km/h (3 Bft) NW 318 ° 0 min 0,000 mm 0,0 UV-I 7 W/m² 1,7 °C -0,7 °C 22,5 km/h (4 Bft)
09.12.2018 10:22 3,2 °C 90 % 1007,4 hPa 0,0 mm 14,8 km/h (3 Bft) W 267 ° 0 min 0,000 mm 0,0 UV-I 9 W/m² 1,7 °C -0,4 °C 24,1 km/h (4 Bft)
09.12.2018 10:23 3,1 °C 90 % 1007,3 hPa 0,2 mm 21,2 km/h (4 Bft) W-NW 286 ° 0 min 0,000 mm 0,0 UV-I 11 W/m² 1,6 °C -1,5 °C 30,6 km/h (5 Bft)
09.12.2018 10:24 3,1 °C 90 % 1007,3 hPa 0,0 mm 18,5 km/h (3 Bft) W 280 ° 0 min 0,000 mm 0,0 UV-I 11 W/m² 1,6 °C -1,1 °C 27,4 km/h (4 Bft)
09.12.2018 10:25 3,0 °C 90 % 1007,3 hPa 0,0 mm 17,6 km/h (3 Bft) W-NW 294 ° 0 min 0,000 mm 0,0 UV-I 9 W/m² 1,5 °C -1,1 °C 24,1 km/h (4 Bft)
09.12.2018 10:26 2,9 °C 90 % 1007,4 hPa 0,2 mm 11,7 km/h (2 Bft) W-NW 283 ° 0 min 0,000 mm 0,0 UV-I 7 W/m² 1,4 °C -0,2 °C 17,7 km/h (3 Bft)
09.12.2018 10:27 2,9 °C 90 % 1007,3 hPa 0,0 mm 16,9 km/h (3 Bft) W-NW 301 ° 0 min 0,000 mm 0,0 UV-I 11 W/m² 1,4 °C -1,1 °C 30,6 km/h (5 Bft)
09.12.2018 10:28 2,8 °C 90 % 1007,4 hPa 0,0 mm 8,4 km/h (2 Bft) W-NW 292 ° 0 min 0,000 mm 0,0 UV-I 12 W/m² 1,3 °C 0,4 °C 12,9 km/h (3 Bft)
09.12.2018 10:29 2,8 °C 90 % 1007,3 hPa 0,0 mm 13,6 km/h (3 Bft) W 281 ° 0 min 0,000 mm 0,0 UV-I 14 W/m² 1,3 °C -0,7 °C 27,4 km/h (4 Bft)
09.12.2018 10:30 2,7 °C 90 % 1007,5 hPa 0,2 mm 14,1 km/h (3 Bft) W 271 ° 0 min 0,000 mm 0,0 UV-I 16 W/m² 1,2 °C -0,9 °C 27,4 km/h (4 Bft)
09.12.2018 10:31 2,7 °C 90 % 1007,3 hPa 0,0 mm 13,8 km/h (3 Bft) W 279 ° 0 min 0,000 mm 0,0 UV-I 18 W/m² 1,2 °C -0,9 °C 17,7 km/h (3 Bft)
09.12.2018 10:32 2,6 °C 90 % 1007,5 hPa 0,0 mm 12,4 km/h (3 Bft) W 269 ° 0 min 0,000 mm 0,0 UV-I 19 W/m² 1,1 °C -0,7 °C 17,7 km/h (3 Bft)
09.12.2018 10:33 2,6 °C 90 % 1007,5 hPa 0,2 mm 15,2 km/h (3 Bft) W-SW 258 ° 0 min 0,000 mm 0,0 UV-I 26 W/m² 1,1 °C -1,2 °C 20,9 km/h (4 Bft)
09.12.2018 10:34 2,6 °C 90 % 1007,4 hPa 0,0 mm 13,8 km/h (3 Bft) W 270 ° 0 min 0,000 mm 0,0 UV-I 28 W/m² 1,1 °C -1,0 °C 24,1 km/h (4 Bft)
09.12.2018 10:35 2,5 °C 90 % 1007,5 hPa 0,0 mm 12,3 km/h (3 Bft) W 259 ° 0 min 0,000 mm 0,0 UV-I 23 W/m² 1,0 °C -0,8 °C 17,7 km/h (3 Bft)
09.12.2018 10:36 2,5 °C 91 % 1007,5 hPa 0,0 mm 11,9 km/h (2 Bft) NW 315 ° 0 min 0,000 mm 0,0 UV-I 18 W/m² 1,2 °C -0,8 °C 20,9 km/h (4 Bft)
09.12.2018 10:37 2,4 °C 91 % 1007,5 hPa 0,0 mm 7,5 km/h (2 Bft) W 275 ° 0 min 0,000 mm 0,0 UV-I 19 W/m² 1,1 °C 0,2 °C 12,9 km/h (3 Bft)
09.12.2018 10:38 2,4 °C 91 % 1007,5 hPa 0,0 mm 14,7 km/h (3 Bft) W-NW 285 ° 0 min 0,000 mm 0,0 UV-I 28 W/m² 1,1 °C -1,4 °C 24,1 km/h (4 Bft)
09.12.2018 10:39 2,4 °C 91 % 1007,5 hPa 0,0 mm 11,2 km/h (2 Bft) NW 306 ° 0 min 0,000 mm 0,0 UV-I 25 W/m² 1,1 °C -0,7 °C 14,5 km/h (3 Bft)
09.12.2018 10:40 2,4 °C 91 % 1007,5 hPa 0,0 mm 6,5 km/h (2 Bft) W-NW 300 ° 0 min 0,000 mm 0,0 UV-I 28 W/m² 1,1 °C 0,6 °C 11,3 km/h (2 Bft)
09.12.2018 10:41 2,5 °C 91 % 1007,5 hPa 0,0 mm 5,9 km/h (2 Bft) W-NW 286 ° 0 min 0,000 mm 0,0 UV-I 37 W/m² 1,2 °C 0,9 °C 11,3 km/h (2 Bft)
09.12.2018 10:42 2,5 °C 91 % 1007,5 hPa 0,0 mm 7,0 km/h (2 Bft) W 277 ° 0 min 0,000 mm 0,0 UV-I 39 W/m² 1,2 °C 0,5 °C 11,3 km/h (2 Bft)
09.12.2018 10:43 2,5 °C 91 % 1007,5 hPa 0,0 mm 5,8 km/h (2 Bft) W 261 ° 0 min 0,000 mm 0,0 UV-I 37 W/m² 1,2 °C 0,9 °C 9,7 km/h (2 Bft)
09.12.2018 10:44 2,5 °C 91 % 1007,5 hPa 0,0 mm 10,0 km/h (2 Bft) W-SW 240 ° 0 min 0,000 mm 0,0 UV-I 49 W/m² 1,2 °C -0,3 °C 19,3 km/h (3 Bft)
09.12.2018 10:45 2,6 °C 91 % 1007,4 hPa 0,0 mm 10,5 km/h (2 Bft) W 271 ° 0 min 0,000 mm 0,0 UV-I 51 W/m² 1,3 °C -0,3 °C 14,5 km/h (3 Bft)
09.12.2018 10:46 2,6 °C 92 % 1007,4 hPa 0,0 mm 9,9 km/h (2 Bft) W-SW 258 ° 0 min 0,000 mm 0,0 UV-I 46 W/m² 1,4 °C -0,2 °C 16,1 km/h (3 Bft)
09.12.2018 10:47 2,7 °C 92 % 1007,5 hPa 0,0 mm 7,3 km/h (2 Bft) W 263 ° 0 min 0,000 mm 0,0 UV-I 44 W/m² 1,5 °C 0,6 °C 11,3 km/h (2 Bft)
09.12.2018 10:48 2,7 °C 92 % 1007,5 hPa 0,0 mm 12,1 km/h (2 Bft) W 266 ° 0 min 0,000 mm 0,0 UV-I 42 W/m² 1,5 °C -0,6 °C 19,3 km/h (3 Bft)
09.12.2018 10:49 2,7 °C 92 % 1007,5 hPa 0,0 mm 15,1 km/h (3 Bft) SW 231 ° 0 min 0,000 mm 0,0 UV-I 39 W/m² 1,5 °C -1,1 °C 19,3 km/h (3 Bft)
09.12.2018 10:50 2,7 °C 92 % 1007,6 hPa 0,0 mm 16,1 km/h (3 Bft) W-NW 301 ° 0 min 0,000 mm 0,0 UV-I 32 W/m² 1,5 °C -1,3 °C 22,5 km/h (4 Bft)
09.12.2018 10:51 2,8 °C 92 % 1007,5 hPa 0,0 mm 15,9 km/h (3 Bft) W-SW 257 ° 0 min 0,000 mm 0,0 UV-I 30 W/m² 1,6 °C -1,1 °C 22,5 km/h (4 Bft)
09.12.2018 10:52 2,8 °C 92 % 1007,7 hPa 0,0 mm 21,6 km/h (4 Bft) W-SW 237 ° 0 min 0,000 mm 0,0 UV-I 32 W/m² 1,6 °C -1,9 °C 29,0 km/h (5 Bft)
09.12.2018 10:53 2,8 °C 92 % 1007,5 hPa 0,0 mm 12,3 km/h (3 Bft) W-NW 294 ° 0 min 0,000 mm 0,0 UV-I 40 W/m² 1,6 °C -0,5 °C 30,6 km/h (5 Bft)
09.12.2018 10:54 2,9 °C 92 % 1007,5 hPa 0,0 mm 23,8 km/h (4 Bft) SW 235 ° 0 min 0,000 mm 0,0 UV-I 56 W/m² 1,7 °C -2,0 °C 30,6 km/h (5 Bft)
09.12.2018 10:55 2,9 °C 92 % 1007,7 hPa 0,0 mm 26,0 km/h (4 Bft) NW 313 ° 0 min 0,000 mm 0,0 UV-I 67 W/m² 1,7 °C -2,3 °C 40,2 km/h (6 Bft)
09.12.2018 10:56 3,0 °C 92 % 1007,3 hPa 0,2 mm 28,4 km/h (4 Bft) W 275 ° 0 min 0,000 mm 0,0 UV-I 65 W/m² 1,8 °C -2,4 °C 40,2 km/h (6 Bft)
09.12.2018 10:57 3,0 °C 92 % 1007,2 hPa 0,0 mm 28,2 km/h (4 Bft) SW 232 ° 0 min 0,000 mm 0,0 UV-I 53 W/m² 1,8 °C -2,4 °C 46,7 km/h (6 Bft)
09.12.2018 10:58 3,1 °C 92 % 1007,5 hPa 0,0 mm 16,6 km/h (3 Bft) W 274 ° 0 min 0,000 mm 0,0 UV-I 49 W/m² 1,9 °C -0,8 °C 24,1 km/h (4 Bft)
09.12.2018 10:59 3,1 °C 92 % 1007,5 hPa 0,0 mm 19,4 km/h (3 Bft) S-SW 211 ° 0 min 0,000 mm 0,0 UV-I 46 W/m² 1,9 °C -1,3 °C 30,6 km/h (5 Bft)
09.12.2018 11:00 3,1 °C 92 % 1007,4 hPa 0,0 mm 16,6 km/h (3 Bft) W 266 ° 0 min 0,000 mm 0,0 UV-I 35 W/m² 1,9 °C -0,8 °C 24,1 km/h (4 Bft)
09.12.2018 11:01 3,1 °C 92 % 1007,3 hPa 0,0 mm 12,0 km/h (2 Bft) W 260 ° 0 min 0,026 mm 0,0 UV-I 25 W/m² 1,9 °C -0,0 °C 20,9 km/h (4 Bft)
09.12.2018 11:02 3,2 °C 92 % 1007,4 hPa 0,0 mm 14,3 km/h (3 Bft) W 271 ° 0 min 0,000 mm 0,0 UV-I 33 W/m² 2,0 °C -0,4 °C 19,3 km/h (3 Bft)
09.12.2018 11:03 3,2 °C 91 % 1007,4 hPa 0,0 mm 21,5 km/h (4 Bft) W-SW 238 ° 0 min 0,000 mm 0,0 UV-I 49 W/m² 1,9 °C -1,4 °C 30,6 km/h (5 Bft)
09.12.2018 11:04 3,2 °C 91 % 1007,3 hPa 0,0 mm 20,1 km/h (4 Bft) NW 304 ° 0 min 0,000 mm 0,5 UV-I 70 W/m² 1,9 °C -1,2 °C 25,7 km/h (4 Bft)
09.12.2018 11:05 3,2 °C 91 % 1007,3 hPa 0,0 mm 28,6 km/h (4 Bft) W 279 ° 0 min 0,000 mm 0,0 UV-I 69 W/m² 1,9 °C -2,2 °C 41,8 km/h (6 Bft)
09.12.2018 11:06 3,2 °C 91 % 1007,2 hPa 0,0 mm 20,7 km/h (4 Bft) W-SW 254 ° 0 min 0,000 mm 0,0 UV-I 63 W/m² 1,9 °C -1,3 °C 29,0 km/h (5 Bft)
09.12.2018 11:07 3,2 °C 91 % 1007,3 hPa 0,0 mm 16,9 km/h (3 Bft) SW 231 ° 0 min 0,000 mm 0,0 UV-I 62 W/m² 1,9 °C -0,8 °C 22,5 km/h (4 Bft)
09.12.2018 11:08 3,2 °C 91 % 1007,3 hPa 0,0 mm 7,8 km/h (2 Bft) W 261 ° 0 min 0,000 mm 0,0 UV-I 58 W/m² 1,9 °C 1,1 °C 14,5 km/h (3 Bft)
09.12.2018 11:09 3,3 °C 91 % 1007,2 hPa 0,0 mm 11,8 km/h (2 Bft) W 273 ° 0 min 0,000 mm 0,0 UV-I 60 W/m² 2,0 °C 0,2 °C 16,1 km/h (3 Bft)
09.12.2018 11:10 3,3 °C 91 % 1007,1 hPa 0,0 mm 26,6 km/h (4 Bft) W 263 ° 0 min 0,000 mm 0,0 UV-I 65 W/m² 2,0 °C -1,8 °C 45,1 km/h (6 Bft)
09.12.2018 11:11 3,3 °C 91 % 1007,2 hPa 0,0 mm 26,4 km/h (4 Bft) S-SW 192 ° 0 min 0,000 mm 0,0 UV-I 69 W/m² 2,0 °C -1,8 °C 40,2 km/h (6 Bft)
09.12.2018 11:12 3,3 °C 90 % 1007,1 hPa 0,0 mm 22,5 km/h (4 Bft) SW 223 ° 0 min 0,000 mm 0,0 UV-I 60 W/m² 1,8 °C -1,4 °C 27,4 km/h (4 Bft)
09.12.2018 11:13 3,3 °C 90 % 1007,3 hPa 0,0 mm 21,0 km/h (4 Bft) NW 311 ° 0 min 0,000 mm 0,0 UV-I 53 W/m² 1,8 °C -1,2 °C 33,8 km/h (5 Bft)
09.12.2018 11:14 3,4 °C 90 % 1007,2 hPa 0,0 mm 22,8 km/h (4 Bft) W 271 ° 0 min 0,000 mm 0,0 UV-I 46 W/m² 1,9 °C -1,3 °C 30,6 km/h (5 Bft)
09.12.2018 11:15 3,4 °C 90 % 1007,2 hPa 0,0 mm 13,3 km/h (3 Bft) SW 236 ° 0 min 0,000 mm 0,0 UV-I 56 W/m² 1,9 °C 0,1 °C 20,9 km/h (4 Bft)
09.12.2018 11:16 3,4 °C 90 % 1007,2 hPa 0,0 mm 11,4 km/h (2 Bft) W 269 ° 0 min 0,000 mm 0,5 UV-I 76 W/m² 1,9 °C 0,4 °C 17,7 km/h (3 Bft)
09.12.2018 11:17 3,5 °C 90 % 1007,4 hPa 0,0 mm 21,5 km/h (4 Bft) W 274 ° 0 min 0,000 mm 0,5 UV-I 77 W/m² 2,0 °C -1,0 °C 27,4 km/h (4 Bft)
09.12.2018 11:18 3,5 °C 90 % 1007,3 hPa 0,0 mm 21,1 km/h (4 Bft) SW 236 ° 0 min 0,000 mm 0,0 UV-I 67 W/m² 2,0 °C -1,0 °C 35,4 km/h (5 Bft)
09.12.2018 11:19 3,5 °C 90 % 1007,2 hPa 0,0 mm 13,7 km/h (3 Bft) W-SW 254 ° 0 min 0,000 mm 0,0 UV-I 62 W/m² 2,0 °C 0,1 °C 19,3 km/h (3 Bft)
09.12.2018 11:20 3,6 °C 90 % 1007,2 hPa 0,0 mm 21,9 km/h (4 Bft) W 276 ° 0 min 0,000 mm 0,5 UV-I 72 W/m² 2,1 °C -0,9 °C 32,2 km/h (5 Bft)
09.12.2018 11:21 3,6 °C 90 % 1007,1 hPa 0,0 mm 16,9 km/h (3 Bft) W 262 ° 0 min 0,000 mm 0,5 UV-I 72 W/m² 2,1 °C -0,3 °C 25,7 km/h (4 Bft)
09.12.2018 11:22 3,6 °C 90 % 1007,1 hPa 0,0 mm 15,6 km/h (3 Bft) W 261 ° 0 min 0,000 mm 0,5 UV-I 76 W/m² 2,1 °C -0,1 °C 20,9 km/h (4 Bft)
09.12.2018 11:23 3,6 °C 90 % 1007,1 hPa 0,0 mm 14,4 km/h (3 Bft) W 281 ° 0 min 0,000 mm 0,0 UV-I 70 W/m² 2,1 °C 0,1 °C 22,5 km/h (4 Bft)
09.12.2018 11:24 3,6 °C 90 % 1007,1 hPa 0,0 mm 13,6 km/h (3 Bft) W-NW 302 ° 0 min 0,000 mm 0,0 UV-I 62 W/m² 2,1 °C 0,3 °C 17,7 km/h (3 Bft)
09.12.2018 11:25 3,6 °C 90 % 1007,1 hPa 0,0 mm 15,5 km/h (3 Bft) W 271 ° 0 min 0,000 mm 0,0 UV-I 58 W/m² 2,1 °C -0,1 °C 22,5 km/h (4 Bft)
09.12.2018 11:26 3,6 °C 89 % 1007,1 hPa 0,0 mm 19,4 km/h (3 Bft) W 265 ° 0 min 0,000 mm 0,0 UV-I 60 W/m² 2,0 °C -0,6 °C 27,4 km/h (4 Bft)
09.12.2018 11:27 3,6 °C 89 % 1007,1 hPa 0,0 mm 14,1 km/h (3 Bft) W 275 ° 0 min 0,000 mm 0,0 UV-I 56 W/m² 2,0 °C 0,2 °C 19,3 km/h (3 Bft)
09.12.2018 11:28 3,6 °C 89 % 1007,1 hPa 0,0 mm 16,5 km/h (3 Bft) W 273 ° 0 min 0,000 mm 0,0 UV-I 54 W/m² 2,0 °C -0,2 °C 27,4 km/h (4 Bft)
09.12.2018 11:29 3,6 °C 89 % 1006,9 hPa 0,0 mm 17,9 km/h (3 Bft) W 269 ° 0 min 0,000 mm 0,0 UV-I 53 W/m² 2,0 °C -0,4 °C 25,7 km/h (4 Bft)
09.12.2018 11:30 3,6 °C 89 % 1007,0 hPa 0,0 mm 20,1 km/h (4 Bft) W-SW 247 ° 0 min 0,000 mm 0,0 UV-I 58 W/m² 2,0 °C -0,7 °C 30,6 km/h (5 Bft)
09.12.2018 11:31 3,6 °C 89 % 1007,0 hPa 0,0 mm 16,0 km/h (3 Bft) W 277 ° 0 min 0,000 mm 0,5 UV-I 70 W/m² 2,0 °C -0,1 °C 20,9 km/h (4 Bft)
09.12.2018 11:32 3,6 °C 89 % 1007,0 hPa 0,0 mm 17,3 km/h (3 Bft) W-SW 242 ° 0 min 0,000 mm 0,5 UV-I 70 W/m² 2,0 °C -0,3 °C 22,5 km/h (4 Bft)
09.12.2018 11:33 3,7 °C 89 % 1007,0 hPa 0,0 mm 18,3 km/h (3 Bft) S-SW 206 ° 0 min 0,000 mm 0,0 UV-I 63 W/m² 2,1 °C -0,3 °C 32,2 km/h (5 Bft)
09.12.2018 11:34 3,7 °C 89 % 1007,0 hPa 0,0 mm 15,7 km/h (3 Bft) W-NW 300 ° 0 min 0,000 mm 0,0 UV-I 60 W/m² 2,1 °C 0,0 °C 20,9 km/h (4 Bft)
09.12.2018 11:35 3,7 °C 89 % 1007,1 hPa 0,0 mm 31,3 km/h (5 Bft) W-SW 247 ° 0 min 0,000 mm 0,0 UV-I 58 W/m² 2,1 °C -1,8 °C 53,1 km/h (7 Bft)
09.12.2018 11:36 3,7 °C 88 % 1007,1 hPa 0,0 mm 22,5 km/h (4 Bft) NW 326 ° 0 min 0,000 mm 0,0 UV-I 60 W/m² 1,9 °C -0,9 °C 30,6 km/h (5 Bft)
09.12.2018 11:37 3,7 °C 88 % 1006,9 hPa 0,0 mm 18,6 km/h (3 Bft) W 274 ° 0 min 0,000 mm 0,0 UV-I 67 W/m² 1,9 °C -0,4 °C 29,0 km/h (5 Bft)
09.12.2018 11:38 3,7 °C 88 % 1007,0 hPa 0,0 mm 18,5 km/h (3 Bft) W-NW 293 ° 0 min 0,000 mm 0,0 UV-I 70 W/m² 1,9 °C -0,4 °C 24,1 km/h (4 Bft)
09.12.2018 11:39 3,7 °C 88 % 1006,9 hPa 0,0 mm 12,0 km/h (2 Bft) W 267 ° 0 min 0,000 mm 0,0 UV-I 67 W/m² 1,9 °C 0,7 °C 22,5 km/h (4 Bft)
09.12.2018 11:40 3,8 °C 88 % 1006,9 hPa 0,0 mm 24,4 km/h (4 Bft) W 261 ° 0 min 0,000 mm 0,0 UV-I 65 W/m² 2,0 °C -1,0 °C 33,8 km/h (5 Bft)
09.12.2018 11:41 3,8 °C 88 % 1006,9 hPa 0,0 mm 17,7 km/h (3 Bft) W 265 ° 0 min 0,000 mm 0,0 UV-I 70 W/m² 2,0 °C -0,1 °C 25,7 km/h (4 Bft)
09.12.2018 11:42 3,8 °C 88 % 1006,9 hPa 0,0 mm 20,0 km/h (4 Bft) W 263 ° 0 min 0,000 mm 0,0 UV-I 74 W/m² 2,0 °C -0,4 °C 29,0 km/h (5 Bft)
09.12.2018 11:43 3,8 °C 88 % 1006,8 hPa 0,0 mm 13,3 km/h (3 Bft) W 266 ° 0 min 0,000 mm 0,0 UV-I 76 W/m² 2,0 °C 0,6 °C 20,9 km/h (4 Bft)
09.12.2018 11:44 3,8 °C 87 % 1006,8 hPa 0,0 mm 13,8 km/h (3 Bft) W 271 ° 0 min 0,000 mm 0,0 UV-I 77 W/m² 1,8 °C 0,5 °C 19,3 km/h (3 Bft)
09.12.2018 11:45 3,8 °C 87 % 1006,8 hPa 0,0 mm 19,7 km/h (3 Bft) W 269 ° 0 min 0,000 mm 0,0 UV-I 74 W/m² 1,8 °C -0,4 °C 30,6 km/h (5 Bft)
09.12.2018 11:46 3,8 °C 87 % 1006,6 hPa 0,0 mm 18,3 km/h (3 Bft) W 281 ° 0 min 0,000 mm 0,0 UV-I 72 W/m² 1,8 °C -0,2 °C 22,5 km/h (4 Bft)
09.12.2018 11:47 3,8 °C 87 % 1006,8 hPa 0,0 mm 14,2 km/h (3 Bft) SW 234 ° 0 min 0,000 mm 0,0 UV-I 67 W/m² 1,8 °C 0,4 °C 22,5 km/h (4 Bft)
09.12.2018 11:48 3,9 °C 87 % 1006,7 hPa 0,0 mm 13,8 km/h (3 Bft) W 269 ° 0 min 0,000 mm 0,0 UV-I 65 W/m² 1,9 °C 0,6 °C 19,3 km/h (3 Bft)
09.12.2018 11:49 3,8 °C 87 % 1006,6 hPa 0,0 mm 12,9 km/h (3 Bft) W 279 ° 0 min 0,000 mm 0,0 UV-I 76 W/m² 1,8 °C 0,6 °C 19,3 km/h (3 Bft)
09.12.2018 11:50 3,9 °C 87 % 1006,6 hPa 0,0 mm 12,8 km/h (3 Bft) W 275 ° 0 min 0,000 mm 0,5 UV-I 81 W/m² 1,9 °C 0,8 °C 17,7 km/h (3 Bft)
09.12.2018 11:51 3,9 °C 87 % 1006,5 hPa 0,0 mm 11,2 km/h (2 Bft) W 277 ° 0 min 0,000 mm 0,5 UV-I 86 W/m² 1,9 °C 1,1 °C 16,1 km/h (3 Bft)
09.12.2018 11:52 3,9 °C 87 % 1006,6 hPa 0,0 mm 7,6 km/h (2 Bft) W-SW 246 ° 0 min 0,000 mm 0,6 UV-I 95 W/m² 1,9 °C 2,0 °C 12,9 km/h (3 Bft)
09.12.2018 11:53 3,9 °C 87 % 1006,5 hPa 0,0 mm 9,5 km/h (2 Bft) W-SW 238 ° 0 min 0,000 mm 0,6 UV-I 97 W/m² 1,9 °C 1,5 °C 14,5 km/h (3 Bft)
09.12.2018 11:54 3,9 °C 87 % 1006,5 hPa 0,0 mm 12,1 km/h (2 Bft) W-SW 251 ° 0 min 0,000 mm 0,5 UV-I 90 W/m² 1,9 °C 0,9 °C 17,7 km/h (3 Bft)
09.12.2018 11:55 3,9 °C 87 % 1006,5 hPa 0,0 mm 9,6 km/h (2 Bft) W 259 ° 0 min 0,000 mm 0,5 UV-I 77 W/m² 1,9 °C 1,4 °C 12,9 km/h (3 Bft)
09.12.2018 11:56 3,9 °C 88 % 1006,5 hPa 0,0 mm 11,3 km/h (2 Bft) SW 219 ° 0 min 0,000 mm 0,0 UV-I 69 W/m² 2,1 °C 1,1 °C 14,5 km/h (3 Bft)
09.12.2018 11:57 3,9 °C 88 % 1006,5 hPa 0,0 mm 8,7 km/h (2 Bft) W-SW 256 ° 0 min 0,000 mm 0,0 UV-I 60 W/m² 2,1 °C 1,7 °C 11,3 km/h (2 Bft)
09.12.2018 11:58 3,9 °C 87 % 1006,5 hPa 0,0 mm 14,3 km/h (3 Bft) W-SW 243 ° 0 min 0,000 mm 0,0 UV-I 54 W/m² 1,9 °C 0,5 °C 19,3 km/h (3 Bft)
09.12.2018 11:59 3,9 °C 87 % 1006,5 hPa 0,0 mm 8,2 km/h (2 Bft) W 261 ° 0 min 0,000 mm 0,0 UV-I 56 W/m² 1,9 °C 1,8 °C 16,1 km/h (3 Bft)
09.12.2018 12:00 3,9 °C 87 % 1006,4 hPa 0,0 mm 13,9 km/h (3 Bft) W-SW 244 ° 0 min 0,000 mm 0,0 UV-I 60 W/m² 1,9 °C 0,6 °C 19,3 km/h (3 Bft)
09.12.2018 12:01 3,9 °C 87 % 1006,5 hPa 0,0 mm 11,1 km/h (2 Bft) W 262 ° 0 min 0,051 mm 0,0 UV-I 67 W/m² 1,9 °C 1,1 °C 17,7 km/h (3 Bft)
09.12.2018 12:02 3,9 °C 87 % 1006,5 hPa 0,0 mm 21,1 km/h (4 Bft) W 271 ° 0 min 0,000 mm 0,5 UV-I 69 W/m² 1,9 °C -0,5 °C 30,6 km/h (5 Bft)
09.12.2018 12:03 3,9 °C 87 % 1006,4 hPa 0,0 mm 14,3 km/h (3 Bft) W 264 ° 0 min 0,000 mm 0,5 UV-I 74 W/m² 1,9 °C 0,5 °C 22,5 km/h (4 Bft)
09.12.2018 12:04 3,9 °C 86 % 1006,5 hPa 0,0 mm 10,6 km/h (2 Bft) W 261 ° 0 min 0,000 mm 0,5 UV-I 79 W/m² 1,8 °C 1,2 °C 24,1 km/h (4 Bft)
09.12.2018 12:05 4,0 °C 86 % 1006,4 hPa 0,0 mm 16,9 km/h (3 Bft) W 267 ° 0 min 0,000 mm 0,6 UV-I 81 W/m² 1,9 °C 0,2 °C 22,5 km/h (4 Bft)
09.12.2018 12:06 4,0 °C 87 % 1006,5 hPa 0,0 mm 17,1 km/h (3 Bft) W-SW 245 ° 0 min 0,000 mm 0,7 UV-I 81 W/m² 2,0 °C 0,2 °C 32,2 km/h (5 Bft)
09.12.2018 12:07 4,1 °C 86 % 1006,4 hPa 0,0 mm 13,9 km/h (3 Bft) W 274 ° 0 min 0,000 mm 0,7 UV-I 104 W/m² 2,0 °C 0,8 °C 17,7 km/h (3 Bft)
09.12.2018 12:08 4,1 °C 86 % 1006,4 hPa 0,0 mm 17,7 km/h (3 Bft) W 269 ° 0 min 0,000 mm 0,7 UV-I 107 W/m² 2,0 °C 0,2 °C 24,1 km/h (4 Bft)
09.12.2018 12:09 4,1 °C 86 % 1006,4 hPa 0,0 mm 12,0 km/h (2 Bft) W 260 ° 0 min 0,000 mm 0,7 UV-I 109 W/m² 2,0 °C 1,2 °C 17,7 km/h (3 Bft)
09.12.2018 12:10 4,1 °C 86 % 1006,4 hPa 0,0 mm 10,4 km/h (2 Bft) SW 227 ° 0 min 0,000 mm 0,7 UV-I 107 W/m² 2,0 °C 1,5 °C 16,1 km/h (3 Bft)
09.12.2018 12:11 4,2 °C 86 % 1006,3 hPa 0,0 mm 9,9 km/h (2 Bft) SW 221 ° 0 min 0,000 mm 0,6 UV-I 97 W/m² 2,1 °C 1,7 °C 17,7 km/h (3 Bft)
09.12.2018 12:12 4,3 °C 86 % 1006,3 hPa 0,0 mm 13,6 km/h (3 Bft) W-SW 257 ° 0 min 0,000 mm 0,6 UV-I 93 W/m² 2,2 °C 1,1 °C 22,5 km/h (4 Bft)
09.12.2018 12:13 4,3 °C 85 % 1006,5 hPa 0,0 mm 12,2 km/h (2 Bft) W 277 ° 0 min 0,000 mm 0,6 UV-I 88 W/m² 2,0 °C 1,4 °C 14,5 km/h (3 Bft)
09.12.2018 12:14 4,3 °C 85 % 1006,3 hPa 0,0 mm 8,3 km/h (2 Bft) SW 236 ° 0 min 0,000 mm 0,6 UV-I 83 W/m² 2,0 °C 2,2 °C 19,3 km/h (3 Bft)
09.12.2018 12:15 4,3 °C 85 % 1006,3 hPa 0,0 mm 10,5 km/h (2 Bft) W 271 ° 0 min 0,000 mm 0,5 UV-I 72 W/m² 2,0 °C 1,7 °C 17,7 km/h (3 Bft)
09.12.2018 12:16 4,3 °C 85 % 1006,3 hPa 0,0 mm 10,4 km/h (2 Bft) W-SW 252 ° 0 min 0,000 mm 0,5 UV-I 69 W/m² 2,0 °C 1,7 °C 12,9 km/h (3 Bft)
09.12.2018 12:17 4,3 °C 84 % 1006,4 hPa 0,0 mm 12,6 km/h (3 Bft) W 261 ° 0 min 0,000 mm 0,5 UV-I 76 W/m² 1,8 °C 1,3 °C 17,7 km/h (3 Bft)
09.12.2018 12:18 4,4 °C 84 % 1006,4 hPa 0,0 mm 12,3 km/h (3 Bft) W-NW 282 ° 0 min 0,000 mm 0,5 UV-I 63 W/m² 1,9 °C 1,5 °C 17,7 km/h (3 Bft)
09.12.2018 12:19 4,4 °C 84 % 1006,4 hPa 0,0 mm 13,5 km/h (3 Bft) W 271 ° 0 min 0,000 mm 0,0 UV-I 62 W/m² 1,9 °C 1,3 °C 20,9 km/h (4 Bft)
09.12.2018 12:20 4,4 °C 84 % 1006,4 hPa 0,0 mm 16,1 km/h (3 Bft) W-SW 247 ° 0 min 0,000 mm 0,5 UV-I 77 W/m² 1,9 °C 0,8 °C 24,1 km/h (4 Bft)
09.12.2018 12:21 4,4 °C 84 % 1006,4 hPa 0,0 mm 18,5 km/h (3 Bft) W 267 ° 0 min 0,000 mm 0,6 UV-I 86 W/m² 1,9 °C 0,5 °C 29,0 km/h (5 Bft)
09.12.2018 12:22 4,3 °C 84 % 1006,3 hPa 0,0 mm 10,9 km/h (2 Bft) W-SW 258 ° 0 min 0,000 mm 0,6 UV-I 95 W/m² 1,8 °C 1,6 °C 16,1 km/h (3 Bft)
09.12.2018 12:23 4,3 °C 84 % 1006,3 hPa 0,0 mm 16,3 km/h (3 Bft) SW 236 ° 0 min 0,000 mm 0,6 UV-I 95 W/m² 1,8 °C 0,7 °C 29,0 km/h (5 Bft)
09.12.2018 12:24 4,4 °C 83 % 1006,3 hPa 0,0 mm 21,2 km/h (4 Bft) W 267 ° 0 min 0,000 mm 0,6 UV-I 102 W/m² 1,8 °C 0,2 °C 32,2 km/h (5 Bft)
09.12.2018 12:25 4,4 °C 83 % 1006,3 hPa 0,0 mm 16,9 km/h (3 Bft) W-SW 244 ° 0 min 0,000 mm 0,7 UV-I 97 W/m² 1,8 °C 0,7 °C 29,0 km/h (5 Bft)
09.12.2018 12:26 4,4 °C 83 % 1006,3 hPa 0,0 mm 19,6 km/h (3 Bft) W 265 ° 0 min 0,000 mm 0,6 UV-I 88 W/m² 1,8 °C 0,4 °C 25,7 km/h (4 Bft)
09.12.2018 12:27 4,4 °C 83 % 1006,3 hPa 0,0 mm 16,5 km/h (3 Bft) W-NW 284 ° 0 min 0,000 mm 0,6 UV-I 88 W/m² 1,8 °C 0,8 °C 24,1 km/h (4 Bft)
09.12.2018 12:28 4,4 °C 83 % 1006,3 hPa 0,0 mm 11,6 km/h (2 Bft) NW 308 ° 0 min 0,000 mm 0,6 UV-I 84 W/m² 1,8 °C 1,6 °C 14,5 km/h (3 Bft)
09.12.2018 12:29 4,4 °C 84 % 1006,3 hPa 0,0 mm 14,5 km/h (3 Bft) W 262 ° 0 min 0,000 mm 0,6 UV-I 79 W/m² 1,9 °C 1,1 °C 19,3 km/h (3 Bft)
09.12.2018 12:30 4,4 °C 84 % 1006,2 hPa 0,0 mm 12,7 km/h (3 Bft) W 268 ° 0 min 0,000 mm 0,6 UV-I 81 W/m² 1,9 °C 1,4 °C 22,5 km/h (4 Bft)
09.12.2018 12:31 4,4 °C 83 % 1006,2 hPa 0,0 mm 19,6 km/h (3 Bft) SW 221 ° 0 min 0,000 mm 0,6 UV-I 81 W/m² 1,8 °C 0,4 °C 25,7 km/h (4 Bft)
09.12.2018 12:32 4,4 °C 83 % 1006,2 hPa 0,0 mm 9,9 km/h (2 Bft) W 273 ° 0 min 0,000 mm 0,5 UV-I 72 W/m² 1,8 °C 2,0 °C 14,5 km/h (3 Bft)
09.12.2018 12:33 4,5 °C 83 % 1006,2 hPa 0,0 mm 11,5 km/h (2 Bft) W 261 ° 0 min 0,000 mm 0,5 UV-I 63 W/m² 1,9 °C 1,7 °C 16,1 km/h (3 Bft)
09.12.2018 12:34 4,4 °C 83 % 1006,3 hPa 0,0 mm 13,4 km/h (3 Bft) W 276 ° 0 min 0,000 mm 0,0 UV-I 58 W/m² 1,8 °C 1,3 °C 20,9 km/h (4 Bft)
09.12.2018 12:35 4,4 °C 83 % 1006,2 hPa 0,0 mm 20,8 km/h (4 Bft) W-NW 284 ° 0 min 0,000 mm 0,5 UV-I 69 W/m² 1,8 °C 0,2 °C 30,6 km/h (5 Bft)
09.12.2018 12:36 4,4 °C 83 % 1006,2 hPa 0,0 mm 15,6 km/h (3 Bft) W-SW 258 ° 0 min 0,000 mm 0,0 UV-I 56 W/m² 1,8 °C 0,9 °C 20,9 km/h (4 Bft)
09.12.2018 12:37 4,4 °C 83 % 1006,3 hPa 0,0 mm 17,6 km/h (3 Bft) W 261 ° 0 min 0,000 mm 0,0 UV-I 56 W/m² 1,8 °C 0,6 °C 27,4 km/h (4 Bft)
09.12.2018 12:38 4,4 °C 83 % 1006,3 hPa 0,0 mm 17,5 km/h (3 Bft) W-SW 242 ° 0 min 0,000 mm 0,0 UV-I 65 W/m² 1,8 °C 0,6 °C 29,0 km/h (5 Bft)
09.12.2018 12:39 4,4 °C 83 % 1006,2 hPa 0,0 mm 12,1 km/h (2 Bft) W-NW 292 ° 0 min 0,000 mm 0,0 UV-I 60 W/m² 1,8 °C 1,5 °C 16,1 km/h (3 Bft)
09.12.2018 12:40 4,4 °C 82 % 1006,2 hPa 0,0 mm 13,8 km/h (3 Bft) W-SW 255 ° 0 min 0,000 mm 0,0 UV-I 56 W/m² 1,6 °C 1,2 °C 19,3 km/h (3 Bft)
09.12.2018 12:41 4,4 °C 82 % 1006,2 hPa 0,0 mm 14,5 km/h (3 Bft) W 264 ° 0 min 0,000 mm 0,0 UV-I 51 W/m² 1,6 °C 1,1 °C 20,9 km/h (4 Bft)
09.12.2018 12:42 4,4 °C 82 % 1006,2 hPa 0,0 mm 13,8 km/h (3 Bft) W 275 ° 0 min 0,000 mm 0,0 UV-I 56 W/m² 1,6 °C 1,2 °C 25,7 km/h (4 Bft)
09.12.2018 12:43 4,5 °C 82 % 1006,2 hPa 0,0 mm 15,1 km/h (3 Bft) W 266 ° 0 min 0,000 mm 0,0 UV-I 63 W/m² 1,7 °C 1,1 °C 20,9 km/h (4 Bft)
09.12.2018 12:44 4,4 °C 83 % 1006,1 hPa 0,0 mm 19,0 km/h (3 Bft) W-SW 255 ° 0 min 0,000 mm 0,5 UV-I 72 W/m² 1,8 °C 0,4 °C 25,7 km/h (4 Bft)
09.12.2018 12:45 4,4 °C 82 % 1006,1 hPa 0,0 mm 14,8 km/h (3 Bft) SW 223 ° 0 min 0,000 mm 0,5 UV-I 77 W/m² 1,6 °C 1,0 °C 24,1 km/h (4 Bft)
09.12.2018 12:46 4,4 °C 83 % 1006,1 hPa 0,0 mm 12,7 km/h (3 Bft) W 263 ° 0 min 0,000 mm 0,5 UV-I 83 W/m² 1,8 °C 1,4 °C 19,3 km/h (3 Bft)
09.12.2018 12:47 4,5 °C 83 % 1006,1 hPa 0,0 mm 13,7 km/h (3 Bft) W 271 ° 0 min 0,000 mm 0,0 UV-I 70 W/m² 1,9 °C 1,3 °C 24,1 km/h (4 Bft)
09.12.2018 12:48 4,5 °C 83 % 1006,1 hPa 0,0 mm 12,6 km/h (3 Bft) SW 235 ° 0 min 0,000 mm 0,0 UV-I 53 W/m² 1,9 °C 1,5 °C 25,7 km/h (4 Bft)
09.12.2018 12:49 4,5 °C 83 % 1006,2 hPa 0,0 mm 15,0 km/h (3 Bft) W 263 ° 0 min 0,000 mm 0,0 UV-I 58 W/m² 1,9 °C 1,1 °C 17,7 km/h (3 Bft)
09.12.2018 12:50 4,5 °C 83 % 1006,2 hPa 0,0 mm 10,8 km/h (2 Bft) W-SW 246 ° 0 min 0,000 mm 0,0 UV-I 65 W/m² 1,9 °C 1,9 °C 16,1 km/h (3 Bft)
09.12.2018 12:51 4,5 °C 83 % 1006,1 hPa 0,0 mm 14,7 km/h (3 Bft) W-SW 255 ° 0 min 0,000 mm 0,0 UV-I 65 W/m² 1,9 °C 1,2 °C 25,7 km/h (4 Bft)
09.12.2018 12:52 4,4 °C 83 % 1006,1 hPa 0,0 mm 18,0 km/h (3 Bft) SW 232 ° 0 min 0,000 mm 0,0 UV-I 72 W/m² 1,8 °C 0,6 °C 24,1 km/h (4 Bft)
09.12.2018 12:53 4,5 °C 82 % 1006,1 hPa 0,0 mm 12,9 km/h (3 Bft) W 278 ° 0 min 0,000 mm 0,5 UV-I 90 W/m² 1,7 °C 1,5 °C 22,5 km/h (4 Bft)
09.12.2018 12:54 4,5 °C 82 % 1006,1 hPa 0,0 mm 16,3 km/h (3 Bft) W-NW 284 ° 0 min 0,000 mm 0,5 UV-I 76 W/m² 1,7 °C 0,9 °C 29,0 km/h (5 Bft)
09.12.2018 12:55 4,5 °C 83 % 1006,1 hPa 0,0 mm 17,8 km/h (3 Bft) W-SW 252 ° 0 min 0,000 mm 0,0 UV-I 77 W/m² 1,9 °C 0,7 °C 27,4 km/h (4 Bft)
09.12.2018 12:56 4,5 °C 83 % 1006,1 hPa 0,0 mm 20,6 km/h (4 Bft) W-SW 240 ° 0 min 0,000 mm 0,5 UV-I 90 W/m² 1,9 °C 0,4 °C 25,7 km/h (4 Bft)
09.12.2018 12:57 4,5 °C 83 % 1006,0 hPa 0,0 mm 18,6 km/h (3 Bft) W 273 ° 0 min 0,000 mm 0,0 UV-I 79 W/m² 1,9 °C 0,6 °C 22,5 km/h (4 Bft)
09.12.2018 12:58 4,5 °C 82 % 1005,9 hPa 0,0 mm 14,8 km/h (3 Bft) W 259 ° 0 min 0,000 mm 0,0 UV-I 79 W/m² 1,7 °C 1,2 °C 20,9 km/h (4 Bft)
09.12.2018 12:59 4,5 °C 82 % 1006,0 hPa 0,0 mm 11,1 km/h (2 Bft) W 279 ° 0 min 0,000 mm 0,0 UV-I 62 W/m² 1,7 °C 1,8 °C 17,7 km/h (3 Bft)
09.12.2018 13:00 4,5 °C 82 % 1006,0 hPa 0,0 mm 17,9 km/h (3 Bft) W 281 ° 0 min 0,000 mm 0,0 UV-I 42 W/m² 1,7 °C 0,7 °C 24,1 km/h (4 Bft)
09.12.2018 13:01 4,5 °C 82 % 1005,9 hPa 0,0 mm 12,7 km/h (3 Bft) W 262 ° 0 min 0,050 mm 0,0 UV-I 42 W/m² 1,7 °C 1,5 °C 19,3 km/h (3 Bft)
09.12.2018 13:02 4,5 °C 82 % 1006,0 hPa 0,0 mm 18,2 km/h (3 Bft) W 264 ° 0 min 0,000 mm 0,0 UV-I 37 W/m² 1,7 °C 0,7 °C 25,7 km/h (4 Bft)
09.12.2018 13:03 4,5 °C 82 % 1005,9 hPa 0,0 mm 20,3 km/h (4 Bft) W 271 ° 0 min 0,000 mm 0,0 UV-I 32 W/m² 1,7 °C 0,4 °C 29,0 km/h (5 Bft)
09.12.2018 13:04 4,5 °C 82 % 1006,0 hPa 0,0 mm 19,5 km/h (3 Bft) W 267 ° 0 min 0,000 mm 0,0 UV-I 35 W/m² 1,7 °C 0,5 °C 24,1 km/h (4 Bft)
09.12.2018 13:05 4,5 °C 82 % 1005,8 hPa 0,0 mm 15,6 km/h (3 Bft) W-SW 241 ° 0 min 0,000 mm 0,0 UV-I 44 W/m² 1,7 °C 1,0 °C 22,5 km/h (4 Bft)
09.12.2018 13:06 4,5 °C 82 % 1005,9 hPa 0,0 mm 17,8 km/h (3 Bft) W-SW 252 ° 0 min 0,000 mm 0,0 UV-I 47 W/m² 1,7 °C 0,7 °C 27,4 km/h (4 Bft)
09.12.2018 13:07 4,4 °C 82 % 1005,9 hPa 0,0 mm 17,5 km/h (3 Bft) W 271 ° 0 min 0,000 mm 0,0 UV-I 62 W/m² 1,6 °C 0,6 °C 27,4 km/h (4 Bft)
09.12.2018 13:08 4,4 °C 82 % 1005,9 hPa 0,0 mm 20,7 km/h (4 Bft) W-SW 244 ° 0 min 0,000 mm 0,0 UV-I 62 W/m² 1,6 °C 0,2 °C 48,3 km/h (6 Bft)
09.12.2018 13:09 4,4 °C 82 % 1005,7 hPa 0,0 mm 21,2 km/h (4 Bft) W-SW 242 ° 0 min 0,000 mm 0,0 UV-I 58 W/m² 1,6 °C 0,2 °C 35,4 km/h (5 Bft)
09.12.2018 13:10 4,4 °C 82 % 1005,8 hPa 0,0 mm 13,3 km/h (3 Bft) W 260 ° 0 min 0,000 mm 0,0 UV-I 60 W/m² 1,6 °C 1,3 °C 17,7 km/h (3 Bft)
09.12.2018 13:11 4,4 °C 82 % 1005,9 hPa 0,0 mm 15,0 km/h (3 Bft) W-SW 250 ° 0 min 0,000 mm 0,0 UV-I 60 W/m² 1,6 °C 1,0 °C 35,4 km/h (5 Bft)
09.12.2018 13:12 4,4 °C 82 % 1005,7 hPa 0,0 mm 18,8 km/h (3 Bft) W-SW 248 ° 0 min 0,000 mm 0,0 UV-I 51 W/m² 1,6 °C 0,5 °C 30,6 km/h (5 Bft)
09.12.2018 13:13 4,4 °C 81 % 1005,8 hPa 0,0 mm 15,4 km/h (3 Bft) W-SW 254 ° 0 min 0,000 mm 0,0 UV-I 42 W/m² 1,4 °C 0,9 °C 24,1 km/h (4 Bft)
09.12.2018 13:14 4,4 °C 81 % 1005,8 hPa 0,0 mm 18,4 km/h (3 Bft) SW 228 ° 0 min 0,000 mm 0,0 UV-I 40 W/m² 1,4 °C 0,5 °C 33,8 km/h (5 Bft)
09.12.2018 13:15 4,4 °C 81 % 1005,7 hPa 0,0 mm 18,2 km/h (3 Bft) W 272 ° 0 min 0,000 mm 0,0 UV-I 35 W/m² 1,4 °C 0,5 °C 25,7 km/h (4 Bft)
09.12.2018 13:16 4,4 °C 82 % 1005,7 hPa 0,0 mm 13,3 km/h (3 Bft) W 265 ° 0 min 0,000 mm 0,0 UV-I 35 W/m² 1,6 °C 1,3 °C 22,5 km/h (4 Bft)
09.12.2018 13:17 4,4 °C 82 % 1005,7 hPa 0,0 mm 15,2 km/h (3 Bft) W 267 ° 0 min 0,000 mm 0,0 UV-I 33 W/m² 1,6 °C 1,0 °C 25,7 km/h (4 Bft)
09.12.2018 13:18 4,4 °C 82 % 1005,6 hPa 0,0 mm 15,1 km/h (3 Bft) SW 223 ° 0 min 0,000 mm 0,0 UV-I 33 W/m² 1,6 °C 1,0 °C 20,9 km/h (4 Bft)
09.12.2018 13:19 4,4 °C 82 % 1005,7 hPa 0,0 mm 15,2 km/h (3 Bft) SW 234 ° 0 min 0,000 mm 0,0 UV-I 40 W/m² 1,6 °C 1,0 °C 20,9 km/h (4 Bft)
09.12.2018 13:20 4,4 °C 82 % 1005,6 hPa 0,0 mm 15,2 km/h (3 Bft) W-SW 250 ° 0 min 0,000 mm 0,0 UV-I 42 W/m² 1,6 °C 1,0 °C 25,7 km/h (4 Bft)
09.12.2018 13:21 4,4 °C 81 % 1005,7 hPa 0,0 mm 23,1 km/h (4 Bft) W 259 ° 0 min 0,000 mm 0,0 UV-I 42 W/m² 1,4 °C -0,1 °C 33,8 km/h (5 Bft)
09.12.2018 13:22 4,4 °C 82 % 1005,7 hPa 0,0 mm 16,1 km/h (3 Bft) W 262 ° 0 min 0,000 mm 0,0 UV-I 49 W/m² 1,6 °C 0,8 °C 27,4 km/h (4 Bft)
09.12.2018 13:23 4,4 °C 81 % 1005,7 hPa 0,0 mm 11,6 km/h (2 Bft) W 263 ° 0 min 0,000 mm 0,0 UV-I 58 W/m² 1,4 °C 1,6 °C 14,5 km/h (3 Bft)
09.12.2018 13:24 4,4 °C 81 % 1005,7 hPa 0,0 mm 12,1 km/h (2 Bft) SW 224 ° 0 min 0,000 mm 0,0 UV-I 60 W/m² 1,4 °C 1,5 °C 16,1 km/h (3 Bft)
09.12.2018 13:25 4,4 °C 82 % 1005,7 hPa 0,0 mm 10,8 km/h (2 Bft) W 264 ° 0 min 0,000 mm 0,0 UV-I 54 W/m² 1,6 °C 1,8 °C 16,1 km/h (3 Bft)
09.12.2018 13:26 4,4 °C 81 % 1005,7 hPa 0,0 mm 14,2 km/h (3 Bft) W 273 ° 0 min 0,000 mm 0,0 UV-I 49 W/m² 1,4 °C 1,1 °C 20,9 km/h (4 Bft)
09.12.2018 13:27 4,4 °C 81 % 1005,7 hPa 0,0 mm 13,5 km/h (3 Bft) W-SW 256 ° 0 min 0,000 mm 0,0 UV-I 46 W/m² 1,4 °C 1,3 °C 19,3 km/h (3 Bft)
09.12.2018 13:28 4,4 °C 82 % 1005,7 hPa 0,0 mm 11,1 km/h (2 Bft) W 271 ° 0 min 0,000 mm 0,0 UV-I 42 W/m² 1,6 °C 1,7 °C 17,7 km/h (3 Bft)
09.12.2018 13:29 4,4 °C 82 % 1005,7 hPa 0,0 mm 11,6 km/h (2 Bft) W 259 ° 0 min 0,000 mm 0,0 UV-I 53 W/m² 1,6 °C 1,6 °C 16,1 km/h (3 Bft)
09.12.2018 13:30 4,4 °C 82 % 1005,6 hPa 0,0 mm 11,3 km/h (2 Bft) W-NW 286 ° 0 min 0,000 mm 0,0 UV-I 63 W/m² 1,6 °C 1,7 °C 16,1 km/h (3 Bft)
09.12.2018 13:31 4,4 °C 82 % 1005,6 hPa 0,0 mm 15,5 km/h (3 Bft) W 264 ° 0 min 0,000 mm 0,0 UV-I 67 W/m² 1,6 °C 0,9 °C 20,9 km/h (4 Bft)
09.12.2018 13:32 4,3 °C 82 % 1005,6 hPa 0,0 mm 21,7 km/h (4 Bft) W 264 ° 0 min 0,000 mm 0,0 UV-I 67 W/m² 1,5 °C -0,0 °C 33,8 km/h (5 Bft)
09.12.2018 13:33 4,4 °C 82 % 1005,5 hPa 0,0 mm 17,9 km/h (3 Bft) W-SW 240 ° 0 min 0,000 mm 0,0 UV-I 65 W/m² 1,6 °C 0,6 °C 24,1 km/h (4 Bft)
09.12.2018 13:34 4,3 °C 82 % 1005,6 hPa 0,0 mm 15,7 km/h (3 Bft) W-NW 295 ° 0 min 0,000 mm 0,0 UV-I 63 W/m² 1,5 °C 0,8 °C 35,4 km/h (5 Bft)
09.12.2018 13:35 4,3 °C 82 % 1005,5 hPa 0,0 mm 14,1 km/h (3 Bft) W 261 ° 0 min 0,000 mm 0,0 UV-I 63 W/m² 1,5 °C 1,0 °C 40,2 km/h (6 Bft)
09.12.2018 13:36 4,3 °C 81 % 1005,5 hPa 0,0 mm 16,0 km/h (3 Bft) W-SW 238 ° 0 min 0,000 mm 0,0 UV-I 58 W/m² 1,3 °C 0,7 °C 22,5 km/h (4 Bft)
09.12.2018 13:37 4,4 °C 82 % 1005,6 hPa 0,0 mm 18,0 km/h (3 Bft) W-SW 247 ° 0 min 0,000 mm 0,0 UV-I 60 W/m² 1,6 °C 0,6 °C 29,0 km/h (5 Bft)
09.12.2018 13:38 4,4 °C 82 % 1005,6 hPa 0,0 mm 15,3 km/h (3 Bft) W 265 ° 0 min 0,000 mm 0,0 UV-I 60 W/m² 1,6 °C 1,0 °C 27,4 km/h (4 Bft)
09.12.2018 13:39 4,4 °C 82 % 1005,5 hPa 0,0 mm 11,6 km/h (2 Bft) W-SW 258 ° 0 min 0,000 mm 0,0 UV-I 62 W/m² 1,6 °C 1,6 °C 19,3 km/h (3 Bft)
09.12.2018 13:40 4,3 °C 81 % 1005,6 hPa 0,0 mm 17,6 km/h (3 Bft) W-SW 242 ° 0 min 0,000 mm 0,0 UV-I 53 W/m² 1,3 °C 0,5 °C 25,7 km/h (4 Bft)
09.12.2018 13:41 4,4 °C 82 % 1005,6 hPa 0,0 mm 19,7 km/h (3 Bft) W 279 ° 0 min 0,000 mm 0,0 UV-I 49 W/m² 1,6 °C 0,3 °C 25,7 km/h (4 Bft)
09.12.2018 13:42 4,4 °C 82 % 1005,6 hPa 0,0 mm 20,3 km/h (4 Bft) W-NW 298 ° 0 min 0,000 mm 0,0 UV-I 49 W/m² 1,6 °C 0,3 °C 27,4 km/h (4 Bft)
09.12.2018 13:43 4,4 °C 82 % 1005,6 hPa 0,0 mm 17,9 km/h (3 Bft) W 263 ° 0 min 0,000 mm 0,0 UV-I 44 W/m² 1,6 °C 0,6 °C 22,5 km/h (4 Bft)
09.12.2018 13:44 4,4 °C 82 % 1005,6 hPa 0,0 mm 17,3 km/h (3 Bft) S-SW 199 ° 0 min 0,000 mm 0,0 UV-I 44 W/m² 1,6 °C 0,7 °C 35,4 km/h (5 Bft)
09.12.2018 13:45 4,4 °C 82 % 1005,6 hPa 0,0 mm 23,8 km/h (4 Bft) W-SW 251 ° 0 min 0,000 mm 0,0 UV-I 46 W/m² 1,6 °C -0,1 °C 40,2 km/h (6 Bft)
09.12.2018 13:46 4,3 °C 82 % 1005,7 hPa 0,0 mm 22,2 km/h (4 Bft) W 263 ° 0 min 0,000 mm 0,0 UV-I 49 W/m² 1,5 °C -0,1 °C 38,6 km/h (5 Bft)
09.12.2018 13:47 4,3 °C 82 % 1005,7 hPa 0,0 mm 17,8 km/h (3 Bft) W-SW 254 ° 0 min 0,000 mm 0,0 UV-I 53 W/m² 1,5 °C 0,5 °C 27,4 km/h (4 Bft)
09.12.2018 13:48 4,3 °C 82 % 1005,8 hPa 0,0 mm 20,5 km/h (4 Bft) W-NW 298 ° 0 min 0,000 mm 0,0 UV-I 53 W/m² 1,5 °C 0,1 °C 30,6 km/h (5 Bft)
09.12.2018 13:49 4,3 °C 82 % 1005,7 hPa 0,0 mm 15,2 km/h (3 Bft) W-SW 257 ° 0 min 0,000 mm 0,0 UV-I 54 W/m² 1,5 °C 0,9 °C 29,0 km/h (5 Bft)
09.12.2018 13:50 4,3 °C 83 % 1005,6 hPa 0,0 mm 20,0 km/h (4 Bft) W-SW 254 ° 0 min 0,000 mm 0,0 UV-I 54 W/m² 1,7 °C 0,2 °C 29,0 km/h (5 Bft)
09.12.2018 13:51 4,3 °C 83 % 1005,7 hPa 0,0 mm 14,9 km/h (3 Bft) W 275 ° 0 min 0,000 mm 0,0 UV-I 56 W/m² 1,7 °C 0,9 °C 25,7 km/h (4 Bft)
09.12.2018 13:52 4,3 °C 83 % 1005,6 hPa 0,0 mm 16,4 km/h (3 Bft) W-NW 286 ° 0 min 0,000 mm 0,0 UV-I 60 W/m² 1,7 °C 0,7 °C 24,1 km/h (4 Bft)
09.12.2018 13:53 4,2 °C 83 % 1005,6 hPa 0,0 mm 17,3 km/h (3 Bft) W 263 ° 0 min 0,000 mm 0,0 UV-I 60 W/m² 1,6 °C 0,4 °C 24,1 km/h (4 Bft)
09.12.2018 13:54 4,2 °C 84 % 1005,7 hPa 0,0 mm 19,2 km/h (3 Bft) NW 315 ° 0 min 0,000 mm 0,0 UV-I 62 W/m² 1,7 °C 0,2 °C 32,2 km/h (5 Bft)
09.12.2018 13:55 4,2 °C 84 % 1005,6 hPa 0,0 mm 21,9 km/h (4 Bft) NW 324 ° 0 min 0,000 mm 0,0 UV-I 62 W/m² 1,7 °C -0,2 °C 29,0 km/h (5 Bft)
09.12.2018 13:56 4,2 °C 83 % 1005,6 hPa 0,0 mm 19,4 km/h (3 Bft) W 265 ° 0 min 0,000 mm 0,0 UV-I 56 W/m² 1,6 °C 0,1 °C 30,6 km/h (5 Bft)
09.12.2018 13:57 4,2 °C 84 % 1005,6 hPa 0,0 mm 18,7 km/h (3 Bft) W 265 ° 0 min 0,000 mm 0,0 UV-I 58 W/m² 1,7 °C 0,2 °C 25,7 km/h (4 Bft)
09.12.2018 13:58 4,2 °C 84 % 1005,7 hPa 0,0 mm 17,0 km/h (3 Bft) W-NW 292 ° 0 min 0,000 mm 0,0 UV-I 56 W/m² 1,7 °C 0,5 °C 22,5 km/h (4 Bft)
09.12.2018 13:59 4,2 °C 84 % 1005,6 hPa 0,0 mm 21,4 km/h (4 Bft) W-NW 288 ° 0 min 0,000 mm 0,0 UV-I 46 W/m² 1,7 °C -0,1 °C 43,5 km/h (6 Bft)
09.12.2018 14:00 4,1 °C 84 % 1005,7 hPa 0,0 mm 24,5 km/h (4 Bft) W 260 ° 0 min 0,000 mm 0,0 UV-I 46 W/m² 1,6 °C -0,6 °C 30,6 km/h (5 Bft)
09.12.2018 14:01 4,2 °C 84 % 1005,7 hPa 0,0 mm 22,4 km/h (4 Bft) W-NW 292 ° 0 min 0,051 mm 0,0 UV-I 44 W/m² 1,7 °C -0,2 °C 29,0 km/h (5 Bft)
09.12.2018 14:02 4,1 °C 84 % 1005,8 hPa 0,0 mm 15,0 km/h (3 Bft) W-SW 250 ° 0 min 0,000 mm 0,0 UV-I 44 W/m² 1,6 °C 0,6 °C 24,1 km/h (4 Bft)
09.12.2018 14:03 4,1 °C 84 % 1005,7 hPa 0,0 mm 13,6 km/h (3 Bft) W-NW 285 ° 0 min 0,000 mm 0,0 UV-I 42 W/m² 1,6 °C 0,9 °C 22,5 km/h (4 Bft)
09.12.2018 14:04 4,1 °C 84 % 1005,7 hPa 0,0 mm 13,9 km/h (3 Bft) W-SW 256 ° 0 min 0,000 mm 0,0 UV-I 44 W/m² 1,6 °C 0,8 °C 19,3 km/h (3 Bft)
09.12.2018 14:05 4,1 °C 84 % 1005,7 hPa 0,0 mm 15,1 km/h (3 Bft) W-SW 239 ° 0 min 0,000 mm 0,0 UV-I 40 W/m² 1,6 °C 0,6 °C 19,3 km/h (3 Bft)
09.12.2018 14:06 4,1 °C 85 % 1005,8 hPa 0,0 mm 15,4 km/h (3 Bft) W 274 ° 0 min 0,000 mm 0,0 UV-I 40 W/m² 1,8 °C 0,6 °C 24,1 km/h (4 Bft)
09.12.2018 14:07 4,1 °C 85 % 1005,9 hPa 0,0 mm 11,6 km/h (2 Bft) W-NW 283 ° 0 min 0,000 mm 0,0 UV-I 42 W/m² 1,8 °C 1,2 °C 17,7 km/h (3 Bft)
09.12.2018 14:08 4,1 °C 85 % 1005,8 hPa 0,0 mm 20,7 km/h (4 Bft) W 272 ° 0 min 0,000 mm 0,0 UV-I 44 W/m² 1,8 °C -0,2 °C 32,2 km/h (5 Bft)
09.12.2018 14:09 4,0 °C 85 % 1005,8 hPa 0,0 mm 13,4 km/h (3 Bft) W-SW 258 ° 0 min 0,000 mm 0,0 UV-I 47 W/m² 1,7 °C 0,8 °C 22,5 km/h (4 Bft)
09.12.2018 14:10 4,0 °C 85 % 1005,7 hPa 0,0 mm 17,5 km/h (3 Bft) W-NW 284 ° 0 min 0,000 mm 0,0 UV-I 46 W/m² 1,7 °C 0,1 °C 22,5 km/h (4 Bft)
09.12.2018 14:11 3,9 °C 85 % 1005,7 hPa 0,0 mm 19,4 km/h (3 Bft) W-NW 282 ° 0 min 0,000 mm 0,0 UV-I 46 W/m² 1,6 °C -0,2 °C 25,7 km/h (4 Bft)
09.12.2018 14:12 3,9 °C 86 % 1005,7 hPa 0,0 mm 19,1 km/h (3 Bft) W 264 ° 0 min 0,000 mm 0,0 UV-I 40 W/m² 1,8 °C -0,2 °C 25,7 km/h (4 Bft)
09.12.2018 14:13 3,9 °C 86 % 1005,7 hPa 0,0 mm 17,0 km/h (3 Bft) W-NW 282 ° 0 min 0,000 mm 0,0 UV-I 40 W/m² 1,8 °C 0,1 °C 24,1 km/h (4 Bft)
09.12.2018 14:14 3,9 °C 86 % 1005,7 hPa 0,0 mm 13,5 km/h (3 Bft) S-SW 206 ° 0 min 0,000 mm 0,0 UV-I 39 W/m² 1,8 °C 0,6 °C 19,3 km/h (3 Bft)
09.12.2018 14:15 3,8 °C 86 % 1005,7 hPa 0,2 mm 15,7 km/h (3 Bft) W 271 ° 0 min 0,000 mm 0,0 UV-I 33 W/m² 1,7 °C 0,2 °C 22,5 km/h (4 Bft)
09.12.2018 14:16 3,8 °C 86 % 1005,7 hPa 0,0 mm 14,0 km/h (3 Bft) W 263 ° 0 min 0,000 mm 0,0 UV-I 33 W/m² 1,7 °C 0,4 °C 22,5 km/h (4 Bft)
09.12.2018 14:17 3,8 °C 86 % 1005,8 hPa 0,0 mm 13,5 km/h (3 Bft) W-NW 283 ° 0 min 0,000 mm 0,0 UV-I 35 W/m² 1,7 °C 0,5 °C 22,5 km/h (4 Bft)
09.12.2018 14:18 3,7 °C 87 % 1005,8 hPa 0,0 mm 19,5 km/h (3 Bft) S-SW 192 ° 0 min 0,000 mm 0,0 UV-I 33 W/m² 1,7 °C -0,5 °C 24,1 km/h (4 Bft)
09.12.2018 14:19 3,7 °C 87 % 1005,8 hPa 0,0 mm 16,4 km/h (3 Bft) W 259 ° 0 min 0,000 mm 0,0 UV-I 30 W/m² 1,7 °C -0,1 °C 25,7 km/h (4 Bft)
09.12.2018 14:20 3,7 °C 87 % 1005,8 hPa 0,0 mm 14,4 km/h (3 Bft) W 278 ° 0 min 0,000 mm 0,0 UV-I 26 W/m² 1,7 °C 0,2 °C 22,5 km/h (4 Bft)
09.12.2018 14:21 3,7 °C 87 % 1005,8 hPa 0,0 mm 16,3 km/h (3 Bft) W-SW 254 ° 0 min 0,000 mm 0,0 UV-I 28 W/m² 1,7 °C -0,1 °C 22,5 km/h (4 Bft)
09.12.2018 14:22 3,6 °C 87 % 1005,8 hPa 0,0 mm 20,9 km/h (4 Bft) W-SW 255 ° 0 min 0,000 mm 0,0 UV-I 26 W/m² 1,6 °C -0,8 °C 27,4 km/h (4 Bft)
09.12.2018 14:23 3,6 °C 87 % 1005,7 hPa 0,0 mm 24,2 km/h (4 Bft) W-NW 301 ° 0 min 0,000 mm 0,0 UV-I 25 W/m² 1,6 °C -1,2 °C 32,2 km/h (5 Bft)
09.12.2018 14:24 3,6 °C 87 % 1005,8 hPa 0,0 mm 21,0 km/h (4 Bft) W-SW 257 ° 0 min 0,000 mm 0,0 UV-I 25 W/m² 1,6 °C -0,8 °C 29,0 km/h (5 Bft)
09.12.2018 14:25 3,5 °C 87 % 1005,7 hPa 0,0 mm 19,2 km/h (3 Bft) W 270 ° 0 min 0,000 mm 0,0 UV-I 25 W/m² 1,5 °C -0,7 °C 30,6 km/h (5 Bft)
09.12.2018 14:26 3,5 °C 88 % 1005,8 hPa 0,0 mm 16,7 km/h (3 Bft) W 263 ° 0 min 0,000 mm 0,0 UV-I 23 W/m² 1,7 °C -0,4 °C 24,1 km/h (4 Bft)
09.12.2018 14:27 3,4 °C 88 % 1005,7 hPa 0,0 mm 13,5 km/h (3 Bft) W 263 ° 0 min 0,000 mm 0,0 UV-I 23 W/m² 1,6 °C 0,0 °C 19,3 km/h (3 Bft)
09.12.2018 14:28 3,4 °C 88 % 1005,8 hPa 0,0 mm 17,9 km/h (3 Bft) W 263 ° 0 min 0,000 mm 0,0 UV-I 23 W/m² 1,6 °C -0,7 °C 27,4 km/h (4 Bft)
09.12.2018 14:29 3,4 °C 88 % 1005,8 hPa 0,0 mm 16,3 km/h (3 Bft) W-NW 300 ° 0 min 0,000 mm 0,0 UV-I 23 W/m² 1,6 °C -0,4 °C 20,9 km/h (4 Bft)
09.12.2018 14:30 3,3 °C 88 % 1005,8 hPa 0,0 mm 12,0 km/h (2 Bft) W 269 ° 0 min 0,000 mm 0,0 UV-I 26 W/m² 1,5 °C 0,2 °C 17,7 km/h (3 Bft)
09.12.2018 14:31 3,3 °C 88 % 1005,9 hPa 0,0 mm 16,0 km/h (3 Bft) W 278 ° 0 min 0,000 mm 0,0 UV-I 26 W/m² 1,5 °C -0,5 °C 20,9 km/h (4 Bft)
09.12.2018 14:32 3,3 °C 88 % 1005,9 hPa 0,2 mm 24,6 km/h (4 Bft) W-SW 247 ° 0 min 0,000 mm 0,0 UV-I 26 W/m² 1,5 °C -1,6 °C 30,6 km/h (5 Bft)
09.12.2018 14:33 3,3 °C 88 % 1005,9 hPa 0,0 mm 18,2 km/h (3 Bft) W-NW 292 ° 0 min 0,000 mm 0,0 UV-I 28 W/m² 1,5 °C -0,8 °C 27,4 km/h (4 Bft)
09.12.2018 14:34 3,3 °C 89 % 1005,9 hPa 0,0 mm 14,4 km/h (3 Bft) W 273 ° 0 min 0,000 mm 0,0 UV-I 28 W/m² 1,7 °C -0,2 °C 20,9 km/h (4 Bft)
09.12.2018 14:35 3,3 °C 89 % 1005,8 hPa 0,0 mm 16,8 km/h (3 Bft) W-SW 252 ° 0 min 0,000 mm 0,0 UV-I 28 W/m² 1,7 °C -0,6 °C 22,5 km/h (4 Bft)
09.12.2018 14:36 3,3 °C 89 % 1005,9 hPa 0,0 mm 16,3 km/h (3 Bft) SW 232 ° 0 min 0,000 mm 0,0 UV-I 28 W/m² 1,7 °C -0,6 °C 25,7 km/h (4 Bft)
09.12.2018 14:37 3,2 °C 89 % 1005,8 hPa 0,2 mm 22,8 km/h (4 Bft) W 259 ° 0 min 0,000 mm 0,0 UV-I 26 W/m² 1,6 °C -1,5 °C 30,6 km/h (5 Bft)
09.12.2018 14:38 3,2 °C 89 % 1005,9 hPa 0,0 mm 16,9 km/h (3 Bft) W 259 ° 0 min 0,000 mm 0,0 UV-I 25 W/m² 1,6 °C -0,8 °C 22,5 km/h (4 Bft)
09.12.2018 14:39 3,1 °C 89 % 1005,9 hPa 0,0 mm 14,0 km/h (3 Bft) W 273 ° 0 min 0,000 mm 0,0 UV-I 19 W/m² 1,5 °C -0,4 °C 29,0 km/h (5 Bft)
09.12.2018 14:40 3,1 °C 89 % 1006,0 hPa 0,0 mm 13,7 km/h (3 Bft) W 262 ° 0 min 0,000 mm 0,0 UV-I 19 W/m² 1,5 °C -0,4 °C 20,9 km/h (4 Bft)
09.12.2018 14:41 3,1 °C 89 % 1006,0 hPa 0,0 mm 22,4 km/h (4 Bft) W 268 ° 0 min 0,000 mm 0,0 UV-I 21 W/m² 1,5 °C -1,6 °C 33,8 km/h (5 Bft)
09.12.2018 14:42 3,0 °C 89 % 1006,0 hPa 0,0 mm 17,2 km/h (3 Bft) W 259 ° 0 min 0,000 mm 0,0 UV-I 26 W/m² 1,4 °C -1,1 °C 24,1 km/h (4 Bft)
09.12.2018 14:43 3,0 °C 89 % 1005,9 hPa 0,2 mm 11,9 km/h (2 Bft) W 276 ° 0 min 0,000 mm 0,0 UV-I 28 W/m² 1,4 °C -0,1 °C 17,7 km/h (3 Bft)
09.12.2018 14:44 3,0 °C 89 % 1005,9 hPa 0,0 mm 15,3 km/h (3 Bft) W-NW 290 ° 0 min 0,000 mm 0,0 UV-I 30 W/m² 1,4 °C -0,8 °C 22,5 km/h (4 Bft)
09.12.2018 14:45 2,9 °C 89 % 1005,8 hPa 0,0 mm 13,7 km/h (3 Bft) SW 236 ° 0 min 0,000 mm 0,0 UV-I 35 W/m² 1,3 °C -0,6 °C 17,7 km/h (3 Bft)
09.12.2018 14:46 2,9 °C 89 % 1005,9 hPa 0,0 mm 9,9 km/h (2 Bft) W 279 ° 0 min 0,000 mm 0,0 UV-I 37 W/m² 1,3 °C 0,2 °C 12,9 km/h (3 Bft)
09.12.2018 14:47 2,9 °C 90 % 1005,9 hPa 0,2 mm 11,6 km/h (2 Bft) W 263 ° 0 min 0,000 mm 0,0 UV-I 37 W/m² 1,4 °C -0,2 °C 17,7 km/h (3 Bft)
09.12.2018 14:48 2,8 °C 90 % 1005,9 hPa 0,0 mm 13,0 km/h (3 Bft) W-SW 252 ° 0 min 0,000 mm 0,0 UV-I 30 W/m² 1,3 °C -0,6 °C 22,5 km/h (4 Bft)
09.12.2018 14:49 2,8 °C 90 % 1005,9 hPa 0,0 mm 13,2 km/h (3 Bft) W 263 ° 0 min 0,000 mm 0,0 UV-I 28 W/m² 1,3 °C -0,6 °C 17,7 km/h (3 Bft)
09.12.2018 14:50 2,7 °C 90 % 1006,0 hPa 0,0 mm 19,8 km/h (3 Bft) W-NW 284 ° 0 min 0,000 mm 0,0 UV-I 21 W/m² 1,2 °C -1,8 °C 29,0 km/h (5 Bft)
09.12.2018 14:51 2,7 °C 90 % 1006,0 hPa 0,0 mm 20,6 km/h (4 Bft) W-SW 256 ° 0 min 0,000 mm 0,0 UV-I 21 W/m² 1,2 °C -1,9 °C 37,0 km/h (5 Bft)
09.12.2018 14:52 2,7 °C 90 % 1006,0 hPa 0,0 mm 17,6 km/h (3 Bft) W-SW 256 ° 0 min 0,000 mm 0,0 UV-I 25 W/m² 1,2 °C -1,5 °C 35,4 km/h (5 Bft)
09.12.2018 14:53 2,7 °C 90 % 1006,1 hPa 0,0 mm 14,2 km/h (3 Bft) W 271 ° 0 min 0,000 mm 0,0 UV-I 26 W/m² 1,2 °C -0,9 °C 17,7 km/h (3 Bft)
09.12.2018 14:54 2,6 °C 90 % 1006,1 hPa 0,2 mm 13,9 km/h (3 Bft) W 269 ° 0 min 0,000 mm 0,0 UV-I 26 W/m² 1,1 °C -1,0 °C 17,7 km/h (3 Bft)
09.12.2018 14:55 2,6 °C 90 % 1006,1 hPa 0,0 mm 13,2 km/h (3 Bft) W 278 ° 0 min 0,000 mm 0,0 UV-I 26 W/m² 1,1 °C -0,9 °C 16,1 km/h (3 Bft)
09.12.2018 14:56 2,6 °C 90 % 1006,1 hPa 0,0 mm 10,8 km/h (2 Bft) W 274 ° 0 min 0,000 mm 0,0 UV-I 23 W/m² 1,1 °C -0,4 °C 14,5 km/h (3 Bft)
09.12.2018 14:57 2,5 °C 90 % 1006,1 hPa 0,0 mm 15,3 km/h (3 Bft) SW 223 ° 0 min 0,000 mm 0,0 UV-I 19 W/m² 1,0 °C -1,4 °C 20,9 km/h (4 Bft)
09.12.2018 14:58 2,4 °C 90 % 1006,2 hPa 0,0 mm 11,5 km/h (2 Bft) SW 223 ° 0 min 0,000 mm 0,0 UV-I 19 W/m² 0,9 °C -0,8 °C 22,5 km/h (4 Bft)
09.12.2018 14:59 2,4 °C 90 % 1006,2 hPa 0,0 mm 19,5 km/h (3 Bft) W-SW 250 ° 0 min 0,000 mm 0,0 UV-I 19 W/m² 0,9 °C -2,1 °C 27,4 km/h (4 Bft)
09.12.2018 15:00 2,4 °C 90 % 1006,2 hPa 0,0 mm 17,0 km/h (3 Bft) W 259 ° 0 min 0,000 mm 0,0 UV-I 21 W/m² 0,9 °C -1,8 °C 24,1 km/h (4 Bft)
09.12.2018 15:01 2,3 °C 90 % 1006,2 hPa 0,2 mm 19,8 km/h (3 Bft) W 261 ° 0 min 0,026 mm 0,0 UV-I 25 W/m² 0,8 °C -2,3 °C 32,2 km/h (5 Bft)
09.12.2018 15:02 2,3 °C 90 % 1006,2 hPa 0,0 mm 20,9 km/h (4 Bft) W-SW 237 ° 0 min 0,000 mm 0,0 UV-I 26 W/m² 0,8 °C -2,5 °C 27,4 km/h (4 Bft)
09.12.2018 15:03 2,3 °C 90 % 1006,3 hPa 0,0 mm 16,3 km/h (3 Bft) W-SW 257 ° 0 min 0,000 mm 0,0 UV-I 28 W/m² 0,8 °C -1,8 °C 25,7 km/h (4 Bft)
09.12.2018 15:04 2,3 °C 90 % 1006,3 hPa 0,0 mm 14,8 km/h (3 Bft) W 263 ° 0 min 0,000 mm 0,0 UV-I 30 W/m² 0,8 °C -1,5 °C 19,3 km/h (3 Bft)
09.12.2018 15:05 2,2 °C 91 % 1006,2 hPa 0,0 mm 17,5 km/h (3 Bft) W-SW 249 ° 0 min 0,000 mm 0,0 UV-I 30 W/m² 0,9 °C -2,1 °C 24,1 km/h (4 Bft)
09.12.2018 15:06 2,2 °C 90 % 1006,3 hPa 0,0 mm 17,3 km/h (3 Bft) W 264 ° 0 min 0,000 mm 0,0 UV-I 33 W/m² 0,7 °C -2,1 °C 22,5 km/h (4 Bft)
09.12.2018 15:07 2,2 °C 91 % 1006,3 hPa 0,0 mm 20,9 km/h (4 Bft) SW 236 ° 0 min 0,000 mm 0,0 UV-I 33 W/m² 0,9 °C -2,6 °C 29,0 km/h (5 Bft)
09.12.2018 15:08 2,2 °C 91 % 1006,3 hPa 0,0 mm 16,7 km/h (3 Bft) W-SW 258 ° 0 min 0,000 mm 0,0 UV-I 33 W/m² 0,9 °C -2,0 °C 24,1 km/h (4 Bft)
09.12.2018 15:09 2,2 °C 91 % 1006,3 hPa 0,2 mm 15,5 km/h (3 Bft) W 277 ° 0 min 0,000 mm 0,0 UV-I 37 W/m² 0,9 °C -1,8 °C 19,3 km/h (3 Bft)
09.12.2018 15:10 2,2 °C 91 % 1006,3 hPa 0,0 mm 18,4 km/h (3 Bft) W 263 ° 0 min 0,000 mm 0,0 UV-I 39 W/m² 0,9 °C -2,2 °C 24,1 km/h (4 Bft)
09.12.2018 15:11 2,1 °C 91 % 1006,3 hPa 0,0 mm 17,1 km/h (3 Bft) W-NW 292 ° 0 min 0,000 mm 0,0 UV-I 44 W/m² 0,8 °C -2,2 °C 22,5 km/h (4 Bft)
09.12.2018 15:12 2,1 °C 91 % 1006,2 hPa 0,0 mm 16,2 km/h (3 Bft) W 265 ° 0 min 0,000 mm 0,0 UV-I 49 W/m² 0,8 °C -2,0 °C 20,9 km/h (4 Bft)
09.12.2018 15:13 2,1 °C 91 % 1006,2 hPa 0,0 mm 17,1 km/h (3 Bft) W 272 ° 0 min 0,000 mm 0,0 UV-I 54 W/m² 0,8 °C -2,2 °C 20,9 km/h (4 Bft)
09.12.2018 15:14 2,1 °C 91 % 1006,2 hPa 0,0 mm 16,0 km/h (3 Bft) W 264 ° 0 min 0,000 mm 0,0 UV-I 60 W/m² 0,8 °C -2,0 °C 29,0 km/h (5 Bft)
09.12.2018 15:15 2,1 °C 91 % 1006,1 hPa 0,0 mm 17,1 km/h (3 Bft) W 261 ° 0 min 0,000 mm 0,0 UV-I 62 W/m² 0,8 °C -2,2 °C 25,7 km/h (4 Bft)
09.12.2018 15:16 2,1 °C 91 % 1006,1 hPa 0,0 mm 11,7 km/h (2 Bft) W-SW 255 ° 0 min 0,000 mm 0,0 UV-I 60 W/m² 0,8 °C -1,2 °C 19,3 km/h (3 Bft)
09.12.2018 15:17 2,1 °C 91 % 1006,1 hPa 0,0 mm 21,5 km/h (4 Bft) W-SW 238 ° 0 min 0,000 mm 0,0 UV-I 54 W/m² 0,8 °C -2,8 °C 32,2 km/h (5 Bft)
09.12.2018 15:18 2,1 °C 91 % 1005,9 hPa 0,0 mm 15,2 km/h (3 Bft) W-SW 253 ° 0 min 0,000 mm 0,0 UV-I 49 W/m² 0,8 °C -1,9 °C 17,7 km/h (3 Bft)
09.12.2018 15:19 2,1 °C 91 % 1006,0 hPa 0,0 mm 15,8 km/h (3 Bft) W 266 ° 0 min 0,000 mm 0,0 UV-I 46 W/m² 0,8 °C -2,0 °C 24,1 km/h (4 Bft)
09.12.2018 15:20 2,0 °C 91 % 1006,1 hPa 0,0 mm 12,2 km/h (2 Bft) W 271 ° 0 min 0,000 mm 0,0 UV-I 40 W/m² 0,7 °C -1,4 °C 20,9 km/h (4 Bft)
09.12.2018 15:21 2,0 °C 91 % 1006,0 hPa 0,0 mm 17,0 km/h (3 Bft) W-NW 297 ° 0 min 0,000 mm 0,0 UV-I 42 W/m² 0,7 °C -2,3 °C 22,5 km/h (4 Bft)
09.12.2018 15:22 2,0 °C 91 % 1006,0 hPa 0,0 mm 18,6 km/h (3 Bft) W-NW 288 ° 0 min 0,000 mm 0,0 UV-I 39 W/m² 0,7 °C -2,5 °C 27,4 km/h (4 Bft)
09.12.2018 15:23 2,0 °C 91 % 1006,1 hPa 0,0 mm 21,8 km/h (4 Bft) W 265 ° 0 min 0,000 mm 0,0 UV-I 37 W/m² 0,7 °C -3,0 °C 27,4 km/h (4 Bft)
09.12.2018 15:24 2,0 °C 91 % 1006,0 hPa 0,0 mm 12,2 km/h (2 Bft) W-NW 286 ° 0 min 0,000 mm 0,0 UV-I 37 W/m² 0,7 °C -1,4 °C 19,3 km/h (3 Bft)
09.12.2018 15:25 2,1 °C 91 % 1006,0 hPa 0,0 mm 17,6 km/h (3 Bft) W-SW 258 ° 0 min 0,000 mm 0,0 UV-I 37 W/m² 0,8 °C -2,2 °C 29,0 km/h (5 Bft)
09.12.2018 15:26 2,0 °C 92 % 1006,0 hPa 0,0 mm 19,5 km/h (3 Bft) W 269 ° 0 min 0,000 mm 0,0 UV-I 35 W/m² 0,8 °C -2,6 °C 24,1 km/h (4 Bft)
09.12.2018 15:27 2,0 °C 92 % 1006,0 hPa 0,0 mm 15,4 km/h (3 Bft) W-SW 242 ° 0 min 0,000 mm 0,0 UV-I 35 W/m² 0,8 °C -2,0 °C 22,5 km/h (4 Bft)
09.12.2018 15:28 2,0 °C 92 % 1005,9 hPa 0,0 mm 19,2 km/h (3 Bft) W 263 ° 0 min 0,000 mm 0,0 UV-I 33 W/m² 0,8 °C -2,6 °C 29,0 km/h (5 Bft)
09.12.2018 15:29 2,0 °C 92 % 1006,0 hPa 0,0 mm 22,1 km/h (4 Bft) W 273 ° 0 min 0,000 mm 0,0 UV-I 32 W/m² 0,8 °C -3,0 °C 30,6 km/h (5 Bft)
09.12.2018 15:30 2,0 °C 92 % 1005,9 hPa 0,0 mm 13,2 km/h (3 Bft) W 271 ° 0 min 0,000 mm 0,0 UV-I 30 W/m² 0,8 °C -1,6 °C 20,9 km/h (4 Bft)
09.12.2018 15:31 2,0 °C 92 % 1005,8 hPa 0,0 mm 12,0 km/h (2 Bft) W 274 ° 0 min 0,000 mm 0,0 UV-I 30 W/m² 0,8 °C -1,4 °C 14,5 km/h (3 Bft)
09.12.2018 15:32 2,1 °C 92 % 1005,9 hPa 0,0 mm 15,2 km/h (3 Bft) W 265 ° 0 min 0,000 mm 0,0 UV-I 25 W/m² 0,9 °C -1,9 °C 20,9 km/h (4 Bft)
09.12.2018 15:33 2,1 °C 92 % 1005,9 hPa 0,0 mm 20,7 km/h (4 Bft) W-SW 257 ° 0 min 0,000 mm 0,0 UV-I 21 W/m² 0,9 °C -2,7 °C 25,7 km/h (4 Bft)
09.12.2018 15:34 2,0 °C 92 % 1005,8 hPa 0,0 mm 15,7 km/h (3 Bft) W-SW 248 ° 0 min 0,000 mm 0,0 UV-I 18 W/m² 0,8 °C -2,1 °C 20,9 km/h (4 Bft)
09.12.2018 15:35 2,1 °C 92 % 1005,9 hPa 0,0 mm 21,8 km/h (4 Bft) W 267 ° 0 min 0,000 mm 0,0 UV-I 14 W/m² 0,9 °C -2,8 °C 30,6 km/h (5 Bft)
09.12.2018 15:36 2,1 °C 92 % 1005,8 hPa 0,0 mm 16,9 km/h (3 Bft) W 259 ° 0 min 0,000 mm 0,0 UV-I 12 W/m² 0,9 °C -2,1 °C 22,5 km/h (4 Bft)
09.12.2018 15:37 2,1 °C 92 % 1005,9 hPa 0,0 mm 16,1 km/h (3 Bft) W 277 ° 0 min 0,000 mm 0,0 UV-I 12 W/m² 0,9 °C -2,0 °C 24,1 km/h (4 Bft)
09.12.2018 15:38 2,1 °C 92 % 1005,9 hPa 0,0 mm 15,4 km/h (3 Bft) W 265 ° 0 min 0,000 mm 0,0 UV-I 11 W/m² 0,9 °C -1,9 °C 20,9 km/h (4 Bft)
09.12.2018 15:39 2,1 °C 92 % 1005,9 hPa 0,0 mm 15,7 km/h (3 Bft) W 273 ° 0 min 0,000 mm 0,0 UV-I 11 W/m² 0,9 °C -1,9 °C 20,9 km/h (4 Bft)
09.12.2018 15:40 2,1 °C 92 % 1005,9 hPa 0,0 mm 18,9 km/h (3 Bft) W 260 ° 0 min 0,000 mm 0,0 UV-I 9 W/m² 0,9 °C -2,4 °C 24,1 km/h (4 Bft)
09.12.2018 15:41 2,1 °C 92 % 1006,0 hPa 0,0 mm 20,5 km/h (4 Bft) W 271 ° 0 min 0,000 mm 0,0 UV-I 7 W/m² 0,9 °C -2,7 °C 27,4 km/h (4 Bft)
09.12.2018 15:42 2,1 °C 92 % 1006,0 hPa 0,0 mm 16,4 km/h (3 Bft) NW 306 ° 0 min 0,000 mm 0,0 UV-I 7 W/m² 0,9 °C -2,1 °C 20,9 km/h (4 Bft)
09.12.2018 15:43 2,1 °C 92 % 1006,0 hPa 0,0 mm 11,7 km/h (2 Bft) W-SW 252 ° 0 min 0,000 mm 0,0 UV-I 5 W/m² 0,9 °C -1,2 °C 20,9 km/h (4 Bft)
09.12.2018 15:44 2,2 °C 92 % 1006,1 hPa 0,0 mm 14,8 km/h (3 Bft) W 271 ° 0 min 0,000 mm 0,0 UV-I 5 W/m² 1,0 °C -1,7 °C 20,9 km/h (4 Bft)
09.12.2018 15:45 2,2 °C 92 % 1006,0 hPa 0,0 mm 14,4 km/h (3 Bft) W-SW 252 ° 0 min 0,000 mm 0,0 UV-I 5 W/m² 1,0 °C -1,6 °C 19,3 km/h (3 Bft)
09.12.2018 15:46 2,2 °C 92 % 1006,1 hPa 0,0 mm 17,8 km/h (3 Bft) W 259 ° 0 min 0,000 mm 0,0 UV-I 5 W/m² 1,0 °C -2,2 °C 27,4 km/h (4 Bft)
09.12.2018 15:47 2,2 °C 92 % 1006,1 hPa 0,0 mm 13,8 km/h (3 Bft) W 264 ° 0 min 0,000 mm 0,0 UV-I 5 W/m² 1,0 °C -1,5 °C 20,9 km/h (4 Bft)
09.12.2018 15:48 2,2 °C 92 % 1005,9 hPa 0,0 mm 15,5 km/h (3 Bft) W-SW 243 ° 0 min 0,000 mm 0,0 UV-I 5 W/m² 1,0 °C -1,8 °C 24,1 km/h (4 Bft)
09.12.2018 15:49 2,3 °C 92 % 1006,0 hPa 0,0 mm 16,0 km/h (3 Bft) W 266 ° 0 min 0,000 mm 0,0 UV-I 7 W/m² 1,1 °C -1,7 °C 25,7 km/h (4 Bft)
09.12.2018 15:50 2,3 °C 92 % 1006,0 hPa 0,0 mm 15,4 km/h (3 Bft) W 263 ° 0 min 0,000 mm 0,0 UV-I 7 W/m² 1,1 °C -1,6 °C 22,5 km/h (4 Bft)
09.12.2018 15:51 2,3 °C 92 % 1006,1 hPa 0,0 mm 22,2 km/h (4 Bft) W 260 ° 0 min 0,000 mm 0,0 UV-I 7 W/m² 1,1 °C -2,6 °C 32,2 km/h (5 Bft)
09.12.2018 15:52 2,3 °C 92 % 1005,9 hPa 0,0 mm 15,3 km/h (3 Bft) W 263 ° 0 min 0,000 mm 0,0 UV-I 7 W/m² 1,1 °C -1,6 °C 22,5 km/h (4 Bft)
09.12.2018 15:53 2,3 °C 92 % 1006,0 hPa 0,0 mm 13,5 km/h (3 Bft) W 269 ° 0 min 0,000 mm 0,0 UV-I 7 W/m² 1,1 °C -1,3 °C 20,9 km/h (4 Bft)
09.12.2018 15:54 2,3 °C 92 % 1006,0 hPa 0,2 mm 15,3 km/h (3 Bft) W-SW 246 ° 0 min 0,000 mm 0,0 UV-I 5 W/m² 1,1 °C -1,6 °C 20,9 km/h (4 Bft)
09.12.2018 15:55 2,3 °C 92 % 1006,1 hPa 0,0 mm 17,4 km/h (3 Bft) W-SW 247 ° 0 min 0,000 mm 0,0 UV-I 5 W/m² 1,1 °C -2,0 °C 27,4 km/h (4 Bft)
09.12.2018 15:56 2,4 °C 92 % 1006,1 hPa 0,0 mm 19,9 km/h (4 Bft) W 278 ° 0 min 0,000 mm 0,0 UV-I 5 W/m² 1,2 °C -2,2 °C 30,6 km/h (5 Bft)
09.12.2018 15:57 2,4 °C 92 % 1006,1 hPa 0,0 mm 19,1 km/h (3 Bft) W 263 ° 0 min 0,000 mm 0,0 UV-I 0 W/m² 1,2 °C -2,1 °C 24,1 km/h (4 Bft)
09.12.2018 15:58 2,4 °C 92 % 1006,1 hPa 0,0 mm 19,4 km/h (3 Bft) W 281 ° 0 min 0,000 mm 0,0 UV-I 0 W/m² 1,2 °C -2,1 °C 25,7 km/h (4 Bft)
09.12.2018 15:59 2,4 °C 92 % 1006,1 hPa 0,0 mm 17,3 km/h (3 Bft) W 261 ° 0 min 0,000 mm 0,0 UV-I 0 W/m² 1,2 °C -1,8 °C 25,7 km/h (4 Bft)
09.12.2018 16:00 2,4 °C 92 % 1006,1 hPa 0,0 mm 15,7 km/h (3 Bft) W 268 ° 0 min 0,000 mm 0,0 UV-I 0 W/m² 1,2 °C -1,6 °C 19,3 km/h (3 Bft)
09.12.2018 16:01 2,4 °C 92 % 1006,2 hPa 0,0 mm 16,7 km/h (3 Bft) SW 232 ° 0 min 0,025 mm 0,0 UV-I 0 W/m² 1,2 °C -1,7 °C 24,1 km/h (4 Bft)
09.12.2018 16:02 2,5 °C 92 % 1006,2 hPa 0,0 mm 13,7 km/h (3 Bft) W-SW 256 ° 0 min 0,000 mm 0,0 UV-I 0 W/m² 1,3 °C -1,1 °C 16,1 km/h (3 Bft)
09.12.2018 16:03 2,4 °C 92 % 1006,1 hPa 0,0 mm 13,1 km/h (3 Bft) W 266 ° 0 min 0,000 mm 0,0 UV-I 0 W/m² 1,2 °C -1,1 °C 20,9 km/h (4 Bft)
09.12.2018 16:04 2,5 °C 92 % 1006,2 hPa 0,0 mm 28,2 km/h (4 Bft) W 260 ° 0 min 0,000 mm 0,0 UV-I 0 W/m² 1,3 °C -3,0 °C 41,8 km/h (6 Bft)
09.12.2018 16:05 2,5 °C 92 % 1006,2 hPa 0,0 mm 18,0 km/h (3 Bft) W-SW 252 ° 0 min 0,000 mm 0,0 UV-I 0 W/m² 1,3 °C -1,8 °C 27,4 km/h (4 Bft)
09.12.2018 16:06 2,6 °C 92 % 1006,0 hPa 0,0 mm 17,8 km/h (3 Bft) W-SW 249 ° 0 min 0,000 mm 0,0 UV-I 0 W/m² 1,4 °C -1,7 °C 24,1 km/h (4 Bft)
09.12.2018 16:07 2,6 °C 92 % 1006,0 hPa 0,0 mm 21,1 km/h (4 Bft) W-SW 257 ° 0 min 0,000 mm 0,0 UV-I 0 W/m² 1,4 °C -2,1 °C 27,4 km/h (4 Bft)
09.12.2018 16:08 2,6 °C 92 % 1006,1 hPa 0,0 mm 16,2 km/h (3 Bft) W 277 ° 0 min 0,000 mm 0,0 UV-I 0 W/m² 1,4 °C -1,4 °C 22,5 km/h (4 Bft)
09.12.2018 16:09 2,6 °C 92 % 1006,0 hPa 0,0 mm 12,4 km/h (3 Bft) SW 236 ° 0 min 0,000 mm 0,0 UV-I 0 W/m² 1,4 °C -0,7 °C 19,3 km/h (3 Bft)
09.12.2018 16:10 2,6 °C 92 % 1006,1 hPa 0,0 mm 16,5 km/h (3 Bft) W-NW 287 ° 0 min 0,000 mm 0,0 UV-I 0 W/m² 1,4 °C -1,5 °C 29,0 km/h (5 Bft)
09.12.2018 16:11 2,7 °C 92 % 1006,1 hPa 0,0 mm 13,3 km/h (3 Bft) W-SW 256 ° 0 min 0,000 mm 0,0 UV-I 0 W/m² 1,5 °C -0,8 °C 25,7 km/h (4 Bft)
09.12.2018 16:12 2,7 °C 92 % 1006,1 hPa 0,0 mm 14,7 km/h (3 Bft) W-NW 291 ° 0 min 0,000 mm 0,0 UV-I 0 W/m² 1,5 °C -1,0 °C 29,0 km/h (5 Bft)
09.12.2018 16:13 2,7 °C 92 % 1006,1 hPa 0,0 mm 19,7 km/h (3 Bft) W 269 ° 0 min 0,000 mm 0,0 UV-I 0 W/m² 1,5 °C -1,8 °C 25,7 km/h (4 Bft)
09.12.2018 16:14 2,7 °C 92 % 1006,0 hPa 0,0 mm 15,9 km/h (3 Bft) S-SW 199 ° 0 min 0,000 mm 0,0 UV-I 0 W/m² 1,5 °C -1,2 °C 24,1 km/h (4 Bft)
09.12.2018 16:15 2,7 °C 92 % 1006,1 hPa 0,0 mm 22,2 km/h (4 Bft) W-SW 244 ° 0 min 0,000 mm 0,0 UV-I 0 W/m² 1,5 °C -2,1 °C 29,0 km/h (5 Bft)
09.12.2018 16:16 2,7 °C 92 % 1006,1 hPa 0,0 mm 23,6 km/h (4 Bft) W 273 ° 0 min 0,000 mm 0,0 UV-I 0 W/m² 1,5 °C -2,3 °C 35,4 km/h (5 Bft)
09.12.2018 16:17 2,8 °C 92 % 1006,0 hPa 0,0 mm 12,6 km/h (3 Bft) W-SW 250 ° 0 min 0,000 mm 0,0 UV-I 0 W/m² 1,6 °C -0,5 °C 16,1 km/h (3 Bft)
09.12.2018 16:18 2,8 °C 92 % 1005,9 hPa 0,0 mm 12,1 km/h (2 Bft) W-SW 248 ° 0 min 0,000 mm 0,0 UV-I 0 W/m² 1,6 °C -0,4 °C 19,3 km/h (3 Bft)
09.12.2018 16:19 2,8 °C 92 % 1005,9 hPa 0,0 mm 12,5 km/h (3 Bft) W 261 ° 0 min 0,000 mm 0,0 UV-I 0 W/m² 1,6 °C -0,5 °C 16,1 km/h (3 Bft)
09.12.2018 16:20 2,8 °C 92 % 1005,8 hPa 0,0 mm 15,9 km/h (3 Bft) W-SW 242 ° 0 min 0,000 mm 0,0 UV-I 0 W/m² 1,6 °C -1,1 °C 22,5 km/h (4 Bft)
09.12.2018 16:21 2,8 °C 92 % 1005,9 hPa 0,0 mm 16,4 km/h (3 Bft) W-SW 248 ° 0 min 0,000 mm 0,0 UV-I 0 W/m² 1,6 °C -1,2 °C 24,1 km/h (4 Bft)
09.12.2018 16:22 2,8 °C 92 % 1005,8 hPa 0,0 mm 16,8 km/h (3 Bft) W 260 ° 0 min 0,000 mm 0,0 UV-I 0 W/m² 1,6 °C -1,3 °C 25,7 km/h (4 Bft)
09.12.2018 16:23 2,9 °C 92 % 1005,9 hPa 0,0 mm 15,5 km/h (3 Bft) W 261 ° 0 min 0,000 mm 0,0 UV-I 0 W/m² 1,7 °C -0,9 °C 20,9 km/h (4 Bft)
09.12.2018 16:24 2,9 °C 92 % 1005,8 hPa 0,0 mm 11,9 km/h (2 Bft) W-NW 287 ° 0 min 0,000 mm 0,0 UV-I 0 W/m² 1,7 °C -0,3 °C 16,1 km/h (3 Bft)
09.12.2018 16:25 2,9 °C 92 % 1005,7 hPa 0,0 mm 13,8 km/h (3 Bft) W-SW 257 ° 0 min 0,000 mm 0,0 UV-I 0 W/m² 1,7 °C -0,6 °C 19,3 km/h (3 Bft)
09.12.2018 16:26 2,9 °C 92 % 1005,8 hPa 0,0 mm 16,9 km/h (3 Bft) W 269 ° 0 min 0,000 mm 0,0 UV-I 0 W/m² 1,7 °C -1,1 °C 27,4 km/h (4 Bft)
09.12.2018 16:27 2,9 °C 92 % 1005,8 hPa 0,0 mm 10,8 km/h (2 Bft) W-SW 257 ° 0 min 0,000 mm 0,0 UV-I 0 W/m² 1,7 °C -0,0 °C 17,7 km/h (3 Bft)
09.12.2018 16:28 2,9 °C 92 % 1005,8 hPa 0,0 mm 15,4 km/h (3 Bft) SW 234 ° 0 min 0,000 mm 0,0 UV-I 0 W/m² 1,7 °C -0,9 °C 25,7 km/h (4 Bft)
09.12.2018 16:29 2,9 °C 92 % 1005,9 hPa 0,0 mm 13,4 km/h (3 Bft) W 266 ° 0 min 0,000 mm 0,0 UV-I 0 W/m² 1,7 °C -0,6 °C 20,9 km/h (4 Bft)
09.12.2018 16:30 2,9 °C 92 % 1005,9 hPa 0,0 mm 14,1 km/h (3 Bft) W-SW 244 ° 0 min 0,000 mm 0,0 UV-I 0 W/m² 1,7 °C -0,7 °C 17,7 km/h (3 Bft)
09.12.2018 16:31 2,9 °C 92 % 1006,0 hPa 0,0 mm 13,6 km/h (3 Bft) W-SW 254 ° 0 min 0,000 mm 0,0 UV-I 0 W/m² 1,7 °C -0,6 °C 19,3 km/h (3 Bft)
09.12.2018 16:32 2,9 °C 91 % 1006,1 hPa 0,0 mm 18,7 km/h (3 Bft) W-SW 254 ° 0 min 0,000 mm 0,0 UV-I 0 W/m² 1,6 °C -1,4 °C 30,6 km/h (5 Bft)
09.12.2018 16:33 2,9 °C 92 % 1005,9 hPa 0,0 mm 10,8 km/h (2 Bft) W 263 ° 0 min 0,000 mm 0,0 UV-I 0 W/m² 1,7 °C -0,0 °C 14,5 km/h (3 Bft)
09.12.2018 16:34 2,9 °C 92 % 1006,0 hPa 0,0 mm 12,7 km/h (3 Bft) W 267 ° 0 min 0,000 mm 0,0 UV-I 0 W/m² 1,7 °C -0,4 °C 16,1 km/h (3 Bft)
09.12.2018 16:35 2,9 °C 92 % 1006,1 hPa 0,0 mm 18,0 km/h (3 Bft) W-SW 254 ° 0 min 0,000 mm 0,0 UV-I 0 W/m² 1,7 °C -1,3 °C 25,7 km/h (4 Bft)
09.12.2018 16:36 2,9 °C 92 % 1006,2 hPa 0,0 mm 14,2 km/h (3 Bft) W 269 ° 0 min 0,000 mm 0,0 UV-I 0 W/m² 1,7 °C -0,7 °C 24,1 km/h (4 Bft)
09.12.2018 16:37 2,9 °C 92 % 1006,2 hPa 0,0 mm 11,9 km/h (2 Bft) W-SW 255 ° 0 min 0,000 mm 0,0 UV-I 0 W/m² 1,7 °C -0,3 °C 16,1 km/h (3 Bft)
09.12.2018 16:38 3,0 °C 92 % 1006,2 hPa 0,0 mm 11,9 km/h (2 Bft) NW 307 ° 0 min 0,000 mm 0,0 UV-I 0 W/m² 1,8 °C -0,1 °C 16,1 km/h (3 Bft)
09.12.2018 16:39 3,0 °C 92 % 1006,1 hPa 0,0 mm 13,3 km/h (3 Bft) W-NW 290 ° 0 min 0,000 mm 0,0 UV-I 0 W/m² 1,8 °C -0,4 °C 22,5 km/h (4 Bft)
09.12.2018 16:40 3,0 °C 92 % 1006,2 hPa 0,0 mm 21,3 km/h (4 Bft) W-SW 245 ° 0 min 0,000 mm 0,0 UV-I 0 W/m² 1,8 °C -1,6 °C 29,0 km/h (5 Bft)
09.12.2018 16:41 3,1 °C 92 % 1006,2 hPa 0,2 mm 15,4 km/h (3 Bft) W-NW 284 ° 0 min 0,000 mm 0,0 UV-I 0 W/m² 1,9 °C -0,7 °C 20,9 km/h (4 Bft)
09.12.2018 16:42 3,0 °C 92 % 1006,2 hPa 0,0 mm 16,9 km/h (3 Bft) W 275 ° 0 min 0,000 mm 0,0 UV-I 0 W/m² 1,8 °C -1,0 °C 22,5 km/h (4 Bft)
09.12.2018 16:43 3,0 °C 91 % 1006,2 hPa 0,0 mm 17,2 km/h (3 Bft) W 263 ° 0 min 0,000 mm 0,0 UV-I 0 W/m² 1,7 °C -1,1 °C 22,5 km/h (4 Bft)
09.12.2018 16:44 3,1 °C 91 % 1006,3 hPa 0,0 mm 14,1 km/h (3 Bft) W 263 ° 0 min 0,000 mm 0,0 UV-I 0 W/m² 1,8 °C -0,4 °C 17,7 km/h (3 Bft)
09.12.2018 16:45 3,1 °C 91 % 1006,3 hPa 0,0 mm 19,1 km/h (3 Bft) W 281 ° 0 min 0,000 mm 0,0 UV-I 0 W/m² 1,8 °C -1,2 °C 24,1 km/h (4 Bft)
09.12.2018 16:46 3,1 °C 91 % 1006,3 hPa 0,0 mm 20,2 km/h (4 Bft) W 265 ° 0 min 0,000 mm 0,0 UV-I 0 W/m² 1,8 °C -1,4 °C 25,7 km/h (4 Bft)
09.12.2018 16:47 3,1 °C 91 % 1006,4 hPa 0,0 mm 12,2 km/h (2 Bft) NW 309 ° 0 min 0,000 mm 0,0 UV-I 0 W/m² 1,8 °C -0,1 °C 22,5 km/h (4 Bft)
09.12.2018 16:48 3,1 °C 91 % 1006,3 hPa 0,2 mm 12,9 km/h (3 Bft) W 262 ° 0 min 0,000 mm 0,0 UV-I 0 W/m² 1,8 °C -0,2 °C 24,1 km/h (4 Bft)
09.12.2018 16:49 3,1 °C 91 % 1006,3 hPa 0,0 mm 15,7 km/h (3 Bft) W 273 ° 0 min 0,000 mm 0,0 UV-I 0 W/m² 1,8 °C -0,7 °C 20,9 km/h (4 Bft)
09.12.2018 16:50 3,1 °C 91 % 1006,3 hPa 0,0 mm 8,9 km/h (2 Bft) W-NW 302 ° 0 min 0,000 mm 0,0 UV-I 0 W/m² 1,8 °C 0,7 °C 12,9 km/h (3 Bft)
09.12.2018 16:51 3,1 °C 91 % 1006,3 hPa 0,0 mm 17,5 km/h (3 Bft) W 265 ° 0 min 0,000 mm 0,0 UV-I 0 W/m² 1,8 °C -1,0 °C 19,3 km/h (3 Bft)
09.12.2018 16:52 3,0 °C 91 % 1006,3 hPa 0,0 mm 15,8 km/h (3 Bft) SW 214 ° 0 min 0,000 mm 0,0 UV-I 0 W/m² 1,7 °C -0,8 °C 24,1 km/h (4 Bft)
09.12.2018 16:53 3,0 °C 91 % 1006,5 hPa 0,2 mm 14,4 km/h (3 Bft) W-NW 294 ° 0 min 0,000 mm 0,0 UV-I 0 W/m² 1,7 °C -0,6 °C 24,1 km/h (4 Bft)
09.12.2018 16:54 3,0 °C 91 % 1006,5 hPa 0,0 mm 12,5 km/h (3 Bft) W-SW 252 ° 0 min 0,000 mm 0,0 UV-I 0 W/m² 1,7 °C -0,3 °C 22,5 km/h (4 Bft)
09.12.2018 16:55 3,0 °C 91 % 1006,5 hPa 0,0 mm 11,3 km/h (2 Bft) W-SW 257 ° 0 min 0,000 mm 0,0 UV-I 0 W/m² 1,7 °C -0,0 °C 17,7 km/h (3 Bft)
09.12.2018 16:56 3,0 °C 91 % 1006,4 hPa 0,0 mm 13,8 km/h (3 Bft) W 280 ° 0 min 0,000 mm 0,0 UV-I 0 W/m² 1,7 °C -0,5 °C 19,3 km/h (3 Bft)
09.12.2018 16:57 2,9 °C 91 % 1006,5 hPa 0,2 mm 12,0 km/h (2 Bft) SW 236 ° 0 min 0,000 mm 0,0 UV-I 0 W/m² 1,6 °C -0,3 °C 19,3 km/h (3 Bft)
09.12.2018 16:58 2,9 °C 91 % 1006,5 hPa 0,0 mm 12,6 km/h (3 Bft) W 279 ° 0 min 0,000 mm 0,0 UV-I 0 W/m² 1,6 °C -0,4 °C 24,1 km/h (4 Bft)
09.12.2018 16:59 2,9 °C 91 % 1006,3 hPa 0,0 mm 10,1 km/h (2 Bft) W 261 ° 0 min 0,000 mm 0,0 UV-I 0 W/m² 1,6 °C 0,1 °C 17,7 km/h (3 Bft)
09.12.2018 17:00 2,8 °C 91 % 1006,4 hPa 0,2 mm 17,5 km/h (3 Bft) W 264 ° 0 min 0,000 mm 0,0 UV-I 0 W/m² 1,5 °C -1,4 °C 22,5 km/h (4 Bft)
09.12.2018 17:01 2,8 °C 91 % 1006,3 hPa 0,0 mm 12,2 km/h (2 Bft) W-SW 241 ° 0 min 0,000 mm 0,0 UV-I 0 W/m² 1,5 °C -0,4 °C 19,3 km/h (3 Bft)
09.12.2018 17:02 2,8 °C 91 % 1006,4 hPa 0,2 mm 10,1 km/h (2 Bft) W 264 ° 0 min 0,000 mm 0,0 UV-I 0 W/m² 1,5 °C 0,0 °C 16,1 km/h (3 Bft)
09.12.2018 17:03 2,7 °C 91 % 1006,3 hPa 0,0 mm 9,0 km/h (2 Bft) W 260 ° 0 min 0,000 mm 0,0 UV-I 0 W/m² 1,4 °C 0,2 °C 12,9 km/h (3 Bft)
09.12.2018 17:04 2,7 °C 91 % 1006,3 hPa 0,0 mm 9,8 km/h (2 Bft) W-SW 244 ° 0 min 0,000 mm 0,0 UV-I 0 W/m² 1,4 °C -0,0 °C 14,5 km/h (3 Bft)
09.12.2018 17:05 2,7 °C 91 % 1006,3 hPa 0,0 mm 7,6 km/h (2 Bft) W-SW 253 ° 0 min 0,000 mm 0,0 UV-I 0 W/m² 1,4 °C 0,6 °C 12,9 km/h (3 Bft)
09.12.2018 17:06 2,7 °C 91 % 1006,3 hPa 0,2 mm 16,5 km/h (3 Bft) W 274 ° 0 min 0,000 mm 0,0 UV-I 0 W/m² 1,4 °C -1,3 °C 24,1 km/h (4 Bft)
09.12.2018 17:07 2,6 °C 91 % 1006,4 hPa 0,0 mm 18,1 km/h (3 Bft) W-NW 293 ° 0 min 0,000 mm 0,0 UV-I 0 W/m² 1,3 °C -1,7 °C 24,1 km/h (4 Bft)
09.12.2018 17:08 2,6 °C 91 % 1006,3 hPa 0,0 mm 12,7 km/h (3 Bft) W-SW 239 ° 0 min 0,000 mm 0,0 UV-I 0 W/m² 1,3 °C -0,8 °C 16,1 km/h (3 Bft)
09.12.2018 17:09 2,6 °C 91 % 1006,4 hPa 0,0 mm 13,2 km/h (3 Bft) W 259 ° 0 min 0,000 mm 0,0 UV-I 0 W/m² 1,3 °C -0,9 °C 20,9 km/h (4 Bft)
09.12.2018 17:10 2,6 °C 91 % 1006,4 hPa 0,0 mm 8,9 km/h (2 Bft) W-SW 246 ° 0 min 0,000 mm 0,0 UV-I 0 W/m² 1,3 °C 0,1 °C 17,7 km/h (3 Bft)
09.12.2018 17:11 2,6 °C 91 % 1006,3 hPa 0,0 mm 12,5 km/h (3 Bft) W 277 ° 0 min 0,000 mm 0,0 UV-I 0 W/m² 1,3 °C -0,8 °C 17,7 km/h (3 Bft)
09.12.2018 17:12 2,6 °C 91 % 1006,3 hPa 0,0 mm 13,1 km/h (3 Bft) W-SW 256 ° 0 min 0,000 mm 0,0 UV-I 0 W/m² 1,3 °C -0,9 °C 19,3 km/h (3 Bft)
09.12.2018 17:13 2,6 °C 91 % 1006,3 hPa 0,0 mm 8,9 km/h (2 Bft) W-SW 257 ° 0 min 0,000 mm 0,0 UV-I 0 W/m² 1,3 °C 0,1 °C 14,5 km/h (3 Bft)
09.12.2018 17:14 2,6 °C 91 % 1006,3 hPa 0,0 mm 12,5 km/h (3 Bft) W-SW 240 ° 0 min 0,000 mm 0,0 UV-I 0 W/m² 1,3 °C -0,8 °C 19,3 km/h (3 Bft)
09.12.2018 17:15 2,6 °C 91 % 1006,4 hPa 0,0 mm 11,1 km/h (2 Bft) W-SW 244 ° 0 min 0,000 mm 0,0 UV-I 0 W/m² 1,3 °C -0,5 °C 17,7 km/h (3 Bft)
09.12.2018 17:16 2,6 °C 91 % 1006,3 hPa 0,0 mm 8,4 km/h (2 Bft) W-SW 246 ° 0 min 0,000 mm 0,0 UV-I 0 W/m² 1,3 °C 0,2 °C 16,1 km/h (3 Bft)
09.12.2018 17:17 2,6 °C 91 % 1006,5 hPa 0,0 mm 12,2 km/h (2 Bft) W-SW 249 ° 0 min 0,000 mm 0,0 UV-I 0 W/m² 1,3 °C -0,7 °C 17,7 km/h (3 Bft)
09.12.2018 17:18 2,5 °C 92 % 1006,5 hPa 0,0 mm 12,9 km/h (3 Bft) SW 232 ° 0 min 0,000 mm 0,0 UV-I 0 W/m² 1,3 °C -1,0 °C 19,3 km/h (3 Bft)
09.12.2018 17:19 2,5 °C 92 % 1006,5 hPa 0,0 mm 12,2 km/h (2 Bft) W-SW 245 ° 0 min 0,000 mm 0,0 UV-I 0 W/m² 1,3 °C -0,8 °C 20,9 km/h (4 Bft)
09.12.2018 17:20 2,5 °C 92 % 1006,5 hPa 0,0 mm 11,8 km/h (2 Bft) W 268 ° 0 min 0,000 mm 0,0 UV-I 0 W/m² 1,3 °C -0,7 °C 17,7 km/h (3 Bft)
09.12.2018 17:21 2,6 °C 92 % 1006,5 hPa 0,0 mm 6,6 km/h (2 Bft) W-SW 246 ° 0 min 0,000 mm 0,0 UV-I 0 W/m² 1,4 °C 0,8 °C 11,3 km/h (2 Bft)
09.12.2018 17:22 2,6 °C 92 % 1006,5 hPa 0,2 mm 8,0 km/h (2 Bft) W 269 ° 0 min 0,000 mm 0,0 UV-I 0 W/m² 1,4 °C 0,3 °C 11,3 km/h (2 Bft)
09.12.2018 17:23 2,6 °C 92 % 1006,5 hPa 0,0 mm 6,0 km/h (2 Bft) W-SW 246 ° 0 min 0,000 mm 0,0 UV-I 0 W/m² 1,4 °C 1,0 °C 11,3 km/h (2 Bft)
09.12.2018 17:24 2,6 °C 92 % 1006,5 hPa 0,0 mm 9,3 km/h (2 Bft) W 263 ° 0 min 0,000 mm 0,0 UV-I 0 W/m² 1,4 °C -0,0 °C 16,1 km/h (3 Bft)
09.12.2018 17:25 2,6 °C 92 % 1006,4 hPa 0,0 mm 14,3 km/h (3 Bft) W 265 ° 0 min 0,000 mm 0,0 UV-I 0 W/m² 1,4 °C -1,1 °C 22,5 km/h (4 Bft)
09.12.2018 17:26 2,6 °C 92 % 1006,5 hPa 0,0 mm 16,0 km/h (3 Bft) W-SW 243 ° 0 min 0,000 mm 0,0 UV-I 0 W/m² 1,4 °C -1,4 °C 20,9 km/h (4 Bft)
09.12.2018 17:27 2,6 °C 92 % 1006,5 hPa 0,0 mm 16,9 km/h (3 Bft) W-SW 255 ° 0 min 0,000 mm 0,0 UV-I 0 W/m² 1,4 °C -1,5 °C 25,7 km/h (4 Bft)
09.12.2018 17:28 2,6 °C 92 % 1006,5 hPa 0,0 mm 14,6 km/h (3 Bft) W-NW 284 ° 0 min 0,000 mm 0,0 UV-I 0 W/m² 1,4 °C -1,1 °C 24,1 km/h (4 Bft)
09.12.2018 17:29 2,6 °C 92 % 1006,5 hPa 0,0 mm 14,1 km/h (3 Bft) W-SW 250 ° 0 min 0,000 mm 0,0 UV-I 0 W/m² 1,4 °C -1,1 °C 20,9 km/h (4 Bft)
09.12.2018 17:30 2,6 °C 92 % 1006,6 hPa 0,0 mm 14,8 km/h (3 Bft) W 275 ° 0 min 0,000 mm 0,0 UV-I 0 W/m² 1,4 °C -1,2 °C 22,5 km/h (4 Bft)
09.12.2018 17:31 2,6 °C 92 % 1006,6 hPa 0,0 mm 18,6 km/h (3 Bft) W-NW 282 ° 0 min 0,000 mm 0,0 UV-I 0 W/m² 1,4 °C -1,8 °C 24,1 km/h (4 Bft)
09.12.2018 17:32 2,7 °C 92 % 1006,6 hPa 0,0 mm 10,1 km/h (2 Bft) W 264 ° 0 min 0,000 mm 0,0 UV-I 0 W/m² 1,5 °C -0,1 °C 16,1 km/h (3 Bft)
09.12.2018 17:33 2,6 °C 92 % 1006,6 hPa 0,0 mm 13,9 km/h (3 Bft) W-NW 288 ° 0 min 0,000 mm 0,0 UV-I 0 W/m² 1,4 °C -1,0 °C 19,3 km/h (3 Bft)
09.12.2018 17:34 2,7 °C 92 % 1006,6 hPa 0,0 mm 15,8 km/h (3 Bft) SW 228 ° 0 min 0,000 mm 0,0 UV-I 0 W/m² 1,5 °C -1,2 °C 25,7 km/h (4 Bft)
09.12.2018 17:35 2,7 °C 92 % 1006,6 hPa 0,2 mm 22,5 km/h (4 Bft) W 275 ° 0 min 0,000 mm 0,0 UV-I 0 W/m² 1,5 °C -2,2 °C 29,0 km/h (5 Bft)
09.12.2018 17:36 2,7 °C 92 % 1006,6 hPa 0,0 mm 16,8 km/h (3 Bft) SW 224 ° 0 min 0,000 mm 0,0 UV-I 0 W/m² 1,5 °C -1,4 °C 24,1 km/h (4 Bft)
09.12.2018 17:37 2,7 °C 92 % 1006,6 hPa 0,0 mm 14,6 km/h (3 Bft) W 260 ° 0 min 0,000 mm 0,0 UV-I 0 W/m² 1,5 °C -1,0 °C 22,5 km/h (4 Bft)
09.12.2018 17:38 2,7 °C 92 % 1006,7 hPa 0,0 mm 17,3 km/h (3 Bft) W 259 ° 0 min 0,000 mm 0,0 UV-I 0 W/m² 1,5 °C -1,5 °C 22,5 km/h (4 Bft)
09.12.2018 17:39 2,7 °C 92 % 1006,7 hPa 0,0 mm 17,9 km/h (3 Bft) W 265 ° 0 min 0,000 mm 0,0 UV-I 0 W/m² 1,5 °C -1,5 °C 24,1 km/h (4 Bft)
09.12.2018 17:40 2,7 °C 92 % 1006,8 hPa 0,0 mm 13,4 km/h (3 Bft) W 272 ° 0 min 0,000 mm 0,0 UV-I 0 W/m² 1,5 °C -0,8 °C 25,7 km/h (4 Bft)
09.12.2018 17:41 2,8 °C 92 % 1006,6 hPa 0,0 mm 10,7 km/h (2 Bft) W-SW 246 ° 0 min 0,000 mm 0,0 UV-I 0 W/m² 1,6 °C -0,1 °C 14,5 km/h (3 Bft)
09.12.2018 17:42 2,8 °C 92 % 1006,7 hPa 0,0 mm 15,1 km/h (3 Bft) W-NW 284 ° 0 min 0,000 mm 0,0 UV-I 0 W/m² 1,6 °C -1,0 °C 20,9 km/h (4 Bft)
09.12.2018 17:43 2,8 °C 92 % 1006,8 hPa 0,0 mm 16,4 km/h (3 Bft) SW 220 ° 0 min 0,000 mm 0,0 UV-I 0 W/m² 1,6 °C -1,2 °C 22,5 km/h (4 Bft)
09.12.2018 17:44 2,8 °C 92 % 1006,8 hPa 0,0 mm 16,4 km/h (3 Bft) W 271 ° 0 min 0,000 mm 0,0 UV-I 0 W/m² 1,6 °C -1,2 °C 25,7 km/h (4 Bft)
09.12.2018 17:45 2,8 °C 92 % 1006,8 hPa 0,0 mm 17,5 km/h (3 Bft) W 266 ° 0 min 0,000 mm 0,0 UV-I 0 W/m² 1,6 °C -1,4 °C 29,0 km/h (5 Bft)
09.12.2018 17:46 2,8 °C 92 % 1006,8 hPa 0,0 mm 13,0 km/h (3 Bft) W-SW 250 ° 0 min 0,000 mm 0,0 UV-I 0 W/m² 1,6 °C -0,6 °C 17,7 km/h (3 Bft)
09.12.2018 17:47 2,8 °C 92 % 1006,9 hPa 0,0 mm 10,6 km/h (2 Bft) W-SW 242 ° 0 min 0,000 mm 0,0 UV-I 0 W/m² 1,6 °C -0,1 °C 16,1 km/h (3 Bft)
09.12.2018 17:48 2,8 °C 92 % 1006,8 hPa 0,0 mm 12,7 km/h (3 Bft) W 276 ° 0 min 0,000 mm 0,0 UV-I 0 W/m² 1,6 °C -0,5 °C 17,7 km/h (3 Bft)
09.12.2018 17:49 2,8 °C 92 % 1006,9 hPa 0,0 mm 19,0 km/h (3 Bft) W 266 ° 0 min 0,000 mm 0,0 UV-I 0 W/m² 1,6 °C -1,6 °C 30,6 km/h (5 Bft)
09.12.2018 17:50 2,8 °C 92 % 1006,8 hPa 0,0 mm 16,7 km/h (3 Bft) W 262 ° 0 min 0,000 mm 0,0 UV-I 0 W/m² 1,6 °C -1,2 °C 25,7 km/h (4 Bft)
09.12.2018 17:51 2,8 °C 92 % 1006,8 hPa 0,0 mm 11,0 km/h (2 Bft) W-NW 287 ° 0 min 0,000 mm 0,0 UV-I 0 W/m² 1,6 °C -0,2 °C 19,3 km/h (3 Bft)
09.12.2018 17:52 2,9 °C 92 % 1006,9 hPa 0,0 mm 24,3 km/h (4 Bft) W 275 ° 0 min 0,000 mm 0,0 UV-I 0 W/m² 1,7 °C -2,1 °C 30,6 km/h (5 Bft)
09.12.2018 17:53 2,9 °C 92 % 1006,7 hPa 0,0 mm 17,5 km/h (3 Bft) W 261 ° 0 min 0,000 mm 0,0 UV-I 0 W/m² 1,7 °C -1,2 °C 30,6 km/h (5 Bft)
09.12.2018 17:54 2,9 °C 92 % 1006,8 hPa 0,0 mm 16,9 km/h (3 Bft) W-SW 250 ° 0 min 0,000 mm 0,0 UV-I 0 W/m² 1,7 °C -1,1 °C 22,5 km/h (4 Bft)
09.12.2018 17:55 2,9 °C 92 % 1006,8 hPa 0,0 mm 16,0 km/h (3 Bft) SW 221 ° 0 min 0,000 mm 0,0 UV-I 0 W/m² 1,7 °C -1,0 °C 37,0 km/h (5 Bft)
09.12.2018 17:56 2,9 °C 92 % 1006,8 hPa 0,0 mm 19,6 km/h (3 Bft) W-NW 283 ° 0 min 0,000 mm 0,0 UV-I 0 W/m² 1,7 °C -1,5 °C 33,8 km/h (5 Bft)
09.12.2018 17:57 2,9 °C 92 % 1006,8 hPa 0,0 mm 15,2 km/h (3 Bft) W 268 ° 0 min 0,000 mm 0,0 UV-I 0 W/m² 1,7 °C -0,9 °C 25,7 km/h (4 Bft)
09.12.2018 17:58 2,9 °C 92 % 1006,8 hPa 0,0 mm 18,8 km/h (3 Bft) W 273 ° 0 min 0,000 mm 0,0 UV-I 0 W/m² 1,7 °C -1,4 °C 25,7 km/h (4 Bft)
09.12.2018 17:59 2,9 °C 92 % 1006,9 hPa 0,0 mm 13,0 km/h (3 Bft) W 263 ° 0 min 0,000 mm 0,0 UV-I 0 W/m² 1,7 °C -0,5 °C 19,3 km/h (3 Bft)
09.12.2018 18:00 2,9 °C 92 % 1006,9 hPa 0,0 mm 16,5 km/h (3 Bft) W 268 ° 0 min 0,000 mm 0,0 UV-I 0 W/m² 1,7 °C -1,1 °C 37,0 km/h (5 Bft)
09.12.2018 18:01 2,9 °C 92 % 1006,8 hPa 0,0 mm 23,6 km/h (4 Bft) W 265 ° 0 min 0,000 mm 0,0 UV-I 0 W/m² 1,7 °C -2,0 °C 33,8 km/h (5 Bft)
09.12.2018 18:02 2,9 °C 92 % 1006,8 hPa 0,0 mm 22,6 km/h (4 Bft) W 267 ° 0 min 0,000 mm 0,0 UV-I 0 W/m² 1,7 °C -1,9 °C 29,0 km/h (5 Bft)
09.12.2018 18:03 2,9 °C 92 % 1006,8 hPa 0,0 mm 18,0 km/h (3 Bft) SW 223 ° 0 min 0,000 mm 0,0 UV-I 0 W/m² 1,7 °C -1,3 °C 25,7 km/h (4 Bft)
09.12.2018 18:04 2,9 °C 92 % 1006,8 hPa 0,0 mm 19,0 km/h (3 Bft) W-SW 252 ° 0 min 0,000 mm 0,0 UV-I 0 W/m² 1,7 °C -1,4 °C 25,7 km/h (4 Bft)
09.12.2018 18:05 2,9 °C 92 % 1006,9 hPa 0,0 mm 13,9 km/h (3 Bft) W-NW 292 ° 0 min 0,000 mm 0,0 UV-I 0 W/m² 1,7 °C -0,6 °C 22,5 km/h (4 Bft)
09.12.2018 18:06 3,0 °C 92 % 1006,9 hPa 0,0 mm 20,6 km/h (4 Bft) W 265 ° 0 min 0,000 mm 0,0 UV-I 0 W/m² 1,8 °C -1,5 °C 32,2 km/h (5 Bft)
09.12.2018 18:07 3,0 °C 92 % 1006,9 hPa 0,0 mm 17,6 km/h (3 Bft) W-NW 286 ° 0 min 0,000 mm 0,0 UV-I 0 W/m² 1,8 °C -1,1 °C 22,5 km/h (4 Bft)
09.12.2018 18:08 3,0 °C 92 % 1006,8 hPa 0,0 mm 17,5 km/h (3 Bft) W 263 ° 0 min 0,000 mm 0,0 UV-I 0 W/m² 1,8 °C -1,1 °C 20,9 km/h (4 Bft)
09.12.2018 18:09 3,0 °C 92 % 1006,9 hPa 0,0 mm 12,1 km/h (2 Bft) W-NW 294 ° 0 min 0,000 mm 0,0 UV-I 0 W/m² 1,8 °C -0,2 °C 25,7 km/h (4 Bft)
09.12.2018 18:10 3,0 °C 92 % 1006,9 hPa 0,0 mm 17,8 km/h (3 Bft) W-NW 290 ° 0 min 0,000 mm 0,0 UV-I 0 W/m² 1,8 °C -1,2 °C 20,9 km/h (4 Bft)
09.12.2018 18:11 3,0 °C 92 % 1006,9 hPa 0,0 mm 16,0 km/h (3 Bft) W-NW 284 ° 0 min 0,000 mm 0,0 UV-I 0 W/m² 1,8 °C -0,9 °C 22,5 km/h (4 Bft)
09.12.2018 18:12 3,0 °C 92 % 1006,9 hPa 0,0 mm 18,9 km/h (3 Bft) W-SW 250 ° 0 min 0,000 mm 0,0 UV-I 0 W/m² 1,8 °C -1,3 °C 29,0 km/h (5 Bft)
09.12.2018 18:13 3,0 °C 92 % 1006,9 hPa 0,0 mm 25,3 km/h (4 Bft) W 276 ° 0 min 0,000 mm 0,0 UV-I 0 W/m² 1,8 °C -2,1 °C 33,8 km/h (5 Bft)
09.12.2018 18:14 3,0 °C 92 % 1006,9 hPa 0,0 mm 16,4 km/h (3 Bft) SW 236 ° 0 min 0,000 mm 0,0 UV-I 0 W/m² 1,8 °C -0,9 °C 29,0 km/h (5 Bft)
09.12.2018 18:15 3,1 °C 92 % 1007,0 hPa 0,0 mm 12,0 km/h (2 Bft) W 273 ° 0 min 0,000 mm 0,0 UV-I 0 W/m² 1,9 °C -0,0 °C 19,3 km/h (3 Bft)
09.12.2018 18:16 3,1 °C 92 % 1007,0 hPa 0,0 mm 19,0 km/h (3 Bft) NW 313 ° 0 min 0,000 mm 0,0 UV-I 0 W/m² 1,9 °C -1,2 °C 27,4 km/h (4 Bft)
09.12.2018 18:17 3,1 °C 92 % 1007,0 hPa 0,0 mm 18,8 km/h (3 Bft) W-NW 300 ° 0 min 0,000 mm 0,0 UV-I 0 W/m² 1,9 °C -1,2 °C 27,4 km/h (4 Bft)
09.12.2018 18:18 3,1 °C 92 % 1006,9 hPa 0,0 mm 18,1 km/h (3 Bft) W 269 ° 0 min 0,000 mm 0,0 UV-I 0 W/m² 1,9 °C -1,1 °C 27,4 km/h (4 Bft)
09.12.2018 18:19 3,1 °C 92 % 1007,0 hPa 0,0 mm 21,6 km/h (4 Bft) W 268 ° 0 min 0,000 mm 0,0 UV-I 0 W/m² 1,9 °C -1,5 °C 29,0 km/h (5 Bft)
09.12.2018 18:20 3,1 °C 92 % 1007,1 hPa 0,0 mm 17,5 km/h (3 Bft) SW 232 ° 0 min 0,000 mm 0,0 UV-I 0 W/m² 1,9 °C -1,0 °C 27,4 km/h (4 Bft)
09.12.2018 18:21 3,1 °C 92 % 1007,1 hPa 0,0 mm 16,7 km/h (3 Bft) W 271 ° 0 min 0,000 mm 0,0 UV-I 0 W/m² 1,9 °C -0,9 °C 25,7 km/h (4 Bft)
09.12.2018 18:22 3,1 °C 92 % 1007,1 hPa 0,0 mm 19,2 km/h (3 Bft) W-NW 290 ° 0 min 0,000 mm 0,0 UV-I 0 W/m² 1,9 °C -1,2 °C 27,4 km/h (4 Bft)
09.12.2018 18:23 3,1 °C 92 % 1007,3 hPa 0,0 mm 21,6 km/h (4 Bft) W 277 ° 0 min 0,000 mm 0,0 UV-I 0 W/m² 1,9 °C -1,5 °C 30,6 km/h (5 Bft)
09.12.2018 18:24 3,1 °C 92 % 1007,3 hPa 0,0 mm 22,7 km/h (4 Bft) W-SW 245 ° 0 min 0,000 mm 0,0 UV-I 0 W/m² 1,9 °C -1,7 °C 32,2 km/h (5 Bft)
09.12.2018 18:25 3,1 °C 91 % 1007,2 hPa 0,0 mm 16,8 km/h (3 Bft) W-SW 258 ° 0 min 0,000 mm 0,0 UV-I 0 W/m² 1,8 °C -0,9 °C 32,2 km/h (5 Bft)
09.12.2018 18:26 3,2 °C 91 % 1007,3 hPa 0,0 mm 19,2 km/h (3 Bft) W 269 ° 0 min 0,000 mm 0,0 UV-I 0 W/m² 1,9 °C -1,1 °C 27,4 km/h (4 Bft)
09.12.2018 18:27 3,2 °C 91 % 1007,2 hPa 0,0 mm 20,1 km/h (4 Bft) W 272 ° 0 min 0,000 mm 0,0 UV-I 0 W/m² 1,9 °C -1,2 °C 30,6 km/h (5 Bft)
09.12.2018 18:28 3,2 °C 91 % 1007,1 hPa 0,0 mm 25,3 km/h (4 Bft) W-SW 255 ° 0 min 0,000 mm 0,0 UV-I 0 W/m² 1,9 °C -1,8 °C 41,8 km/h (6 Bft)
09.12.2018 18:29 3,2 °C 91 % 1007,2 hPa 0,0 mm 17,9 km/h (3 Bft) W-SW 256 ° 0 min 0,000 mm 0,0 UV-I 0 W/m² 1,9 °C -0,9 °C 25,7 km/h (4 Bft)
09.12.2018 18:30 3,2 °C 91 % 1007,2 hPa 0,0 mm 21,9 km/h (4 Bft) W 259 ° 0 min 0,000 mm 0,0 UV-I 0 W/m² 1,9 °C -1,4 °C 32,2 km/h (5 Bft)
09.12.2018 18:31 3,2 °C 91 % 1007,3 hPa 0,0 mm 17,3 km/h (3 Bft) W-SW 247 ° 0 min 0,000 mm 0,0 UV-I 0 W/m² 1,9 °C -0,8 °C 27,4 km/h (4 Bft)
09.12.2018 18:32 3,2 °C 91 % 1007,2 hPa 0,0 mm 13,0 km/h (3 Bft) W 259 ° 0 min 0,000 mm 0,0 UV-I 0 W/m² 1,9 °C -0,1 °C 17,7 km/h (3 Bft)
09.12.2018 18:33 3,2 °C 91 % 1007,3 hPa 0,0 mm 14,6 km/h (3 Bft) W-SW 244 ° 0 min 0,000 mm 0,0 UV-I 0 W/m² 1,9 °C -0,4 °C 20,9 km/h (4 Bft)
09.12.2018 18:34 3,2 °C 91 % 1007,5 hPa 0,0 mm 20,6 km/h (4 Bft) W 262 ° 0 min 0,000 mm 0,0 UV-I 0 W/m² 1,9 °C -1,3 °C 32,2 km/h (5 Bft)
09.12.2018 18:35 3,3 °C 91 % 1007,5 hPa 0,0 mm 23,6 km/h (4 Bft) W 260 ° 0 min 0,000 mm 0,0 UV-I 0 W/m² 2,0 °C -1,5 °C 32,2 km/h (5 Bft)
09.12.2018 18:36 3,3 °C 91 % 1007,3 hPa 0,0 mm 17,6 km/h (3 Bft) W 265 ° 0 min 0,000 mm 0,0 UV-I 0 W/m² 2,0 °C -0,7 °C 33,8 km/h (5 Bft)
09.12.2018 18:37 3,3 °C 91 % 1007,4 hPa 0,0 mm 14,6 km/h (3 Bft) W-SW 248 ° 0 min 0,000 mm 0,0 UV-I 0 W/m² 2,0 °C -0,3 °C 20,9 km/h (4 Bft)
09.12.2018 18:38 3,3 °C 91 % 1007,6 hPa 0,0 mm 15,9 km/h (3 Bft) N-NW 327 ° 0 min 0,000 mm 0,0 UV-I 0 W/m² 2,0 °C -0,5 °C 33,8 km/h (5 Bft)
09.12.2018 18:39 3,3 °C 91 % 1007,4 hPa 0,0 mm 19,7 km/h (3 Bft) W-SW 257 ° 0 min 0,000 mm 0,0 UV-I 0 W/m² 2,0 °C -1,0 °C 25,7 km/h (4 Bft)
09.12.2018 18:40 3,3 °C 91 % 1007,5 hPa 0,0 mm 22,0 km/h (4 Bft) W-SW 258 ° 0 min 0,000 mm 0,0 UV-I 0 W/m² 2,0 °C -1,3 °C 29,0 km/h (5 Bft)
09.12.2018 18:41 3,3 °C 91 % 1007,5 hPa 0,0 mm 18,6 km/h (3 Bft) W 267 ° 0 min 0,000 mm 0,0 UV-I 0 W/m² 2,0 °C -0,9 °C 32,2 km/h (5 Bft)
09.12.2018 18:42 3,3 °C 91 % 1007,5 hPa 0,0 mm 16,8 km/h (3 Bft) W 272 ° 0 min 0,000 mm 0,0 UV-I 0 W/m² 2,0 °C -0,6 °C 24,1 km/h (4 Bft)
09.12.2018 18:43 3,3 °C 91 % 1007,5 hPa 0,2 mm 18,3 km/h (3 Bft) W 259 ° 0 min 0,000 mm 0,0 UV-I 0 W/m² 2,0 °C -0,8 °C 33,8 km/h (5 Bft)
09.12.2018 18:44 3,3 °C 91 % 1007,5 hPa 0,0 mm 26,6 km/h (4 Bft) W-SW 258 ° 0 min 0,000 mm 0,0 UV-I 0 W/m² 2,0 °C -1,8 °C 40,2 km/h (6 Bft)
09.12.2018 18:45 3,3 °C 91 % 1007,5 hPa 0,0 mm 32,0 km/h (5 Bft) W 267 ° 0 min 0,000 mm 0,0 UV-I 0 W/m² 2,0 °C -2,3 °C 46,7 km/h (6 Bft)
09.12.2018 18:46 3,3 °C 91 % 1007,5 hPa 0,0 mm 23,2 km/h (4 Bft) W 265 ° 0 min 0,000 mm 0,0 UV-I 0 W/m² 2,0 °C -1,5 °C 35,4 km/h (5 Bft)
09.12.2018 18:47 3,3 °C 91 % 1007,5 hPa 0,0 mm 28,4 km/h (4 Bft) W-SW 254 ° 0 min 0,000 mm 0,0 UV-I 0 W/m² 2,0 °C -2,0 °C 45,1 km/h (6 Bft)
09.12.2018 18:48 3,3 °C 91 % 1007,6 hPa 0,0 mm 25,2 km/h (4 Bft) W-NW 299 ° 0 min 0,000 mm 0,0 UV-I 0 W/m² 2,0 °C -1,7 °C 32,2 km/h (5 Bft)
09.12.2018 18:49 3,3 °C 90 % 1007,4 hPa 0,0 mm 20,5 km/h (4 Bft) W 260 ° 0 min 0,000 mm 0,0 UV-I 0 W/m² 1,8 °C -1,1 °C 29,0 km/h (5 Bft)
09.12.2018 18:50 3,3 °C 90 % 1007,6 hPa 0,0 mm 16,0 km/h (3 Bft) W 281 ° 0 min 0,000 mm 0,0 UV-I 0 W/m² 1,8 °C -0,5 °C 25,7 km/h (4 Bft)
09.12.2018 18:51 3,3 °C 91 % 1007,5 hPa 0,0 mm 18,8 km/h (3 Bft) W 269 ° 0 min 0,000 mm 0,0 UV-I 0 W/m² 2,0 °C -0,9 °C 27,4 km/h (4 Bft)
09.12.2018 18:52 3,3 °C 91 % 1007,5 hPa 0,0 mm 19,2 km/h (3 Bft) W 271 ° 0 min 0,000 mm 0,0 UV-I 0 W/m² 2,0 °C -1,0 °C 29,0 km/h (5 Bft)
09.12.2018 18:53 3,3 °C 91 % 1007,6 hPa 0,0 mm 19,4 km/h (3 Bft) W 265 ° 0 min 0,000 mm 0,0 UV-I 0 W/m² 2,0 °C -1,0 °C 29,0 km/h (5 Bft)
09.12.2018 18:54 3,2 °C 91 % 1007,4 hPa 0,2 mm 25,5 km/h (4 Bft) W-NW 300 ° 0 min 0,000 mm 0,0 UV-I 0 W/m² 1,9 °C -1,9 °C 40,2 km/h (6 Bft)
09.12.2018 18:55 3,3 °C 91 % 1007,6 hPa 0,0 mm 18,8 km/h (3 Bft) W 275 ° 0 min 0,000 mm 0,0 UV-I 0 W/m² 2,0 °C -0,9 °C 25,7 km/h (4 Bft)
09.12.2018 18:56 3,3 °C 91 % 1007,7 hPa 0,0 mm 18,9 km/h (3 Bft) W 278 ° 0 min 0,000 mm 0,0 UV-I 0 W/m² 2,0 °C -0,9 °C 27,4 km/h (4 Bft)
09.12.2018 18:57 3,3 °C 91 % 1007,7 hPa 0,0 mm 22,9 km/h (4 Bft) W-SW 252 ° 0 min 0,000 mm 0,0 UV-I 0 W/m² 2,0 °C -1,4 °C 38,6 km/h (5 Bft)
09.12.2018 18:58 3,2 °C 91 % 1007,7 hPa 0,0 mm 23,4 km/h (4 Bft) W-NW 284 ° 0 min 0,000 mm 0,0 UV-I 0 W/m² 1,9 °C -1,6 °C 37,0 km/h (5 Bft)
09.12.2018 18:59 3,2 °C 91 % 1007,8 hPa 0,0 mm 19,8 km/h (3 Bft) W-SW 254 ° 0 min 0,000 mm 0,0 UV-I 0 W/m² 1,9 °C -1,2 °C 27,4 km/h (4 Bft)
09.12.2018 19:00 3,2 °C 91 % 1007,8 hPa 0,0 mm 18,0 km/h (3 Bft) W-SW 254 ° 0 min 0,000 mm 0,0 UV-I 0 W/m² 1,9 °C -0,9 °C 33,8 km/h (5 Bft)
09.12.2018 19:01 3,2 °C 91 % 1007,8 hPa 0,0 mm 20,3 km/h (4 Bft) W-SW 250 ° 0 min 0,025 mm 0,0 UV-I 0 W/m² 1,9 °C -1,2 °C 40,2 km/h (6 Bft)
09.12.2018 19:02 3,2 °C 91 % 1007,9 hPa 0,0 mm 19,1 km/h (3 Bft) SW 230 ° 0 min 0,000 mm 0,0 UV-I 0 W/m² 1,9 °C -1,1 °C 27,4 km/h (4 Bft)
09.12.2018 19:03 3,2 °C 91 % 1007,8 hPa 0,0 mm 22,1 km/h (4 Bft) W 281 ° 0 min 0,000 mm 0,0 UV-I 0 W/m² 1,9 °C -1,5 °C 38,6 km/h (5 Bft)
09.12.2018 19:04 3,2 °C 91 % 1007,9 hPa 0,0 mm 17,4 km/h (3 Bft) W 270 ° 0 min 0,000 mm 0,0 UV-I 0 W/m² 1,9 °C -0,8 °C 24,1 km/h (4 Bft)
09.12.2018 19:05 3,2 °C 91 % 1008,0 hPa 0,0 mm 23,1 km/h (4 Bft) W-SW 252 ° 0 min 0,000 mm 0,0 UV-I 0 W/m² 1,9 °C -1,6 °C 33,8 km/h (5 Bft)
09.12.2018 19:06 3,2 °C 91 % 1007,9 hPa 0,0 mm 17,2 km/h (3 Bft) NW 305 ° 0 min 0,000 mm 0,0 UV-I 0 W/m² 1,9 °C -0,8 °C 22,5 km/h (4 Bft)
09.12.2018 19:07 3,2 °C 91 % 1007,9 hPa 0,0 mm 27,7 km/h (4 Bft) W 266 ° 0 min 0,000 mm 0,0 UV-I 0 W/m² 1,9 °C -2,1 °C 43,5 km/h (6 Bft)
09.12.2018 19:08 3,2 °C 91 % 1008,0 hPa 0,0 mm 19,6 km/h (3 Bft) NW 307 ° 0 min 0,000 mm 0,0 UV-I 0 W/m² 1,9 °C -1,2 °C 25,7 km/h (4 Bft)
09.12.2018 19:09 3,2 °C 91 % 1008,1 hPa 0,0 mm 24,6 km/h (4 Bft) W-NW 298 ° 0 min 0,000 mm 0,0 UV-I 0 W/m² 1,9 °C -1,8 °C 32,2 km/h (5 Bft)
09.12.2018 19:10 3,1 °C 91 % 1008,1 hPa 0,2 mm 20,0 km/h (4 Bft) W-SW 252 ° 0 min 0,000 mm 0,0 UV-I 0 W/m² 1,8 °C -1,3 °C 43,5 km/h (6 Bft)
09.12.2018 19:11 3,2 °C 91 % 1008,0 hPa 0,0 mm 28,5 km/h (4 Bft) W 261 ° 0 min 0,000 mm 0,0 UV-I 0 W/m² 1,9 °C -2,2 °C 45,1 km/h (6 Bft)
09.12.2018 19:12 3,1 °C 91 % 1008,1 hPa 0,0 mm 18,0 km/h (3 Bft) SW 227 ° 0 min 0,000 mm 0,0 UV-I 0 W/m² 1,8 °C -1,1 °C 22,5 km/h (4 Bft)
09.12.2018 19:13 3,1 °C 91 % 1008,2 hPa 0,0 mm 20,3 km/h (4 Bft) W 262 ° 0 min 0,000 mm 0,0 UV-I 0 W/m² 1,8 °C -1,4 °C 27,4 km/h (4 Bft)
09.12.2018 19:14 3,1 °C 91 % 1008,1 hPa 0,0 mm 19,7 km/h (3 Bft) W 261 ° 0 min 0,000 mm 0,0 UV-I 0 W/m² 1,8 °C -1,3 °C 27,4 km/h (4 Bft)
09.12.2018 19:15 3,1 °C 91 % 1008,1 hPa 0,0 mm 19,1 km/h (3 Bft) W-SW 250 ° 0 min 0,000 mm 0,0 UV-I 0 W/m² 1,8 °C -1,2 °C 25,7 km/h (4 Bft)
09.12.2018 19:16 3,1 °C 91 % 1008,2 hPa 0,0 mm 18,2 km/h (3 Bft) W 261 ° 0 min 0,000 mm 0,0 UV-I 0 W/m² 1,8 °C -1,1 °C 22,5 km/h (4 Bft)
09.12.2018 19:17 3,0 °C 91 % 1008,3 hPa 0,0 mm 17,6 km/h (3 Bft) W 275 ° 0 min 0,000 mm 0,0 UV-I 0 W/m² 1,7 °C -1,1 °C 25,7 km/h (4 Bft)
09.12.2018 19:18 3,0 °C 91 % 1008,2 hPa 0,2 mm 28,6 km/h (4 Bft) W 276 ° 0 min 0,000 mm 0,0 UV-I 0 W/m² 1,7 °C -2,4 °C 46,7 km/h (6 Bft)
09.12.2018 19:19 2,9 °C 91 % 1008,2 hPa 0,0 mm 23,8 km/h (4 Bft) W-SW 252 ° 0 min 0,000 mm 0,0 UV-I 0 W/m² 1,6 °C -2,0 °C 35,4 km/h (5 Bft)
09.12.2018 19:20 2,9 °C 91 % 1008,4 hPa 0,0 mm 23,1 km/h (4 Bft) W-SW 253 ° 0 min 0,000 mm 0,0 UV-I 0 W/m² 1,6 °C -2,0 °C 33,8 km/h (5 Bft)
09.12.2018 19:21 2,9 °C 91 % 1008,3 hPa 0,0 mm 24,9 km/h (4 Bft) SW 234 ° 0 min 0,000 mm 0,0 UV-I 0 W/m² 1,6 °C -2,2 °C 38,6 km/h (5 Bft)
09.12.2018 19:22 2,9 °C 91 % 1008,3 hPa 0,0 mm 23,7 km/h (4 Bft) W 269 ° 0 min 0,000 mm 0,0 UV-I 0 W/m² 1,6 °C -2,0 °C 32,2 km/h (5 Bft)
09.12.2018 19:23 2,9 °C 91 % 1008,4 hPa 0,2 mm 16,8 km/h (3 Bft) W-NW 290 ° 0 min 0,000 mm 0,0 UV-I 0 W/m² 1,6 °C -1,1 °C 24,1 km/h (4 Bft)
09.12.2018 19:24 2,9 °C 91 % 1008,4 hPa 0,0 mm 16,0 km/h (3 Bft) W 261 ° 0 min 0,000 mm 0,0 UV-I 0 W/m² 1,6 °C -1,0 °C 22,5 km/h (4 Bft)
09.12.2018 19:25 2,8 °C 91 % 1008,5 hPa 0,0 mm 24,0 km/h (4 Bft) W-SW 255 ° 0 min 0,000 mm 0,0 UV-I 0 W/m² 1,5 °C -2,2 °C 35,4 km/h (5 Bft)
09.12.2018 19:26 2,8 °C 91 % 1008,4 hPa 0,0 mm 23,7 km/h (4 Bft) W 268 ° 0 min 0,000 mm 0,0 UV-I 0 W/m² 1,5 °C -2,2 °C 35,4 km/h (5 Bft)
09.12.2018 19:27 2,8 °C 91 % 1008,5 hPa 0,0 mm 22,5 km/h (4 Bft) W-SW 248 ° 0 min 0,000 mm 0,0 UV-I 0 W/m² 1,5 °C -2,0 °C 30,6 km/h (5 Bft)
09.12.2018 19:28 2,8 °C 91 % 1008,5 hPa 0,0 mm 20,4 km/h (4 Bft) W-SW 246 ° 0 min 0,000 mm 0,0 UV-I 0 W/m² 1,5 °C -1,8 °C 27,4 km/h (4 Bft)
09.12.2018 19:29 2,8 °C 91 % 1008,7 hPa 0,0 mm 16,8 km/h (3 Bft) NW 307 ° 0 min 0,000 mm 0,0 UV-I 0 W/m² 1,5 °C -1,3 °C 22,5 km/h (4 Bft)
09.12.2018 19:30 2,8 °C 91 % 1008,6 hPa 0,2 mm 19,0 km/h (3 Bft) W-NW 284 ° 0 min 0,000 mm 0,0 UV-I 0 W/m² 1,5 °C -1,6 °C 25,7 km/h (4 Bft)
09.12.2018 19:31 2,8 °C 91 % 1008,7 hPa 0,0 mm 20,0 km/h (4 Bft) W 266 ° 0 min 0,000 mm 0,0 UV-I 0 W/m² 1,5 °C -1,7 °C 27,4 km/h (4 Bft)
09.12.2018 19:32 2,8 °C 91 % 1008,8 hPa 0,0 mm 20,0 km/h (4 Bft) W 267 ° 0 min 0,000 mm 0,0 UV-I 0 W/m² 1,5 °C -1,7 °C 24,1 km/h (4 Bft)
09.12.2018 19:33 2,8 °C 91 % 1008,8 hPa 0,0 mm 19,3 km/h (3 Bft) W 272 ° 0 min 0,000 mm 0,0 UV-I 0 W/m² 1,5 °C -1,6 °C 24,1 km/h (4 Bft)
09.12.2018 19:34 2,8 °C 91 % 1008,8 hPa 0,0 mm 15,8 km/h (3 Bft) W 259 ° 0 min 0,000 mm 0,0 UV-I 0 W/m² 1,5 °C -1,1 °C 22,5 km/h (4 Bft)
09.12.2018 19:35 2,8 °C 92 % 1008,9 hPa 0,0 mm 15,4 km/h (3 Bft) W-SW 244 ° 0 min 0,000 mm 0,0 UV-I 0 W/m² 1,6 °C -1,0 °C 24,1 km/h (4 Bft)
09.12.2018 19:36 2,8 °C 92 % 1008,9 hPa 0,0 mm 19,4 km/h (3 Bft) W-NW 282 ° 0 min 0,000 mm 0,0 UV-I 0 W/m² 1,6 °C -1,6 °C 30,6 km/h (5 Bft)
09.12.2018 19:37 2,8 °C 92 % 1008,9 hPa 0,0 mm 16,8 km/h (3 Bft) W-SW 257 ° 0 min 0,000 mm 0,0 UV-I 0 W/m² 1,6 °C -1,3 °C 29,0 km/h (5 Bft)
09.12.2018 19:38 2,8 °C 92 % 1008,9 hPa 0,0 mm 18,8 km/h (3 Bft) W-NW 298 ° 0 min 0,000 mm 0,0 UV-I 0 W/m² 1,6 °C -1,5 °C 30,6 km/h (5 Bft)
09.12.2018 19:39 2,8 °C 92 % 1009,0 hPa 0,2 mm 26,0 km/h (4 Bft) W-SW 252 ° 0 min 0,000 mm 0,0 UV-I 0 W/m² 1,6 °C -2,4 °C 35,4 km/h (5 Bft)
09.12.2018 19:40 2,8 °C 92 % 1009,0 hPa 0,0 mm 17,8 km/h (3 Bft) SW 229 ° 0 min 0,000 mm 0,0 UV-I 0 W/m² 1,6 °C -1,4 °C 29,0 km/h (5 Bft)
09.12.2018 19:41 2,8 °C 92 % 1009,0 hPa 0,0 mm 20,7 km/h (4 Bft) W 260 ° 0 min 0,000 mm 0,0 UV-I 0 W/m² 1,6 °C -1,8 °C 30,6 km/h (5 Bft)
09.12.2018 19:42 2,8 °C 92 % 1009,1 hPa 0,0 mm 22,1 km/h (4 Bft) W 267 ° 0 min 0,000 mm 0,0 UV-I 0 W/m² 1,6 °C -2,0 °C 30,6 km/h (5 Bft)
09.12.2018 19:43 2,8 °C 92 % 1009,1 hPa 0,0 mm 16,9 km/h (3 Bft) W 264 ° 0 min 0,000 mm 0,0 UV-I 0 W/m² 1,6 °C -1,3 °C 24,1 km/h (4 Bft)
09.12.2018 19:44 2,8 °C 92 % 1009,1 hPa 0,0 mm 15,7 km/h (3 Bft) W-SW 252 ° 0 min 0,000 mm 0,0 UV-I 0 W/m² 1,6 °C -1,1 °C 27,4 km/h (4 Bft)
09.12.2018 19:45 2,8 °C 92 % 1009,1 hPa 0,0 mm 16,4 km/h (3 Bft) W-SW 258 ° 0 min 0,000 mm 0,0 UV-I 0 W/m² 1,6 °C -1,2 °C 22,5 km/h (4 Bft)
09.12.2018 19:46 2,8 °C 92 % 1009,2 hPa 0,0 mm 20,7 km/h (4 Bft) W-SW 255 ° 0 min 0,000 mm 0,0 UV-I 0 W/m² 1,6 °C -1,8 °C 32,2 km/h (5 Bft)
09.12.2018 19:47 2,8 °C 92 % 1009,2 hPa 0,0 mm 13,7 km/h (3 Bft) W 280 ° 0 min 0,000 mm 0,0 UV-I 0 W/m² 1,6 °C -0,7 °C 20,9 km/h (4 Bft)
09.12.2018 19:48 2,8 °C 92 % 1009,2 hPa 0,0 mm 16,2 km/h (3 Bft) W 279 ° 0 min 0,000 mm 0,0 UV-I 0 W/m² 1,6 °C -1,2 °C 27,4 km/h (4 Bft)
09.12.2018 19:49 2,8 °C 92 % 1009,3 hPa 0,0 mm 21,0 km/h (4 Bft) NW 315 ° 0 min 0,000 mm 0,0 UV-I 0 W/m² 1,6 °C -1,8 °C 30,6 km/h (5 Bft)
09.12.2018 19:50 2,8 °C 92 % 1009,2 hPa 0,0 mm 16,2 km/h (3 Bft) W 260 ° 0 min 0,000 mm 0,0 UV-I 0 W/m² 1,6 °C -1,2 °C 20,9 km/h (4 Bft)
09.12.2018 19:51 2,8 °C 92 % 1009,3 hPa 0,0 mm 17,8 km/h (3 Bft) NW 309 ° 0 min 0,000 mm 0,0 UV-I 0 W/m² 1,6 °C -1,4 °C 27,4 km/h (4 Bft)
09.12.2018 19:52 2,8 °C 92 % 1009,2 hPa 0,0 mm 13,2 km/h (3 Bft) W 266 ° 0 min 0,000 mm 0,0 UV-I 0 W/m² 1,6 °C -0,6 °C 19,3 km/h (3 Bft)
09.12.2018 19:53 2,8 °C 92 % 1009,3 hPa 0,0 mm 24,0 km/h (4 Bft) W 263 ° 0 min 0,000 mm 0,0 UV-I 0 W/m² 1,6 °C -2,2 °C 32,2 km/h (5 Bft)
09.12.2018 19:54 2,8 °C 92 % 1009,4 hPa 0,0 mm 20,2 km/h (4 Bft) W 273 ° 0 min 0,000 mm 0,0 UV-I 0 W/m² 1,6 °C -1,7 °C 30,6 km/h (5 Bft)
09.12.2018 19:55 2,8 °C 92 % 1009,4 hPa 0,0 mm 16,2 km/h (3 Bft) W 265 ° 0 min 0,000 mm 0,0 UV-I 0 W/m² 1,6 °C -1,2 °C 25,7 km/h (4 Bft)
09.12.2018 19:56 2,8 °C 92 % 1009,4 hPa 0,0 mm 23,9 km/h (4 Bft) W 261 ° 0 min 0,000 mm 0,0 UV-I 0 W/m² 1,6 °C -2,2 °C 33,8 km/h (5 Bft)
09.12.2018 19:57 2,8 °C 92 % 1009,4 hPa 0,0 mm 17,2 km/h (3 Bft) W-NW 290 ° 0 min 0,000 mm 0,0 UV-I 0 W/m² 1,6 °C -1,3 °C 29,0 km/h (5 Bft)
09.12.2018 19:58 2,8 °C 92 % 1009,4 hPa 0,0 mm 19,2 km/h (3 Bft) W-SW 254 ° 0 min 0,000 mm 0,0 UV-I 0 W/m² 1,6 °C -1,6 °C 29,0 km/h (5 Bft)
09.12.2018 19:59 2,8 °C 92 % 1009,5 hPa 0,2 mm 21,1 km/h (4 Bft) W 273 ° 0 min 0,000 mm 0,0 UV-I 0 W/m² 1,6 °C -1,9 °C 27,4 km/h (4 Bft)
09.12.2018 20:00 2,8 °C 92 % 1009,5 hPa 0,0 mm 22,2 km/h (4 Bft) W-SW 253 ° 0 min 0,000 mm 0,0 UV-I 0 W/m² 1,6 °C -2,0 °C 30,6 km/h (5 Bft)
09.12.2018 20:01 2,8 °C 92 % 1009,5 hPa 0,0 mm 20,1 km/h (4 Bft) W-NW 290 ° 0 min 0,026 mm 0,0 UV-I 0 W/m² 1,6 °C -1,7 °C 25,7 km/h (4 Bft)
09.12.2018 20:02 2,8 °C 92 % 1009,5 hPa 0,0 mm 14,3 km/h (3 Bft) W-NW 287 ° 0 min 0,000 mm 0,0 UV-I 0 W/m² 1,6 °C -0,8 °C 20,9 km/h (4 Bft)
09.12.2018 20:03 2,8 °C 92 % 1009,6 hPa 0,0 mm 22,6 km/h (4 Bft) W 271 ° 0 min 0,000 mm 0,0 UV-I 0 W/m² 1,6 °C -2,0 °C 33,8 km/h (5 Bft)
09.12.2018 20:04 2,8 °C 92 % 1009,6 hPa 0,0 mm 14,3 km/h (3 Bft) W 281 ° 0 min 0,000 mm 0,0 UV-I 0 W/m² 1,6 °C -0,8 °C 22,5 km/h (4 Bft)
09.12.2018 20:05 2,8 °C 92 % 1009,6 hPa 0,0 mm 17,0 km/h (3 Bft) W 260 ° 0 min 0,000 mm 0,0 UV-I 0 W/m² 1,6 °C -1,3 °C 24,1 km/h (4 Bft)
09.12.2018 20:06 2,8 °C 92 % 1009,6 hPa 0,0 mm 19,2 km/h (3 Bft) NW 308 ° 0 min 0,000 mm 0,0 UV-I 0 W/m² 1,6 °C -1,6 °C 29,0 km/h (5 Bft)
09.12.2018 20:07 2,8 °C 92 % 1009,6 hPa 0,0 mm 18,9 km/h (3 Bft) W 279 ° 0 min 0,000 mm 0,0 UV-I 0 W/m² 1,6 °C -1,6 °C 30,6 km/h (5 Bft)
09.12.2018 20:08 2,8 °C 92 % 1009,6 hPa 0,0 mm 15,8 km/h (3 Bft) W 272 ° 0 min 0,000 mm 0,0 UV-I 0 W/m² 1,6 °C -1,1 °C 24,1 km/h (4 Bft)
09.12.2018 20:09 2,8 °C 92 % 1009,6 hPa 0,0 mm 15,5 km/h (3 Bft) W-SW 255 ° 0 min 0,000 mm 0,0 UV-I 0 W/m² 1,6 °C -1,0 °C 20,9 km/h (4 Bft)
09.12.2018 20:10 2,8 °C 92 % 1009,7 hPa 0,0 mm 12,1 km/h (2 Bft) W-NW 298 ° 0 min 0,000 mm 0,0 UV-I 0 W/m² 1,6 °C -0,4 °C 16,1 km/h (3 Bft)
09.12.2018 20:11 2,9 °C 92 % 1009,7 hPa 0,0 mm 14,1 km/h (3 Bft) W 267 ° 0 min 0,000 mm 0,0 UV-I 0 W/m² 1,7 °C -0,7 °C 20,9 km/h (4 Bft)
09.12.2018 20:12 2,8 °C 92 % 1009,8 hPa 0,0 mm 11,1 km/h (2 Bft) S 190 ° 0 min 0,000 mm 0,0 UV-I 0 W/m² 1,6 °C -0,2 °C 16,1 km/h (3 Bft)
09.12.2018 20:13 2,9 °C 92 % 1009,8 hPa 0,0 mm 14,5 km/h (3 Bft) W 269 ° 0 min 0,000 mm 0,0 UV-I 0 W/m² 1,7 °C -0,8 °C 24,1 km/h (4 Bft)
09.12.2018 20:14 2,9 °C 92 % 1009,8 hPa 0,0 mm 17,4 km/h (3 Bft) W 280 ° 0 min 0,000 mm 0,0 UV-I 0 W/m² 1,7 °C -1,2 °C 27,4 km/h (4 Bft)
09.12.2018 20:15 2,9 °C 92 % 1009,8 hPa 0,0 mm 14,8 km/h (3 Bft) W-NW 284 ° 0 min 0,000 mm 0,0 UV-I 0 W/m² 1,7 °C -0,8 °C 20,9 km/h (4 Bft)
09.12.2018 20:16 2,9 °C 92 % 1009,9 hPa 0,0 mm 21,7 km/h (4 Bft) NW 304 ° 0 min 0,000 mm 0,0 UV-I 0 W/m² 1,7 °C -1,8 °C 30,6 km/h (5 Bft)
09.12.2018 20:17 2,9 °C 92 % 1009,9 hPa 0,0 mm 13,6 km/h (3 Bft) W 281 ° 0 min 0,000 mm 0,0 UV-I 0 W/m² 1,7 °C -0,6 °C 22,5 km/h (4 Bft)
09.12.2018 20:18 2,9 °C 92 % 1009,8 hPa 0,0 mm 13,6 km/h (3 Bft) W 263 ° 0 min 0,000 mm 0,0 UV-I 0 W/m² 1,7 °C -0,6 °C 22,5 km/h (4 Bft)
09.12.2018 20:19 2,9 °C 92 % 1009,8 hPa 0,0 mm 12,7 km/h (3 Bft) W 261 ° 0 min 0,000 mm 0,0 UV-I 0 W/m² 1,7 °C -0,4 °C 17,7 km/h (3 Bft)
09.12.2018 20:20 2,9 °C 92 % 1009,9 hPa 0,0 mm 15,1 km/h (3 Bft) W 274 ° 0 min 0,000 mm 0,0 UV-I 0 W/m² 1,7 °C -0,9 °C 24,1 km/h (4 Bft)
09.12.2018 20:21 2,9 °C 92 % 1009,9 hPa 0,0 mm 19,3 km/h (3 Bft) W 271 ° 0 min 0,000 mm 0,0 UV-I 0 W/m² 1,7 °C -1,5 °C 29,0 km/h (5 Bft)
09.12.2018 20:22 2,9 °C 92 % 1009,9 hPa 0,0 mm 17,5 km/h (3 Bft) W-SW 255 ° 0 min 0,000 mm 0,0 UV-I 0 W/m² 1,7 °C -1,2 °C 22,5 km/h (4 Bft)
09.12.2018 20:23 2,9 °C 92 % 1010,1 hPa 0,0 mm 14,1 km/h (3 Bft) W-SW 258 ° 0 min 0,000 mm 0,0 UV-I 0 W/m² 1,7 °C -0,7 °C 19,3 km/h (3 Bft)
09.12.2018 20:24 2,9 °C 92 % 1009,9 hPa 0,0 mm 11,6 km/h (2 Bft) W-NW 286 ° 0 min 0,000 mm 0,0 UV-I 0 W/m² 1,7 °C -0,2 °C 17,7 km/h (3 Bft)
09.12.2018 20:25 2,9 °C 92 % 1010,2 hPa 0,0 mm 17,1 km/h (3 Bft) W 261 ° 0 min 0,000 mm 0,0 UV-I 0 W/m² 1,7 °C -1,2 °C 22,5 km/h (4 Bft)
09.12.2018 20:26 2,9 °C 92 % 1010,1 hPa 0,0 mm 19,9 km/h (4 Bft) SW 226 ° 0 min 0,000 mm 0,0 UV-I 0 W/m² 1,7 °C -1,6 °C 27,4 km/h (4 Bft)
09.12.2018 20:27 2,9 °C 92 % 1010,1 hPa 0,0 mm 11,2 km/h (2 Bft) W 268 ° 0 min 0,000 mm 0,0 UV-I 0 W/m² 1,7 °C -0,1 °C 17,7 km/h (3 Bft)
09.12.2018 20:28 3,0 °C 92 % 1010,0 hPa 0,0 mm 17,0 km/h (3 Bft) W-SW 258 ° 0 min 0,000 mm 0,0 UV-I 0 W/m² 1,8 °C -1,0 °C 29,0 km/h (5 Bft)
09.12.2018 20:29 3,0 °C 92 % 1010,1 hPa 0,2 mm 14,2 km/h (3 Bft) W 272 ° 0 min 0,000 mm 0,0 UV-I 0 W/m² 1,8 °C -0,6 °C 17,7 km/h (3 Bft)
09.12.2018 20:30 2,9 °C 92 % 1010,0 hPa 0,0 mm 18,4 km/h (3 Bft) W 278 ° 0 min 0,000 mm 0,0 UV-I 0 W/m² 1,7 °C -1,4 °C 24,1 km/h (4 Bft)
09.12.2018 20:31 2,9 °C 92 % 1010,1 hPa 0,0 mm 18,5 km/h (3 Bft) W 262 ° 0 min 0,000 mm 0,0 UV-I 0 W/m² 1,7 °C -1,4 °C 24,1 km/h (4 Bft)
09.12.2018 20:32 3,0 °C 92 % 1010,1 hPa 0,0 mm 16,7 km/h (3 Bft) W 273 ° 0 min 0,000 mm 0,0 UV-I 0 W/m² 1,8 °C -1,0 °C 27,4 km/h (4 Bft)
09.12.2018 20:33 3,0 °C 92 % 1010,1 hPa 0,0 mm 19,3 km/h (3 Bft) W 269 ° 0 min 0,000 mm 0,0 UV-I 0 W/m² 1,8 °C -1,4 °C 25,7 km/h (4 Bft)
09.12.2018 20:34 3,0 °C 92 % 1010,2 hPa 0,0 mm 17,4 km/h (3 Bft) W-NW 282 ° 0 min 0,000 mm 0,0 UV-I 0 W/m² 1,8 °C -1,1 °C 22,5 km/h (4 Bft)
09.12.2018 20:35 3,0 °C 92 % 1010,2 hPa 0,0 mm 15,1 km/h (3 Bft) W-SW 256 ° 0 min 0,000 mm 0,0 UV-I 0 W/m² 1,8 °C -0,7 °C 20,9 km/h (4 Bft)
09.12.2018 20:36 3,0 °C 92 % 1010,2 hPa 0,0 mm 13,7 km/h (3 Bft) W-SW 257 ° 0 min 0,000 mm 0,0 UV-I 0 W/m² 1,8 °C -0,5 °C 24,1 km/h (4 Bft)
09.12.2018 20:37 3,1 °C 92 % 1010,3 hPa 0,0 mm 22,2 km/h (4 Bft) W 279 ° 0 min 0,000 mm 0,0 UV-I 0 W/m² 1,9 °C -1,6 °C 29,0 km/h (5 Bft)
09.12.2018 20:38 3,0 °C 92 % 1010,2 hPa 0,0 mm 19,0 km/h (3 Bft) W 263 ° 0 min 0,000 mm 0,0 UV-I 0 W/m² 1,8 °C -1,3 °C 29,0 km/h (5 Bft)
09.12.2018 20:39 3,0 °C 92 % 1010,3 hPa 0,0 mm 11,5 km/h (2 Bft) W-NW 297 ° 0 min 0,000 mm 0,0 UV-I 0 W/m² 1,8 °C -0,1 °C 20,9 km/h (4 Bft)
09.12.2018 20:40 3,1 °C 92 % 1010,3 hPa 0,0 mm 18,0 km/h (3 Bft) W 273 ° 0 min 0,000 mm 0,0 UV-I 0 W/m² 1,9 °C -1,1 °C 29,0 km/h (5 Bft)
09.12.2018 20:41 3,1 °C 92 % 1010,3 hPa 0,0 mm 18,0 km/h (3 Bft) SW 216 ° 0 min 0,000 mm 0,0 UV-I 0 W/m² 1,9 °C -1,1 °C 27,4 km/h (4 Bft)
09.12.2018 20:42 3,1 °C 92 % 1010,4 hPa 0,0 mm 12,9 km/h (3 Bft) SW 234 ° 0 min 0,000 mm 0,0 UV-I 0 W/m² 1,9 °C -0,2 °C 20,9 km/h (4 Bft)
09.12.2018 20:43 3,0 °C 92 % 1010,3 hPa 0,0 mm 14,1 km/h (3 Bft) W-SW 257 ° 0 min 0,000 mm 0,0 UV-I 0 W/m² 1,8 °C -0,6 °C 19,3 km/h (3 Bft)
09.12.2018 20:44 3,1 °C 92 % 1010,3 hPa 0,0 mm 19,5 km/h (3 Bft) W 260 ° 0 min 0,000 mm 0,0 UV-I 0 W/m² 1,9 °C -1,3 °C 22,5 km/h (4 Bft)
09.12.2018 20:45 3,1 °C 92 % 1010,4 hPa 0,0 mm 19,4 km/h (3 Bft) W 259 ° 0 min 0,000 mm 0,0 UV-I 0 W/m² 1,9 °C -1,3 °C 30,6 km/h (5 Bft)
09.12.2018 20:46 3,1 °C 92 % 1010,4 hPa 0,0 mm 17,0 km/h (3 Bft) W-SW 244 ° 0 min 0,000 mm 0,0 UV-I 0 W/m² 1,9 °C -0,9 °C 27,4 km/h (4 Bft)
09.12.2018 20:47 3,1 °C 92 % 1010,4 hPa 0,0 mm 12,5 km/h (3 Bft) W-SW 255 ° 0 min 0,000 mm 0,0 UV-I 0 W/m² 1,9 °C -0,1 °C 22,5 km/h (4 Bft)
09.12.2018 20:48 3,1 °C 92 % 1010,4 hPa 0,0 mm 15,0 km/h (3 Bft) W 259 ° 0 min 0,000 mm 0,0 UV-I 0 W/m² 1,9 °C -0,6 °C 20,9 km/h (4 Bft)
09.12.2018 20:49 3,1 °C 92 % 1010,4 hPa 0,0 mm 12,2 km/h (2 Bft) W 269 ° 0 min 0,000 mm 0,0 UV-I 0 W/m² 1,9 °C -0,1 °C 17,7 km/h (3 Bft)
09.12.2018 20:50 3,1 °C 92 % 1010,3 hPa 0,0 mm 14,9 km/h (3 Bft) W 261 ° 0 min 0,000 mm 0,0 UV-I 0 W/m² 1,9 °C -0,6 °C 19,3 km/h (3 Bft)
09.12.2018 20:51 3,0 °C 92 % 1010,4 hPa 0,0 mm 13,3 km/h (3 Bft) W 279 ° 0 min 0,000 mm 0,0 UV-I 0 W/m² 1,8 °C -0,4 °C 17,7 km/h (3 Bft)
09.12.2018 20:52 3,1 °C 92 % 1010,4 hPa 0,0 mm 13,7 km/h (3 Bft) W 275 ° 0 min 0,000 mm 0,0 UV-I 0 W/m² 1,9 °C -0,4 °C 19,3 km/h (3 Bft)
09.12.2018 20:53 3,1 °C 92 % 1010,4 hPa 0,0 mm 15,8 km/h (3 Bft) SW 233 ° 0 min 0,000 mm 0,0 UV-I 0 W/m² 1,9 °C -0,7 °C 24,1 km/h (4 Bft)
09.12.2018 20:54 3,1 °C 92 % 1010,5 hPa 0,0 mm 13,3 km/h (3 Bft) W-NW 288 ° 0 min 0,000 mm 0,0 UV-I 0 W/m² 1,9 °C -0,3 °C 17,7 km/h (3 Bft)
09.12.2018 20:55 3,1 °C 92 % 1010,4 hPa 0,0 mm 18,2 km/h (3 Bft) W 265 ° 0 min 0,000 mm 0,0 UV-I 0 W/m² 1,9 °C -1,1 °C 24,1 km/h (4 Bft)
09.12.2018 20:56 3,0 °C 92 % 1010,6 hPa 0,0 mm 15,9 km/h (3 Bft) W 263 ° 0 min 0,000 mm 0,0 UV-I 0 W/m² 1,8 °C -0,9 °C 24,1 km/h (4 Bft)
09.12.2018 20:57 3,1 °C 92 % 1010,5 hPa 0,0 mm 14,2 km/h (3 Bft) SW 225 ° 0 min 0,000 mm 0,0 UV-I 0 W/m² 1,9 °C -0,5 °C 24,1 km/h (4 Bft)
09.12.2018 20:58 3,0 °C 92 % 1010,4 hPa 0,0 mm 11,4 km/h (2 Bft) W 269 ° 0 min 0,000 mm 0,0 UV-I 0 W/m² 1,8 °C -0,0 °C 19,3 km/h (3 Bft)
09.12.2018 20:59 3,1 °C 92 % 1010,5 hPa 0,0 mm 20,2 km/h (4 Bft) S-SW 192 ° 0 min 0,000 mm 0,0 UV-I 0 W/m² 1,9 °C -1,4 °C 33,8 km/h (5 Bft)
09.12.2018 21:00 3,0 °C 92 % 1010,5 hPa 0,0 mm 17,1 km/h (3 Bft) SW 236 ° 0 min 0,000 mm 0,0 UV-I 0 W/m² 1,8 °C -1,0 °C 24,1 km/h (4 Bft)
09.12.2018 21:01 3,0 °C 92 % 1010,5 hPa 0,0 mm 21,4 km/h (4 Bft) W-SW 254 ° 0 min 0,000 mm 0,0 UV-I 0 W/m² 1,8 °C -1,6 °C 29,0 km/h (5 Bft)
09.12.2018 21:02 3,0 °C 92 % 1010,5 hPa 0,0 mm 19,5 km/h (3 Bft) W 267 ° 0 min 0,000 mm 0,0 UV-I 0 W/m² 1,8 °C -1,4 °C 24,1 km/h (4 Bft)
09.12.2018 21:03 3,0 °C 92 % 1010,5 hPa 0,0 mm 14,0 km/h (3 Bft) W 265 ° 0 min 0,000 mm 0,0 UV-I 0 W/m² 1,8 °C -0,5 °C 24,1 km/h (4 Bft)
09.12.2018 21:04 3,0 °C 92 % 1010,5 hPa 0,2 mm 22,0 km/h (4 Bft) W-SW 250 ° 0 min 0,000 mm 0,0 UV-I 0 W/m² 1,8 °C -1,7 °C 32,2 km/h (5 Bft)
09.12.2018 21:05 3,0 °C 92 % 1010,5 hPa 0,0 mm 12,9 km/h (3 Bft) NW 309 ° 0 min 0,000 mm 0,0 UV-I 0 W/m² 1,8 °C -0,3 °C 25,7 km/h (4 Bft)
09.12.2018 21:06 3,0 °C 92 % 1010,6 hPa 0,0 mm 17,5 km/h (3 Bft) NW 306 ° 0 min 0,000 mm 0,0 UV-I 0 W/m² 1,8 °C -1,1 °C 25,7 km/h (4 Bft)
09.12.2018 21:07 3,0 °C 92 % 1010,5 hPa 0,0 mm 18,3 km/h (3 Bft) SW 221 ° 0 min 0,000 mm 0,0 UV-I 0 W/m² 1,8 °C -1,2 °C 29,0 km/h (5 Bft)
09.12.2018 21:08 3,0 °C 92 % 1010,6 hPa 0,0 mm 18,7 km/h (3 Bft) W-SW 257 ° 0 min 0,000 mm 0,0 UV-I 0 W/m² 1,8 °C -1,3 °C 22,5 km/h (4 Bft)
09.12.2018 21:09 3,0 °C 92 % 1010,6 hPa 0,0 mm 15,5 km/h (3 Bft) W-SW 254 ° 0 min 0,000 mm 0,0 UV-I 0 W/m² 1,8 °C -0,8 °C 24,1 km/h (4 Bft)
09.12.2018 21:10 2,9 °C 92 % 1010,7 hPa 0,0 mm 13,7 km/h (3 Bft) W-SW 258 ° 0 min 0,000 mm 0,0 UV-I 0 W/m² 1,7 °C -0,6 °C 19,3 km/h (3 Bft)
09.12.2018 21:11 2,9 °C 92 % 1010,7 hPa 0,0 mm 16,9 km/h (3 Bft) W 271 ° 0 min 0,000 mm 0,0 UV-I 0 W/m² 1,7 °C -1,1 °C 27,4 km/h (4 Bft)
09.12.2018 21:12 2,9 °C 92 % 1010,7 hPa 0,0 mm 12,7 km/h (3 Bft) W 264 ° 0 min 0,000 mm 0,0 UV-I 0 W/m² 1,7 °C -0,4 °C 19,3 km/h (3 Bft)
09.12.2018 21:13 2,9 °C 92 % 1010,8 hPa 0,0 mm 16,2 km/h (3 Bft) NW 309 ° 0 min 0,000 mm 0,0 UV-I 0 W/m² 1,7 °C -1,0 °C 24,1 km/h (4 Bft)
09.12.2018 21:14 2,9 °C 92 % 1010,8 hPa 0,2 mm 11,2 km/h (2 Bft) W-SW 251 ° 0 min 0,000 mm 0,0 UV-I 0 W/m² 1,7 °C -0,1 °C 16,1 km/h (3 Bft)
09.12.2018 21:15 2,9 °C 92 % 1010,8 hPa 0,0 mm 15,6 km/h (3 Bft) W-SW 257 ° 0 min 0,000 mm 0,0 UV-I 0 W/m² 1,7 °C -0,9 °C 20,9 km/h (4 Bft)
09.12.2018 21:16 2,9 °C 92 % 1010,9 hPa 0,0 mm 18,1 km/h (3 Bft) W-SW 244 ° 0 min 0,000 mm 0,0 UV-I 0 W/m² 1,7 °C -1,3 °C 25,7 km/h (4 Bft)
09.12.2018 21:17 2,9 °C 92 % 1010,9 hPa 0,0 mm 11,3 km/h (2 Bft) W 277 ° 0 min 0,000 mm 0,0 UV-I 0 W/m² 1,7 °C -0,1 °C 17,7 km/h (3 Bft)
09.12.2018 21:18 2,9 °C 92 % 1010,8 hPa 0,2 mm 15,4 km/h (3 Bft) W-NW 284 ° 0 min 0,000 mm 0,0 UV-I 0 W/m² 1,7 °C -0,9 °C 20,9 km/h (4 Bft)
09.12.2018 21:19 2,9 °C 92 % 1010,9 hPa 0,0 mm 12,4 km/h (3 Bft) W-SW 249 ° 0 min 0,000 mm 0,0 UV-I 0 W/m² 1,7 °C -0,4 °C 22,5 km/h (4 Bft)
09.12.2018 21:20 2,9 °C 92 % 1010,9 hPa 0,0 mm 15,4 km/h (3 Bft) W-SW 257 ° 0 min 0,000 mm 0,0 UV-I 0 W/m² 1,7 °C -0,9 °C 22,5 km/h (4 Bft)
09.12.2018 21:21 2,9 °C 92 % 1010,9 hPa 0,0 mm 19,3 km/h (3 Bft) W-NW 282 ° 0 min 0,000 mm 0,0 UV-I 0 W/m² 1,7 °C -1,5 °C 29,0 km/h (5 Bft)
09.12.2018 21:22 2,8 °C 92 % 1010,9 hPa 0,0 mm 19,6 km/h (3 Bft) W 266 ° 0 min 0,000 mm 0,0 UV-I 0 W/m² 1,6 °C -1,7 °C 25,7 km/h (4 Bft)
09.12.2018 21:23 2,8 °C 92 % 1010,9 hPa 0,0 mm 14,1 km/h (3 Bft) W-SW 258 ° 0 min 0,000 mm 0,0 UV-I 0 W/m² 1,6 °C -0,8 °C 25,7 km/h (4 Bft)
09.12.2018 21:24 2,8 °C 92 % 1010,9 hPa 0,0 mm 12,6 km/h (3 Bft) SW 236 ° 0 min 0,000 mm 0,0 UV-I 0 W/m² 1,6 °C -0,5 °C 20,9 km/h (4 Bft)
09.12.2018 21:25 2,8 °C 92 % 1010,9 hPa 0,2 mm 9,5 km/h (2 Bft) W 269 ° 0 min 0,000 mm 0,0 UV-I 0 W/m² 1,6 °C 0,2 °C 12,9 km/h (3 Bft)
09.12.2018 21:26 2,8 °C 92 % 1011,0 hPa 0,0 mm 14,3 km/h (3 Bft) W-SW 257 ° 0 min 0,000 mm 0,0 UV-I 0 W/m² 1,6 °C -0,8 °C 17,7 km/h (3 Bft)
09.12.2018 21:27 2,8 °C 92 % 1011,0 hPa 0,0 mm 11,0 km/h (2 Bft) W-SW 254 ° 0 min 0,000 mm 0,0 UV-I 0 W/m² 1,6 °C -0,2 °C 16,1 km/h (3 Bft)
09.12.2018 21:28 2,8 °C 92 % 1011,0 hPa 0,0 mm 9,9 km/h (2 Bft) W 259 ° 0 min 0,000 mm 0,0 UV-I 0 W/m² 1,6 °C 0,1 °C 14,5 km/h (3 Bft)
09.12.2018 21:29 2,8 °C 92 % 1011,0 hPa 0,0 mm 15,1 km/h (3 Bft) W 267 ° 0 min 0,000 mm 0,0 UV-I 0 W/m² 1,6 °C -1,0 °C 19,3 km/h (3 Bft)
09.12.2018 21:30 2,8 °C 92 % 1011,0 hPa 0,0 mm 16,3 km/h (3 Bft) W 271 ° 0 min 0,000 mm 0,0 UV-I 0 W/m² 1,6 °C -1,2 °C 24,1 km/h (4 Bft)
09.12.2018 21:31 2,8 °C 92 % 1011,0 hPa 0,0 mm 20,1 km/h (4 Bft) W-SW 254 ° 0 min 0,000 mm 0,0 UV-I 0 W/m² 1,6 °C -1,7 °C 27,4 km/h (4 Bft)
09.12.2018 21:32 2,9 °C 92 % 1011,0 hPa 0,0 mm 13,7 km/h (3 Bft) W 269 ° 0 min 0,000 mm 0,0 UV-I 0 W/m² 1,7 °C -0,6 °C 20,9 km/h (4 Bft)
09.12.2018 21:33 2,8 °C 92 % 1011,0 hPa 0,2 mm 17,0 km/h (3 Bft) W 259 ° 0 min 0,000 mm 0,0 UV-I 0 W/m² 1,6 °C -1,3 °C 25,7 km/h (4 Bft)
09.12.2018 21:34 2,8 °C 92 % 1011,1 hPa 0,0 mm 17,5 km/h (3 Bft) W-NW 290 ° 0 min 0,000 mm 0,0 UV-I 0 W/m² 1,6 °C -1,4 °C 25,7 km/h (4 Bft)
09.12.2018 21:35 2,8 °C 92 % 1011,0 hPa 0,0 mm 15,4 km/h (3 Bft) W-SW 248 ° 0 min 0,000 mm 0,0 UV-I 0 W/m² 1,6 °C -1,0 °C 24,1 km/h (4 Bft)
09.12.2018 21:36 2,8 °C 92 % 1011,0 hPa 0,0 mm 13,2 km/h (3 Bft) W-NW 301 ° 0 min 0,000 mm 0,0 UV-I 0 W/m² 1,6 °C -0,6 °C 19,3 km/h (3 Bft)
09.12.2018 21:37 2,9 °C 92 % 1011,1 hPa 0,0 mm 15,0 km/h (3 Bft) W-SW 252 ° 0 min 0,000 mm 0,0 UV-I 0 W/m² 1,7 °C -0,8 °C 25,7 km/h (4 Bft)
09.12.2018 21:38 2,9 °C 92 % 1011,1 hPa 0,0 mm 15,4 km/h (3 Bft) SW 227 ° 0 min 0,000 mm 0,0 UV-I 0 W/m² 1,7 °C -0,9 °C 22,5 km/h (4 Bft)
09.12.2018 21:39 2,8 °C 92 % 1011,1 hPa 0,0 mm 17,4 km/h (3 Bft) W 267 ° 0 min 0,000 mm 0,0 UV-I 0 W/m² 1,6 °C -1,3 °C 24,1 km/h (4 Bft)
09.12.2018 21:40 2,9 °C 93 % 1011,1 hPa 0,0 mm 20,4 km/h (4 Bft) W 259 ° 0 min 0,000 mm 0,0 UV-I 0 W/m² 1,9 °C -1,6 °C 30,6 km/h (5 Bft)
09.12.2018 21:41 2,9 °C 92 % 1011,1 hPa 0,0 mm 19,5 km/h (3 Bft) W 268 ° 0 min 0,000 mm 0,0 UV-I 0 W/m² 1,7 °C -1,5 °C 24,1 km/h (4 Bft)
09.12.2018 21:42 2,9 °C 92 % 1011,2 hPa 0,0 mm 13,9 km/h (3 Bft) W 267 ° 0 min 0,000 mm 0,0 UV-I 0 W/m² 1,7 °C -0,6 °C 17,7 km/h (3 Bft)
09.12.2018 21:43 2,9 °C 93 % 1011,2 hPa 0,0 mm 20,0 km/h (4 Bft) W-SW 254 ° 0 min 0,000 mm 0,0 UV-I 0 W/m² 1,9 °C -1,6 °C 29,0 km/h (5 Bft)
09.12.2018 21:44 2,9 °C 92 % 1011,2 hPa 0,0 mm 15,7 km/h (3 Bft) W-SW 252 ° 0 min 0,000 mm 0,0 UV-I 0 W/m² 1,7 °C -1,0 °C 30,6 km/h (5 Bft)
09.12.2018 21:45 2,9 °C 93 % 1011,2 hPa 0,0 mm 18,0 km/h (3 Bft) W 267 ° 0 min 0,000 mm 0,0 UV-I 0 W/m² 1,9 °C -1,3 °C 24,1 km/h (4 Bft)
09.12.2018 21:46 2,9 °C 93 % 1011,2 hPa 0,2 mm 15,7 km/h (3 Bft) W 265 ° 0 min 0,000 mm 0,0 UV-I 0 W/m² 1,9 °C -1,0 °C 19,3 km/h (3 Bft)
09.12.2018 21:47 2,9 °C 93 % 1011,3 hPa 0,0 mm 12,6 km/h (3 Bft) W 265 ° 0 min 0,000 mm 0,0 UV-I 0 W/m² 1,9 °C -0,4 °C 16,1 km/h (3 Bft)
09.12.2018 21:48 2,9 °C 93 % 1011,3 hPa 0,0 mm 13,3 km/h (3 Bft) W 264 ° 0 min 0,000 mm 0,0 UV-I 0 W/m² 1,9 °C -0,5 °C 19,3 km/h (3 Bft)
09.12.2018 21:49 2,9 °C 93 % 1011,3 hPa 0,0 mm 14,5 km/h (3 Bft) W 267 ° 0 min 0,000 mm 0,0 UV-I 0 W/m² 1,9 °C -0,8 °C 22,5 km/h (4 Bft)
09.12.2018 21:50 2,9 °C 93 % 1011,3 hPa 0,0 mm 12,7 km/h (3 Bft) W 260 ° 0 min 0,000 mm 0,0 UV-I 0 W/m² 1,9 °C -0,4 °C 20,9 km/h (4 Bft)
09.12.2018 21:51 2,9 °C 93 % 1011,3 hPa 0,0 mm 16,9 km/h (3 Bft) W 268 ° 0 min 0,000 mm 0,0 UV-I 0 W/m² 1,9 °C -1,1 °C 20,9 km/h (4 Bft)
09.12.2018 21:52 2,9 °C 93 % 1011,3 hPa 0,0 mm 13,6 km/h (3 Bft) W 262 ° 0 min 0,000 mm 0,0 UV-I 0 W/m² 1,9 °C -0,6 °C 17,7 km/h (3 Bft)
09.12.2018 21:53 2,9 °C 93 % 1011,3 hPa 0,0 mm 7,9 km/h (2 Bft) W 265 ° 0 min 0,000 mm 0,0 UV-I 0 W/m² 1,9 °C 0,7 °C 14,5 km/h (3 Bft)
09.12.2018 21:54 2,9 °C 93 % 1011,3 hPa 0,0 mm 17,6 km/h (3 Bft) W 272 ° 0 min 0,000 mm 0,0 UV-I 0 W/m² 1,9 °C -1,2 °C 24,1 km/h (4 Bft)
09.12.2018 21:55 2,9 °C 93 % 1011,5 hPa 0,2 mm 18,1 km/h (3 Bft) W-NW 289 ° 0 min 0,000 mm 0,0 UV-I 0 W/m² 1,9 °C -1,3 °C 25,7 km/h (4 Bft)
09.12.2018 21:56 2,9 °C 93 % 1011,4 hPa 0,0 mm 14,4 km/h (3 Bft) W 269 ° 0 min 0,000 mm 0,0 UV-I 0 W/m² 1,9 °C -0,7 °C 19,3 km/h (3 Bft)
09.12.2018 21:57 2,9 °C 93 % 1011,4 hPa 0,2 mm 14,6 km/h (3 Bft) W 260 ° 0 min 0,000 mm 0,0 UV-I 0 W/m² 1,9 °C -0,8 °C 17,7 km/h (3 Bft)
09.12.2018 21:58 2,9 °C 93 % 1011,5 hPa 0,0 mm 11,5 km/h (2 Bft) W 277 ° 0 min 0,000 mm 0,0 UV-I 0 W/m² 1,9 °C -0,2 °C 19,3 km/h (3 Bft)
09.12.2018 21:59 2,9 °C 93 % 1011,5 hPa 0,0 mm 10,1 km/h (2 Bft) W 263 ° 0 min 0,000 mm 0,0 UV-I 0 W/m² 1,9 °C 0,1 °C 14,5 km/h (3 Bft)
09.12.2018 22:00 2,9 °C 93 % 1011,5 hPa 0,0 mm 12,7 km/h (3 Bft) W-NW 287 ° 0 min 0,000 mm 0,0 UV-I 0 W/m² 1,9 °C -0,4 °C 16,1 km/h (3 Bft)
09.12.2018 22:01 2,9 °C 93 % 1011,6 hPa 0,2 mm 18,2 km/h (3 Bft) W 278 ° 0 min 0,000 mm 0,0 UV-I 0 W/m² 1,9 °C -1,3 °C 32,2 km/h (5 Bft)
09.12.2018 22:02 2,9 °C 93 % 1011,6 hPa 0,0 mm 15,0 km/h (3 Bft) W-SW 250 ° 0 min 0,000 mm 0,0 UV-I 0 W/m² 1,9 °C -0,8 °C 24,1 km/h (4 Bft)
09.12.2018 22:03 2,9 °C 92 % 1011,6 hPa 0,0 mm 12,7 km/h (3 Bft) W 263 ° 0 min 0,000 mm 0,0 UV-I 0 W/m² 1,7 °C -0,4 °C 20,9 km/h (4 Bft)
09.12.2018 22:04 2,9 °C 92 % 1011,6 hPa 0,2 mm 15,0 km/h (3 Bft) W-NW 284 ° 0 min 0,000 mm 0,0 UV-I 0 W/m² 1,7 °C -0,8 °C 20,9 km/h (4 Bft)
09.12.2018 22:05 2,8 °C 92 % 1011,6 hPa 0,0 mm 13,4 km/h (3 Bft) W 267 ° 0 min 0,000 mm 0,0 UV-I 0 W/m² 1,6 °C -0,7 °C 17,7 km/h (3 Bft)
09.12.2018 22:06 2,8 °C 92 % 1011,7 hPa 0,0 mm 10,4 km/h (2 Bft) W 259 ° 0 min 0,000 mm 0,0 UV-I 0 W/m² 1,6 °C -0,1 °C 17,7 km/h (3 Bft)
09.12.2018 22:07 2,8 °C 92 % 1011,7 hPa 0,0 mm 15,2 km/h (3 Bft) W 271 ° 0 min 0,000 mm 0,0 UV-I 0 W/m² 1,6 °C -1,0 °C 19,3 km/h (3 Bft)
09.12.2018 22:08 2,8 °C 92 % 1011,7 hPa 0,0 mm 14,3 km/h (3 Bft) W 265 ° 0 min 0,000 mm 0,0 UV-I 0 W/m² 1,6 °C -0,8 °C 24,1 km/h (4 Bft)
09.12.2018 22:09 2,7 °C 92 % 1011,6 hPa 0,2 mm 16,9 km/h (3 Bft) W 281 ° 0 min 0,000 mm 0,0 UV-I 0 W/m² 1,5 °C -1,4 °C 29,0 km/h (5 Bft)
09.12.2018 22:10 2,7 °C 92 % 1011,8 hPa 0,0 mm 15,6 km/h (3 Bft) W-SW 244 ° 0 min 0,000 mm 0,0 UV-I 0 W/m² 1,5 °C -1,2 °C 24,1 km/h (4 Bft)
09.12.2018 22:11 2,7 °C 93 % 1011,7 hPa 0,0 mm 17,0 km/h (3 Bft) W 281 ° 0 min 0,000 mm 0,0 UV-I 0 W/m² 1,7 °C -1,4 °C 24,1 km/h (4 Bft)
09.12.2018 22:12 2,7 °C 93 % 1011,6 hPa 0,0 mm 12,6 km/h (3 Bft) W-SW 246 ° 0 min 0,000 mm 0,0 UV-I 0 W/m² 1,7 °C -0,6 °C 17,7 km/h (3 Bft)
09.12.2018 22:13 2,7 °C 93 % 1011,8 hPa 0,0 mm 18,4 km/h (3 Bft) W 261 ° 0 min 0,000 mm 0,0 UV-I 0 W/m² 1,7 °C -1,6 °C 25,7 km/h (4 Bft)
09.12.2018 22:14 2,7 °C 93 % 1011,8 hPa 0,0 mm 18,3 km/h (3 Bft) W-SW 257 ° 0 min 0,000 mm 0,0 UV-I 0 W/m² 1,7 °C -1,6 °C 20,9 km/h (4 Bft)
09.12.2018 22:15 2,7 °C 93 % 1011,8 hPa 0,0 mm 16,3 km/h (3 Bft) W-SW 250 ° 0 min 0,000 mm 0,0 UV-I 0 W/m² 1,7 °C -1,3 °C 25,7 km/h (4 Bft)
09.12.2018 22:16 2,7 °C 93 % 1011,8 hPa 0,0 mm 16,3 km/h (3 Bft) W 265 ° 0 min 0,000 mm 0,0 UV-I 0 W/m² 1,7 °C -1,3 °C 22,5 km/h (4 Bft)
09.12.2018 22:17 2,7 °C 93 % 1011,8 hPa 0,0 mm 14,0 km/h (3 Bft) W 276 ° 0 min 0,000 mm 0,0 UV-I 0 W/m² 1,7 °C -0,9 °C 19,3 km/h (3 Bft)
09.12.2018 22:18 2,7 °C 93 % 1011,8 hPa 0,0 mm 11,0 km/h (2 Bft) W-SW 252 ° 0 min 0,000 mm 0,0 UV-I 0 W/m² 1,7 °C -0,3 °C 12,9 km/h (3 Bft)
09.12.2018 22:19 2,7 °C 93 % 1011,8 hPa 0,0 mm 13,4 km/h (3 Bft) W-SW 258 ° 0 min 0,000 mm 0,0 UV-I 0 W/m² 1,7 °C -0,8 °C 27,4 km/h (4 Bft)
09.12.2018 22:20 2,7 °C 93 % 1011,9 hPa 0,2 mm 19,5 km/h (3 Bft) W-NW 301 ° 0 min 0,000 mm 0,0 UV-I 0 W/m² 1,7 °C -1,8 °C 25,7 km/h (4 Bft)
09.12.2018 22:21 2,7 °C 93 % 1011,9 hPa 0,0 mm 13,1 km/h (3 Bft) W 263 ° 0 min 0,000 mm 0,0 UV-I 0 W/m² 1,7 °C -0,7 °C 19,3 km/h (3 Bft)
09.12.2018 22:22 2,7 °C 93 % 1011,9 hPa 0,0 mm 12,1 km/h (2 Bft) W-NW 289 ° 0 min 0,000 mm 0,0 UV-I 0 W/m² 1,7 °C -0,6 °C 19,3 km/h (3 Bft)
09.12.2018 22:23 2,7 °C 93 % 1011,9 hPa 0,0 mm 13,5 km/h (3 Bft) W-SW 252 ° 0 min 0,000 mm 0,0 UV-I 0 W/m² 1,7 °C -0,8 °C 27,4 km/h (4 Bft)
09.12.2018 22:24 2,7 °C 93 % 1011,9 hPa 0,0 mm 12,8 km/h (3 Bft) W 277 ° 0 min 0,000 mm 0,0 UV-I 0 W/m² 1,7 °C -0,7 °C 19,3 km/h (3 Bft)
09.12.2018 22:25 2,7 °C 93 % 1011,9 hPa 0,0 mm 11,4 km/h (2 Bft) W 264 ° 0 min 0,000 mm 0,0 UV-I 0 W/m² 1,7 °C -0,4 °C 16,1 km/h (3 Bft)
09.12.2018 22:26 2,7 °C 93 % 1011,9 hPa 0,0 mm 22,2 km/h (4 Bft) W-NW 283 ° 0 min 0,000 mm 0,0 UV-I 0 W/m² 1,7 °C -2,1 °C 30,6 km/h (5 Bft)
09.12.2018 22:27 2,7 °C 93 % 1011,9 hPa 0,0 mm 16,9 km/h (3 Bft) W-SW 257 ° 0 min 0,000 mm 0,0 UV-I 0 W/m² 1,7 °C -1,4 °C 24,1 km/h (4 Bft)
09.12.2018 22:28 2,8 °C 93 % 1011,9 hPa 0,0 mm 12,1 km/h (2 Bft) W-SW 257 ° 0 min 0,000 mm 0,0 UV-I 0 W/m² 1,8 °C -0,4 °C 16,1 km/h (3 Bft)
09.12.2018 22:29 2,8 °C 93 % 1011,9 hPa 0,0 mm 10,8 km/h (2 Bft) W-SW 242 ° 0 min 0,000 mm 0,0 UV-I 0 W/m² 1,8 °C -0,2 °C 16,1 km/h (3 Bft)
09.12.2018 22:30 2,8 °C 93 % 1012,0 hPa 0,0 mm 16,3 km/h (3 Bft) W 276 ° 0 min 0,000 mm 0,0 UV-I 0 W/m² 1,8 °C -1,2 °C 29,0 km/h (5 Bft)
09.12.2018 22:31 2,8 °C 93 % 1012,0 hPa 0,0 mm 18,3 km/h (3 Bft) W-SW 258 ° 0 min 0,000 mm 0,0 UV-I 0 W/m² 1,8 °C -1,5 °C 24,1 km/h (4 Bft)
09.12.2018 22:32 2,8 °C 93 % 1012,1 hPa 0,0 mm 24,1 km/h (4 Bft) W 265 ° 0 min 0,000 mm 0,0 UV-I 0 W/m² 1,8 °C -2,2 °C 33,8 km/h (5 Bft)
09.12.2018 22:33 2,8 °C 93 % 1012,1 hPa 0,0 mm 17,8 km/h (3 Bft) W 274 ° 0 min 0,000 mm 0,0 UV-I 0 W/m² 1,8 °C -1,4 °C 30,6 km/h (5 Bft)
09.12.2018 22:34 2,8 °C 93 % 1012,0 hPa 0,0 mm 13,5 km/h (3 Bft) W-SW 250 ° 0 min 0,000 mm 0,0 UV-I 0 W/m² 1,8 °C -0,7 °C 19,3 km/h (3 Bft)
09.12.2018 22:35 2,8 °C 93 % 1012,1 hPa 0,0 mm 12,6 km/h (3 Bft) W-SW 258 ° 0 min 0,000 mm 0,0 UV-I 0 W/m² 1,8 °C -0,5 °C 17,7 km/h (3 Bft)
09.12.2018 22:36 2,8 °C 93 % 1012,1 hPa 0,0 mm 16,7 km/h (3 Bft) W-SW 256 ° 0 min 0,000 mm 0,0 UV-I 0 W/m² 1,8 °C -1,2 °C 25,7 km/h (4 Bft)
09.12.2018 22:37 2,8 °C 93 % 1012,2 hPa 0,0 mm 17,2 km/h (3 Bft) W 261 ° 0 min 0,000 mm 0,0 UV-I 0 W/m² 1,8 °C -1,3 °C 30,6 km/h (5 Bft)
09.12.2018 22:38 2,9 °C 93 % 1012,2 hPa 0,0 mm 21,3 km/h (4 Bft) W 269 ° 0 min 0,000 mm 0,0 UV-I 0 W/m² 1,9 °C -1,8 °C 29,0 km/h (5 Bft)
09.12.2018 22:39 2,9 °C 93 % 1012,2 hPa 0,0 mm 16,1 km/h (3 Bft) W-SW 243 ° 0 min 0,000 mm 0,0 UV-I 0 W/m² 1,9 °C -1,0 °C 22,5 km/h (4 Bft)
09.12.2018 22:40 2,9 °C 93 % 1012,3 hPa 0,0 mm 15,6 km/h (3 Bft) W 263 ° 0 min 0,000 mm 0,0 UV-I 0 W/m² 1,9 °C -0,9 °C 24,1 km/h (4 Bft)
09.12.2018 22:41 2,9 °C 93 % 1012,3 hPa 0,0 mm 17,8 km/h (3 Bft) W 263 ° 0 min 0,000 mm 0,0 UV-I 0 W/m² 1,9 °C -1,3 °C 25,7 km/h (4 Bft)
09.12.2018 22:42 2,9 °C 93 % 1012,2 hPa 0,0 mm 13,4 km/h (3 Bft) W 279 ° 0 min 0,000 mm 0,0 UV-I 0 W/m² 1,9 °C -0,6 °C 22,5 km/h (4 Bft)
09.12.2018 22:43 2,9 °C 93 % 1012,3 hPa 0,0 mm 18,7 km/h (3 Bft) W-SW 253 ° 0 min 0,000 mm 0,0 UV-I 0 W/m² 1,9 °C -1,4 °C 32,2 km/h (5 Bft)
09.12.2018 22:44 2,9 °C 93 % 1012,3 hPa 0,0 mm 10,1 km/h (2 Bft) W-SW 254 ° 0 min 0,000 mm 0,0 UV-I 0 W/m² 1,9 °C 0,1 °C 16,1 km/h (3 Bft)
09.12.2018 22:45 2,9 °C 93 % 1012,3 hPa 0,0 mm 13,9 km/h (3 Bft) W-SW 257 ° 0 min 0,000 mm 0,0 UV-I 0 W/m² 1,9 °C -0,6 °C 19,3 km/h (3 Bft)
09.12.2018 22:46 2,9 °C 93 % 1012,3 hPa 0,0 mm 18,5 km/h (3 Bft) W 267 ° 0 min 0,000 mm 0,0 UV-I 0 W/m² 1,9 °C -1,4 °C 24,1 km/h (4 Bft)
09.12.2018 22:47 2,9 °C 93 % 1012,3 hPa 0,0 mm 17,8 km/h (3 Bft) W 259 ° 0 min 0,000 mm 0,0 UV-I 0 W/m² 1,9 °C -1,3 °C 22,5 km/h (4 Bft)
09.12.2018 22:48 2,9 °C 93 % 1012,2 hPa 0,0 mm 19,2 km/h (3 Bft) W-SW 244 ° 0 min 0,000 mm 0,0 UV-I 0 W/m² 1,9 °C -1,5 °C 25,7 km/h (4 Bft)
09.12.2018 22:49 2,9 °C 93 % 1012,3 hPa 0,0 mm 12,9 km/h (3 Bft) W-NW 283 ° 0 min 0,000 mm 0,0 UV-I 0 W/m² 1,9 °C -0,5 °C 14,5 km/h (3 Bft)
09.12.2018 22:50 2,9 °C 93 % 1012,3 hPa 0,0 mm 11,7 km/h (2 Bft) W 265 ° 0 min 0,000 mm 0,0 UV-I 0 W/m² 1,9 °C -0,2 °C 17,7 km/h (3 Bft)
09.12.2018 22:51 2,9 °C 93 % 1012,3 hPa 0,0 mm 11,8 km/h (2 Bft) W-SW 256 ° 0 min 0,000 mm 0,0 UV-I 0 W/m² 1,9 °C -0,2 °C 16,1 km/h (3 Bft)
09.12.2018 22:52 2,9 °C 93 % 1012,4 hPa 0,0 mm 18,6 km/h (3 Bft) W-SW 246 ° 0 min 0,000 mm 0,0 UV-I 0 W/m² 1,9 °C -1,4 °C 25,7 km/h (4 Bft)
09.12.2018 22:53 2,9 °C 93 % 1012,4 hPa 0,0 mm 19,2 km/h (3 Bft) W-NW 298 ° 0 min 0,000 mm 0,0 UV-I 0 W/m² 1,9 °C -1,5 °C 27,4 km/h (4 Bft)
09.12.2018 22:54 2,9 °C 93 % 1012,4 hPa 0,0 mm 14,7 km/h (3 Bft) W 273 ° 0 min 0,000 mm 0,0 UV-I 0 W/m² 1,9 °C -0,8 °C 19,3 km/h (3 Bft)
09.12.2018 22:55 2,9 °C 93 % 1012,3 hPa 0,0 mm 12,5 km/h (3 Bft) SW 227 ° 0 min 0,000 mm 0,0 UV-I 0 W/m² 1,9 °C -0,4 °C 17,7 km/h (3 Bft)
09.12.2018 22:56 2,9 °C 93 % 1012,4 hPa 0,0 mm 15,3 km/h (3 Bft) W 266 ° 0 min 0,000 mm 0,0 UV-I 0 W/m² 1,9 °C -0,9 °C 22,5 km/h (4 Bft)
09.12.2018 22:57 3,0 °C 93 % 1012,4 hPa 0,0 mm 18,4 km/h (3 Bft) W-SW 257 ° 0 min 0,000 mm 0,0 UV-I 0 W/m² 2,0 °C -1,2 °C 25,7 km/h (4 Bft)
09.12.2018 22:58 3,0 °C 93 % 1012,4 hPa 0,0 mm 21,3 km/h (4 Bft) W 259 ° 0 min 0,000 mm 0,0 UV-I 0 W/m² 2,0 °C -1,6 °C 25,7 km/h (4 Bft)
09.12.2018 22:59 3,0 °C 93 % 1012,4 hPa 0,0 mm 16,4 km/h (3 Bft) SW 234 ° 0 min 0,000 mm 0,0 UV-I 0 W/m² 2,0 °C -0,9 °C 29,0 km/h (5 Bft)
09.12.2018 23:00 3,0 °C 93 % 1012,4 hPa 0,0 mm 16,2 km/h (3 Bft) W 259 ° 0 min 0,000 mm 0,0 UV-I 0 W/m² 2,0 °C -0,9 °C 22,5 km/h (4 Bft)
09.12.2018 23:01 3,0 °C 93 % 1012,4 hPa 0,0 mm 18,2 km/h (3 Bft) W 261 ° 0 min 0,000 mm 0,0 UV-I 0 W/m² 2,0 °C -1,2 °C 25,7 km/h (4 Bft)
09.12.2018 23:02 3,0 °C 93 % 1012,4 hPa 0,0 mm 15,5 km/h (3 Bft) W 268 ° 0 min 0,000 mm 0,0 UV-I 0 W/m² 2,0 °C -0,8 °C 22,5 km/h (4 Bft)
09.12.2018 23:03 3,0 °C 93 % 1012,5 hPa 0,0 mm 11,5 km/h (2 Bft) W 277 ° 0 min 0,000 mm 0,0 UV-I 0 W/m² 2,0 °C -0,1 °C 17,7 km/h (3 Bft)
09.12.2018 23:04 3,0 °C 93 % 1012,5 hPa 0,0 mm 13,5 km/h (3 Bft) W 263 ° 0 min 0,000 mm 0,0 UV-I 0 W/m² 2,0 °C -0,5 °C 17,7 km/h (3 Bft)
09.12.2018 23:05 3,0 °C 93 % 1012,5 hPa 0,0 mm 14,6 km/h (3 Bft) W 268 ° 0 min 0,000 mm 0,0 UV-I 0 W/m² 2,0 °C -0,6 °C 19,3 km/h (3 Bft)
09.12.2018 23:06 3,0 °C 93 % 1012,5 hPa 0,0 mm 13,9 km/h (3 Bft) W 275 ° 0 min 0,000 mm 0,0 UV-I 0 W/m² 2,0 °C -0,5 °C 16,1 km/h (3 Bft)
09.12.2018 23:07 3,0 °C 93 % 1012,5 hPa 0,0 mm 12,5 km/h (3 Bft) W-NW 286 ° 0 min 0,000 mm 0,0 UV-I 0 W/m² 2,0 °C -0,3 °C 16,1 km/h (3 Bft)
09.12.2018 23:08 3,1 °C 93 % 1012,5 hPa 0,0 mm 15,5 km/h (3 Bft) W 269 ° 0 min 0,000 mm 0,0 UV-I 0 W/m² 2,1 °C -0,7 °C 24,1 km/h (4 Bft)
09.12.2018 23:09 3,1 °C 93 % 1012,6 hPa 0,0 mm 17,7 km/h (3 Bft) W-SW 256 ° 0 min 0,000 mm 0,0 UV-I 0 W/m² 2,1 °C -1,0 °C 29,0 km/h (5 Bft)
09.12.2018 23:10 3,0 °C 93 % 1012,7 hPa 0,0 mm 14,5 km/h (3 Bft) W-NW 287 ° 0 min 0,000 mm 0,0 UV-I 0 W/m² 2,0 °C -0,6 °C 20,9 km/h (4 Bft)
09.12.2018 23:11 3,1 °C 93 % 1012,7 hPa 0,2 mm 15,4 km/h (3 Bft) W-NW 284 ° 0 min 0,000 mm 0,0 UV-I 0 W/m² 2,1 °C -0,7 °C 25,7 km/h (4 Bft)
09.12.2018 23:12 3,0 °C 93 % 1012,7 hPa 0,0 mm 11,9 km/h (2 Bft) W-NW 300 ° 0 min 0,000 mm 0,0 UV-I 0 W/m² 2,0 °C -0,1 °C 17,7 km/h (3 Bft)
09.12.2018 23:13 3,1 °C 93 % 1012,8 hPa 0,0 mm 14,8 km/h (3 Bft) W 259 ° 0 min 0,000 mm 0,0 UV-I 0 W/m² 2,1 °C -0,6 °C 19,3 km/h (3 Bft)
09.12.2018 23:14 3,0 °C 93 % 1012,8 hPa 0,2 mm 13,6 km/h (3 Bft) W 280 ° 0 min 0,000 mm 0,0 UV-I 0 W/m² 2,0 °C -0,5 °C 19,3 km/h (3 Bft)
09.12.2018 23:15 3,0 °C 93 % 1012,8 hPa 0,0 mm 14,6 km/h (3 Bft) NW 304 ° 0 min 0,000 mm 0,0 UV-I 0 W/m² 2,0 °C -0,6 °C 20,9 km/h (4 Bft)
09.12.2018 23:16 3,0 °C 93 % 1012,8 hPa 0,0 mm 16,0 km/h (3 Bft) W-SW 250 ° 0 min 0,000 mm 0,0 UV-I 0 W/m² 2,0 °C -0,9 °C 25,7 km/h (4 Bft)
09.12.2018 23:17 3,0 °C 93 % 1012,8 hPa 0,0 mm 14,4 km/h (3 Bft) W-NW 282 ° 0 min 0,000 mm 0,0 UV-I 0 W/m² 2,0 °C -0,6 °C 19,3 km/h (3 Bft)
09.12.2018 23:18 3,0 °C 93 % 1012,9 hPa 0,0 mm 11,0 km/h (2 Bft) W 277 ° 0 min 0,000 mm 0,0 UV-I 0 W/m² 2,0 °C 0,0 °C 19,3 km/h (3 Bft)
09.12.2018 23:19 2,9 °C 93 % 1012,9 hPa 0,0 mm 12,1 km/h (2 Bft) W-NW 284 ° 0 min 0,000 mm 0,0 UV-I 0 W/m² 1,9 °C -0,3 °C 16,1 km/h (3 Bft)
09.12.2018 23:20 2,9 °C 93 % 1013,0 hPa 0,0 mm 12,5 km/h (3 Bft) W 270 ° 0 min 0,000 mm 0,0 UV-I 0 W/m² 1,9 °C -0,4 °C 17,7 km/h (3 Bft)
09.12.2018 23:21 2,9 °C 93 % 1013,0 hPa 0,2 mm 12,9 km/h (3 Bft) NW 304 ° 0 min 0,000 mm 0,0 UV-I 0 W/m² 1,9 °C -0,5 °C 17,7 km/h (3 Bft)
09.12.2018 23:22 2,9 °C 93 % 1013,0 hPa 0,0 mm 13,1 km/h (3 Bft) W 267 ° 0 min 0,000 mm 0,0 UV-I 0 W/m² 1,9 °C -0,5 °C 16,1 km/h (3 Bft)
09.12.2018 23:23 2,9 °C 93 % 1013,1 hPa 0,0 mm 12,9 km/h (3 Bft) W-SW 242 ° 0 min 0,000 mm 0,0 UV-I 0 W/m² 1,9 °C -0,5 °C 17,7 km/h (3 Bft)
09.12.2018 23:24 2,9 °C 93 % 1013,1 hPa 0,0 mm 13,2 km/h (3 Bft) W-SW 252 ° 0 min 0,000 mm 0,0 UV-I 0 W/m² 1,9 °C -0,5 °C 17,7 km/h (3 Bft)
09.12.2018 23:25 2,9 °C 93 % 1013,1 hPa 0,0 mm 13,6 km/h (3 Bft) W-SW 246 ° 0 min 0,000 mm 0,0 UV-I 0 W/m² 1,9 °C -0,6 °C 24,1 km/h (4 Bft)
09.12.2018 23:26 2,9 °C 93 % 1013,2 hPa 0,0 mm 14,7 km/h (3 Bft) W 281 ° 0 min 0,000 mm 0,0 UV-I 0 W/m² 1,9 °C -0,8 °C 19,3 km/h (3 Bft)
09.12.2018 23:27 2,8 °C 93 % 1013,2 hPa 0,0 mm 20,0 km/h (4 Bft) W-NW 294 ° 0 min 0,000 mm 0,0 UV-I 0 W/m² 1,8 °C -1,7 °C 24,1 km/h (4 Bft)
09.12.2018 23:28 2,8 °C 93 % 1013,2 hPa 0,0 mm 16,2 km/h (3 Bft) W 263 ° 0 min 0,000 mm 0,0 UV-I 0 W/m² 1,8 °C -1,2 °C 24,1 km/h (4 Bft)
09.12.2018 23:29 2,7 °C 93 % 1013,3 hPa 0,2 mm 15,3 km/h (3 Bft) W 267 ° 0 min 0,000 mm 0,0 UV-I 0 W/m² 1,7 °C -1,1 °C 22,5 km/h (4 Bft)
09.12.2018 23:30 2,7 °C 93 % 1013,4 hPa 0,0 mm 15,4 km/h (3 Bft) W 260 ° 0 min 0,000 mm 0,0 UV-I 0 W/m² 1,7 °C -1,2 °C 24,1 km/h (4 Bft)
09.12.2018 23:31 2,6 °C 93 % 1013,3 hPa 0,0 mm 16,3 km/h (3 Bft) W-NW 284 ° 0 min 0,000 mm 0,0 UV-I 0 W/m² 1,6 °C -1,4 °C 22,5 km/h (4 Bft)
09.12.2018 23:32 2,6 °C 93 % 1013,3 hPa 0,0 mm 12,3 km/h (3 Bft) W-NW 284 ° 0 min 0,000 mm 0,0 UV-I 0 W/m² 1,6 °C -0,7 °C 16,1 km/h (3 Bft)
09.12.2018 23:33 2,6 °C 93 % 1013,3 hPa 0,2 mm 15,2 km/h (3 Bft) W 276 ° 0 min 0,000 mm 0,0 UV-I 0 W/m² 1,6 °C -1,2 °C 20,9 km/h (4 Bft)
09.12.2018 23:34 2,4 °C 93 % 1013,3 hPa 0,0 mm 16,0 km/h (3 Bft) W 265 ° 0 min 0,000 mm 0,0 UV-I 0 W/m² 1,4 °C -1,6 °C 22,5 km/h (4 Bft)
09.12.2018 23:35 2,4 °C 92 % 1013,3 hPa 0,0 mm 18,9 km/h (3 Bft) W-NW 284 ° 0 min 0,000 mm 0,0 UV-I 0 W/m² 1,2 °C -2,1 °C 24,1 km/h (4 Bft)
09.12.2018 23:36 2,4 °C 92 % 1013,4 hPa 0,0 mm 13,4 km/h (3 Bft) W-SW 254 ° 0 min 0,000 mm 0,0 UV-I 0 W/m² 1,2 °C -1,2 °C 20,9 km/h (4 Bft)
09.12.2018 23:37 2,3 °C 92 % 1013,4 hPa 0,0 mm 18,2 km/h (3 Bft) W 273 ° 0 min 0,000 mm 0,0 UV-I 0 W/m² 1,1 °C -2,1 °C 25,7 km/h (4 Bft)
09.12.2018 23:38 2,3 °C 92 % 1013,5 hPa 0,0 mm 15,7 km/h (3 Bft) W 261 ° 0 min 0,000 mm 0,0 UV-I 0 W/m² 1,1 °C -1,7 °C 27,4 km/h (4 Bft)
09.12.2018 23:39 2,2 °C 92 % 1013,5 hPa 0,2 mm 18,2 km/h (3 Bft) W-NW 282 ° 0 min 0,000 mm 0,0 UV-I 0 W/m² 1,0 °C -2,2 °C 30,6 km/h (5 Bft)
09.12.2018 23:40 2,2 °C 92 % 1013,5 hPa 0,0 mm 12,7 km/h (3 Bft) W-SW 246 ° 0 min 0,000 mm 0,0 UV-I 0 W/m² 1,0 °C -1,3 °C 20,9 km/h (4 Bft)
09.12.2018 23:41 2,2 °C 92 % 1013,5 hPa 0,0 mm 13,7 km/h (3 Bft) W 263 ° 0 min 0,000 mm 0,0 UV-I 0 W/m² 1,0 °C -1,5 °C 17,7 km/h (3 Bft)
09.12.2018 23:42 2,1 °C 92 % 1013,4 hPa 0,0 mm 16,8 km/h (3 Bft) W-SW 250 ° 0 min 0,000 mm 0,0 UV-I 0 W/m² 0,9 °C -2,1 °C 24,1 km/h (4 Bft)
09.12.2018 23:43 2,1 °C 92 % 1013,5 hPa 0,0 mm 20,0 km/h (4 Bft) W 259 ° 0 min 0,000 mm 0,0 UV-I 0 W/m² 0,9 °C -2,6 °C 29,0 km/h (5 Bft)
09.12.2018 23:44 2,1 °C 92 % 1013,5 hPa 0,0 mm 14,7 km/h (3 Bft) W 271 ° 0 min 0,000 mm 0,0 UV-I 0 W/m² 0,9 °C -1,8 °C 24,1 km/h (4 Bft)
09.12.2018 23:45 2,0 °C 92 % 1013,5 hPa 0,0 mm 15,6 km/h (3 Bft) W 279 ° 0 min 0,000 mm 0,0 UV-I 0 W/m² 0,8 °C -2,1 °C 22,5 km/h (4 Bft)
09.12.2018 23:46 2,1 °C 92 % 1013,6 hPa 0,0 mm 14,4 km/h (3 Bft) W-SW 257 ° 0 min 0,000 mm 0,0 UV-I 0 W/m² 0,9 °C -1,7 °C 20,9 km/h (4 Bft)
09.12.2018 23:47 2,0 °C 92 % 1013,6 hPa 0,0 mm 17,3 km/h (3 Bft) W 266 ° 0 min 0,000 mm 0,0 UV-I 0 W/m² 0,8 °C -2,3 °C 22,5 km/h (4 Bft)
09.12.2018 23:48 2,0 °C 92 % 1013,7 hPa 0,0 mm 21,7 km/h (4 Bft) SW 234 ° 0 min 0,000 mm 0,0 UV-I 0 W/m² 0,8 °C -2,9 °C 29,0 km/h (5 Bft)
09.12.2018 23:49 2,0 °C 92 % 1013,7 hPa 0,0 mm 18,0 km/h (3 Bft) W-SW 238 ° 0 min 0,000 mm 0,0 UV-I 0 W/m² 0,8 °C -2,4 °C 22,5 km/h (4 Bft)
09.12.2018 23:50 2,0 °C 92 % 1013,7 hPa 0,0 mm 21,1 km/h (4 Bft) W 277 ° 0 min 0,000 mm 0,0 UV-I 0 W/m² 0,8 °C -2,9 °C 38,6 km/h (5 Bft)
09.12.2018 23:51 2,0 °C 93 % 1013,6 hPa 0,0 mm 17,6 km/h (3 Bft) W-SW 252 ° 0 min 0,000 mm 0,0 UV-I 0 W/m² 1,0 °C -2,4 °C 22,5 km/h (4 Bft)
09.12.2018 23:52 2,0 °C 93 % 1013,7 hPa 0,0 mm 11,0 km/h (2 Bft) S-SW 193 ° 0 min 0,000 mm 0,0 UV-I 0 W/m² 1,0 °C -1,2 °C 19,3 km/h (3 Bft)
09.12.2018 23:53 2,1 °C 93 % 1013,6 hPa 0,2 mm 16,4 km/h (3 Bft) W 260 ° 0 min 0,000 mm 0,0 UV-I 0 W/m² 1,1 °C -2,1 °C 24,1 km/h (4 Bft)
09.12.2018 23:54 2,1 °C 93 % 1013,6 hPa 0,0 mm 22,2 km/h (4 Bft) W-NW 282 ° 0 min 0,000 mm 0,0 UV-I 0 W/m² 1,1 °C -2,9 °C 30,6 km/h (5 Bft)
09.12.2018 23:55 2,1 °C 93 % 1013,7 hPa 0,0 mm 15,2 km/h (3 Bft) W 274 ° 0 min 0,000 mm 0,0 UV-I 0 W/m² 1,1 °C -1,9 °C 22,5 km/h (4 Bft)
09.12.2018 23:56 2,1 °C 93 % 1013,8 hPa 0,0 mm 17,7 km/h (3 Bft) W-NW 287 ° 0 min 0,000 mm 0,0 UV-I 0 W/m² 1,1 °C -2,3 °C 29,0 km/h (5 Bft)
09.12.2018 23:57 2,1 °C 93 % 1013,8 hPa 0,0 mm 18,4 km/h (3 Bft) W 279 ° 0 min 0,000 mm 0,0 UV-I 0 W/m² 1,1 °C -2,4 °C 24,1 km/h (4 Bft)
09.12.2018 23:58 2,1 °C 93 % 1013,9 hPa 0,0 mm 12,9 km/h (3 Bft) W 278 ° 0 min 0,000 mm 0,0 UV-I 0 W/m² 1,1 °C -1,4 °C 19,3 km/h (3 Bft)
09.12.2018 23:59 2,1 °C 93 % 1013,9 hPa 0,0 mm 15,2 km/h (3 Bft) W-SW 242 ° 0 min 0,000 mm 0,0 UV-I 0 W/m² 1,1 °C -1,9 °C 19,3 km/h (3 Bft)
_ Min-Zeit 08:16 02:16 05:02 - 05:01 - - - - - - 08:04 07:58 05:07
Minimum _ 1,5 °C 69 % 1002,2 hPa - 3,9 km/h (1 Bft) - - - - - - 0,1 °C -3,4 °C 4,8 km/h (1 Bft)
_ Max-Zeit 03:06 23:59 23:59 23:53 18:45 - - 23:59 14:01 12:25 12:09 04:33 02:37 11:35
Maximum _ 8,3 °C 93 % 1013,9 hPa 0,2 mm 32,0 km/h
W (5 Bft)
- - 0 min 0,051 mm 0,7 UV-I 109 W/m² 4,4 °C 6,8 °C 53,1 km/h
W-SW (7 Bft)
Durchschnitt _ 4,1 °C 87 % 1006,6 hPa #19,2 mm 15,9 km/h (3 Bft) W - #0 min. #0,559 mm 0,6 UV-I 12 W/m² 2,2 °C 0,6 °C 24,0 km/h (4 Bft)